Detalle de ayer:

6/12/19
Time         Wind Dir  Wind Gust   Humidity       Temp   Tot Rain Wind Chill Heat Index  Dew Point   Barom SL Temp Out H Temp Out L  DailyRain   HourRain   24HrRain   RainRate   Wind Run   Deg Heat   Deg Cool  MonthRain
                          km/hr          %         C         mm         C         C         C         mb         C         C         mm         mm         mm      mm/hr         km         C         C         mm
0:00               21        6.4         78       11.6      187.2       11.6       13.8        7.9     1016.0       11.6       11.6        0.0        0.0        0.0       0.00      121.8       6.65       0.00       55.6
0:02               17        3.2         78       11.6      187.2       11.6       13.8        7.9     1016.1       11.6       11.6        0.0        0.0        0.0       0.00        0.1       0.07       0.00       55.6
0:04               18        6.4         78       11.6      187.2       11.6       13.8        7.9     1016.1       11.6       11.6        0.0        0.0        0.0       0.00        0.3       0.07       0.00       55.6
0:06               17        6.4         78       11.6      187.2       11.6       13.8        7.9     1016.0       11.6       11.6        0.0        0.0        0.0       0.00        0.4       0.07       0.00       55.6
0:08               21        6.4         78       11.6      187.2       11.6       13.8        7.9     1016.0       11.6       11.6        0.0        0.0        0.0       0.00        0.6       0.07       0.00       55.6
0:10               21        4.8         78       11.6      187.2       11.6       13.8        7.9     1016.0       11.6       11.6        0.0        0.0        0.0       0.00        0.8       0.07       0.00       55.6
0:12               21       11.3         78       11.5      187.2        8.7       13.7        7.8     1016.0       11.6       11.5        0.0        0.0        0.0       0.00        0.9       0.07       0.00       55.6
0:14               21        6.4         78       11.5      187.2       11.5       13.7        7.8     1016.1       11.6       11.5        0.0        0.0        0.0       0.00        1.1       0.07       0.00       55.6
0:16               20        6.4         78       11.5      187.2       11.5       13.7        7.8     1016.0       11.6       11.5        0.0        0.0        0.0       0.00        1.3       0.13       0.00       55.6
0:18               22        4.8         78       11.5      187.2       11.5       13.7        7.8     1016.0       11.6       11.5        0.0        0.0        0.0       0.00        1.4       0.13       0.00       55.6
0:20               26        8.0         78       11.5      187.2       11.5       13.7        7.8     1016.0       11.6       11.5        0.0        0.0        0.0       0.00        1.6       0.13       0.00       55.6
0:22               24        4.8         78       11.5      187.2       11.5       13.7        7.8     1016.0       11.6       11.5        0.0        0.0        0.0       0.00        1.7       0.13       0.00       55.6
0:24               23        6.4         78       11.4      187.2       11.4       13.6        7.7     1016.0       11.6       11.4        0.0        0.0        0.0       0.00        1.9       0.13       0.00       55.6
0:26               22        6.4         78       11.4      187.2       11.4       13.6        7.7     1016.0       11.6       11.4        0.0        0.0        0.0       0.00        2.0       0.13       0.00       55.6
0:28               21        4.8         78       11.4      187.2       11.4       13.6        7.7     1016.0       11.6       11.4        0.0        0.0        0.0       0.00        2.2       0.13       0.00       55.6
0:30               26        6.4         78       11.4      187.2       11.4       13.6        7.7     1016.0       11.6       11.4        0.0        0.0        0.0       0.00        2.4       0.13       0.00       55.6
0:32               24        6.4         79       11.3      187.2       11.3       13.6        7.8     1016.0       11.6       11.3        0.0        0.0        0.0       0.00        2.6       0.20       0.00       55.6
0:34               27        6.4         79       11.3      187.2       11.3       13.6        7.8     1016.1       11.6       11.3        0.0        0.0        0.0       0.00        2.8       0.20       0.00       55.6
0:36               28        6.4         79       11.3      187.2       11.3       13.6        7.8     1016.1       11.6       11.3        0.0        0.0        0.0       0.00        3.0       0.20       0.00       55.6
0:38               24       14.5         79       11.3      187.2       11.3       13.6        7.8     1016.0       11.6       11.3        0.0        0.0        0.0       0.00        3.2       0.20       0.00       55.6
0:40               30        4.8         79       11.4      187.2       11.4       13.7        7.9     1016.0       11.6       11.3        0.0        0.0        0.0       0.00        3.3       0.20       0.00       55.6
0:42               24        6.4         78       11.4      187.2       11.4       13.6        7.7     1016.0       11.6       11.3        0.0        0.0        0.0       0.00        3.5       0.20       0.00       55.6
0:44               24        4.8         78       11.3      187.2       11.3       13.5        7.6     1015.9       11.6       11.3        0.0        0.0        0.0       0.00        3.7       0.20       0.00       55.6
0:46               23        4.8         78       11.3      187.2       11.3       13.5        7.6     1016.0       11.6       11.3        0.0        0.0        0.0       0.00        3.8       0.27       0.00       55.6
0:48               23        9.7         78       11.3      187.2        9.3       13.5        7.6     1016.0       11.6       11.3        0.0        0.0        0.0       0.00        3.9       0.27       0.00       55.6
0:50               24        4.8         79       11.3      187.2       11.3       13.6        7.8     1015.9       11.6       11.3        0.0        0.0        0.0       0.00        4.1       0.27       0.00       55.6
0:52               24        6.4         79       11.3      187.2       11.3       13.6        7.8     1015.9       11.6       11.3        0.0        0.0        0.0       0.00        4.3       0.27       0.00       55.6
0:54               23        3.2         79       11.3      187.2       11.3       13.6        7.8     1015.8       11.6       11.3        0.0        0.0        0.0       0.00        4.4       0.27       0.00       55.6
0:56               22        4.8         79       11.3      187.2       11.3       13.6        7.8     1015.8       11.6       11.3        0.0        0.0        0.0       0.00        4.5       0.27       0.00       55.6
0:58               22        3.2         79       11.3      187.2       11.3       13.6        7.8     1015.8       11.6       11.3        0.0        0.0        0.0       0.00        4.6       0.27       0.00       55.6
1:00               22        6.4         79       11.2      187.2       11.2       13.5        7.7     1015.8       11.6       11.2        0.0        0.0        0.0       0.00        4.8       0.27       0.00       55.6
1:02               22        3.2         79       11.2      187.2       11.2       13.5        7.7     1015.7       11.6       11.2        0.0        0.0        0.0       0.00        4.9       0.34       0.00       55.6
1:04               22        3.2         79       11.2      187.2       11.2       13.5        7.7     1015.7       11.6       11.2        0.0        0.0        0.0       0.00        5.0       0.34       0.00       55.6
1:06               22        3.2         79       11.2      187.2       11.2       13.4        7.7     1015.7       11.6       11.2        0.0        0.0        0.0       0.00        5.1       0.34       0.00       55.6
1:08               22        3.2         79       11.1      187.2       11.1       13.4        7.6     1015.7       11.6       11.1        0.0        0.0        0.0       0.00        5.1       0.34       0.00       55.6
1:10               22        1.6         79       11.1      187.2       11.1       13.3        7.6     1015.8       11.6       11.1        0.0        0.0        0.0       0.00        5.2       0.34       0.00       55.6
1:12               22        4.8         79       11.0      187.2       11.0       13.3        7.5     1015.8       11.6       11.0        0.0        0.0        0.0       0.00        5.3       0.34       0.00       55.6
1:14               22        3.2         79       10.9      187.2       10.9       13.2        7.4     1015.7       11.6       10.9        0.0        0.0        0.0       0.00        5.3       0.34       0.00       55.6
1:16               22        3.2         80       10.9      187.2       10.9       13.2        7.6     1015.7       11.6       10.9        0.0        0.0        0.0       0.00        5.4       0.42       0.00       55.6
1:18               22        4.8         80       10.9      187.2       10.9       13.2        7.6     1015.8       11.6       10.9        0.0        0.0        0.0       0.00        5.5       0.42       0.00       55.6
1:20               22        6.4         80       10.8      187.2       10.8       13.2        7.5     1015.8       11.6       10.8        0.0        0.0        0.0       0.00        5.6       0.42       0.00       55.6
1:22               21        4.8         80       10.8      187.2       10.8       13.2        7.5     1015.7       11.6       10.8        0.0        0.0        0.0       0.00        5.7       0.42       0.00       55.6
1:24               22        3.2         80       10.8      187.2       10.8       13.2        7.5     1015.8       11.6       10.8        0.0        0.0        0.0       0.00        5.8       0.42       0.00       55.6
1:26               22        4.8         80       10.8      187.2       10.8       13.2        7.5     1015.8       11.6       10.8        0.0        0.0        0.0       0.00        5.9       0.42       0.00       55.6
1:28               22        3.2         80       10.8      187.2       10.8       13.1        7.5     1015.7       11.6       10.8        0.0        0.0        0.0       0.00        6.0       0.42       0.00       55.6
1:30               22        4.8         80       10.8      187.2       10.8       13.1        7.5     1015.9       11.6       10.8        0.0        0.0        0.0       0.00        6.1       0.42       0.00       55.6
1:32               22        4.8         80       10.8      187.2       10.8       13.1        7.5     1015.8       11.6       10.8        0.0        0.0        0.0       0.00        6.1       0.49       0.00       55.6
1:34               21        3.2         80       10.7      187.2       10.7       13.1        7.4     1015.9       11.6       10.7        0.0        0.0        0.0       0.00        6.2       0.49       0.00       55.6
1:36               21        6.4         80       10.8      187.2       10.8       13.1        7.5     1015.9       11.6       10.7        0.0        0.0        0.0       0.00        6.3       0.49       0.00       55.6
1:38               21        3.2         80       10.8      187.2       10.8       13.1        7.5     1015.9       11.6       10.7        0.0        0.0        0.0       0.00        6.4       0.49       0.00       55.6
1:40               21        3.2         80       10.7      187.2       10.7       13.1        7.4     1015.9       11.6       10.7        0.0        0.0        0.0       0.00        6.5       0.49       0.00       55.6
1:42               21        3.2         80       10.7      187.2       10.7       13.1        7.4     1015.9       11.6       10.7        0.0        0.0        0.0       0.00        6.6       0.49       0.00       55.6
1:44               21        3.2         80       10.7      187.2       10.7       13.1        7.4     1015.9       11.6       10.7        0.0        0.0        0.0       0.00        6.7       0.49       0.00       55.6
1:46               21        4.8         80       10.7      187.2       10.7       13.1        7.4     1015.9       11.6       10.7        0.0        0.0        0.0       0.00        6.8       0.57       0.00       55.6
1:48               21        4.8         80       10.7      187.2       10.7       13.1        7.4     1015.9       11.6       10.7        0.0        0.0        0.0       0.00        6.9       0.57       0.00       55.6
1:50               21        3.2         80       10.7      187.2       10.7       13.1        7.4     1016.0       11.6       10.7        0.0        0.0        0.0       0.00        7.0       0.57       0.00       55.6
1:52               21        4.8         80       10.7      187.2       10.7       13.1        7.4     1016.0       11.6       10.7        0.0        0.0        0.0       0.00        7.1       0.57       0.00       55.6
1:54               21        6.4         80       10.7      187.2       10.7       13.1        7.4     1016.0       11.6       10.7        0.0        0.0        0.0       0.00        7.2       0.57       0.00       55.6
1:56               21        3.2         80       10.7      187.2       10.7       13.1        7.4     1016.0       11.6       10.7        0.0        0.0        0.0       0.00        7.3       0.57       0.00       55.6
1:58               21        4.8         80       10.7      187.2       10.7       13.1        7.4     1016.0       11.6       10.7        0.0        0.0        0.0       0.00        7.4       0.57       0.00       55.6
2:00               21        4.8         80       10.7      187.2       10.7       13.1        7.4     1016.0       11.6       10.7        0.0        0.0        0.0       0.00        7.5       0.57       0.00       55.6
2:02               21        4.8         80       10.7      187.2       10.7       13.0        7.4     1016.0       11.6       10.7        0.0        0.0        0.0       0.00        7.6       0.64       0.00       55.6
2:04               21        4.8         80       10.7      187.2       10.7       13.0        7.4     1016.0       11.6       10.7        0.0        0.0        0.0       0.00        7.8       0.64       0.00       55.6
2:06               21        3.2         80       10.7      187.2       10.7       13.0        7.4     1015.9       11.6       10.7        0.0        0.0        0.0       0.00        7.9       0.64       0.00       55.6
2:08               21        3.2         80       10.7      187.2       10.7       13.0        7.4     1015.8       11.6       10.7        0.0        0.0        0.0       0.00        7.9       0.64       0.00       55.6
2:10               21        4.8         80       10.6      187.2       10.6       13.0        7.3     1015.8       11.6       10.6        0.0        0.0        0.0       0.00        8.1       0.64       0.00       55.6
2:12               21        4.8         80       10.6      187.2       10.6       13.0        7.3     1015.9       11.6       10.6        0.0        0.0        0.0       0.00        8.2       0.64       0.00       55.6
2:14               21        4.8         80       10.6      187.2       10.6       13.0        7.3     1015.8       11.6       10.6        0.0        0.0        0.0       0.00        8.3       0.64       0.00       55.6
2:16               21        4.8         80       10.6      187.2       10.6       12.9        7.3     1015.9       11.6       10.6        0.0        0.0        0.0       0.00        8.4       0.72       0.00       55.6
2:18               20        6.4         80       10.6      187.2       10.6       12.9        7.3     1015.9       11.6       10.6        0.0        0.0        0.0       0.00        8.5       0.72       0.00       55.6
2:20               20        4.8         81       10.6      187.2       10.6       13.0        7.4     1016.1       11.6       10.5        0.0        0.0        0.0       0.00        8.6       0.72       0.00       55.6
2:22               19        4.8         81       10.5      187.2       10.5       12.9        7.4     1016.0       11.6       10.5        0.0        0.0        0.0       0.00        8.7       0.72       0.00       55.6
2:24               20        4.8         81       10.6      187.2       10.6       13.0        7.4     1016.0       11.6       10.5        0.0        0.0        0.0       0.00        8.8       0.72       0.00       55.6
2:26               20        4.8         81       10.5      187.2       10.5       12.9        7.4     1016.1       11.6       10.5        0.0        0.0        0.0       0.00        8.9       0.72       0.00       55.6
2:28               19        8.0         81       10.5      187.2       10.5       12.9        7.4     1016.0       11.6       10.5        0.0        0.0        0.0       0.00        9.1       0.72       0.00       55.6
2:30               19        3.2         81       10.5      187.2       10.5       12.9        7.4     1016.0       11.6       10.5        0.0        0.0        0.0       0.00        9.2       0.72       0.00       55.6
2:32               16        6.4         81       10.5      187.2       10.5       12.9        7.4     1016.0       11.6       10.5        0.0        0.0        0.0       0.00        9.3       0.80       0.00       55.6
2:34               17        3.2         81       10.6      187.2       10.6       13.0        7.4     1016.0       11.6       10.5        0.0        0.0        0.0       0.00        9.4       0.80       0.00       55.6
2:36               19        8.0         80       10.6      187.2        9.3       12.9        7.3     1016.0       11.6       10.5        0.0        0.0        0.0       0.00        9.6       0.80       0.00       55.6
2:38               18        8.0         80       10.6      187.2       10.6       12.9        7.3     1016.0       11.6       10.5        0.0        0.0        0.0       0.00        9.7       0.80       0.00       55.6
2:40               17        4.8         80       10.6      187.2       10.6       12.9        7.3     1016.0       11.6       10.5        0.0        0.0        0.0       0.00        9.9       0.80       0.00       55.6
2:42               17        3.2         80       10.6      187.2       10.6       13.0        7.3     1016.0       11.6       10.5        0.0        0.0        0.0       0.00       10.0       0.80       0.00       55.6
2:44               17        4.8         80       10.6      187.2       10.6       13.0        7.3     1016.0       11.6       10.5        0.0        0.0        0.0       0.00       10.1       0.80       0.00       55.6
2:46               17        3.2         80       10.6      187.2       10.6       13.0        7.3     1016.0       11.6       10.5        0.0        0.0        0.0       0.00       10.2       0.88       0.00       55.6
2:48               17        3.2         80       10.6      187.2       10.6       13.0        7.3     1016.0       11.6       10.5        0.0        0.0        0.0       0.00       10.3       0.88       0.00       55.6
2:50               17        4.8         80       10.6      187.2       10.6       13.0        7.3     1016.0       11.6       10.5        0.0        0.0        0.0       0.00       10.4       0.88       0.00       55.6
2:52               17        3.2         80       10.6      187.2       10.6       13.0        7.3     1016.0       11.6       10.5        0.0        0.0        0.0       0.00       10.5       0.88       0.00       55.6
2:54               17        4.8         80       10.6      187.2       10.6       13.0        7.3     1016.0       11.6       10.5        0.0        0.0        0.0       0.00       10.6       0.88       0.00       55.6
2:56               17        4.8         80       10.6      187.2       10.6       13.0        7.3     1016.0       11.6       10.5        0.0        0.0        0.0       0.00       10.8       0.88       0.00       55.6
2:58               17        6.4         80       10.6      187.2       10.6       13.0        7.3     1016.0       11.6       10.5        0.0        0.0        0.0       0.00       10.9       0.88       0.00       55.6
3:00               17       11.3         80       10.7      187.2        9.4       13.0        7.4     1016.1       11.6       10.5        0.0        0.0        0.0       0.00       11.1       0.88       0.00       55.6
3:02               17        4.8         79       10.7      187.2       10.7       12.9        7.2     1016.1       11.6       10.5        0.0        0.0        0.0       0.00       11.3       0.95       0.00       55.6
3:04               17        6.4         79       10.7      187.2       10.7       12.9        7.2     1016.1       11.6       10.5        0.0        0.0        0.0       0.00       11.4       0.95       0.00       55.6
3:06               17        4.8         79       10.7      187.2       10.7       12.9        7.2     1016.1       11.6       10.5        0.0        0.0        0.0       0.00       11.6       0.95       0.00       55.6
3:08               17        3.2         79       10.7      187.2       10.7       12.9        7.2     1016.2       11.6       10.5        0.0        0.0        0.0       0.00       11.7       0.95       0.00       55.6
3:10               17        4.8         79       10.7      187.2       10.7       12.9        7.2     1016.2       11.6       10.5        0.0        0.0        0.0       0.00       11.8       0.95       0.00       55.6
3:12               17        6.4         79       10.6      187.2       10.6       12.9        7.1     1016.1       11.6       10.5        0.0        0.0        0.0       0.00       12.0       0.95       0.00       55.6
3:14               17        4.8         79       10.6      187.2       10.6       12.9        7.1     1016.1       11.6       10.5        0.0        0.0        0.0       0.00       12.1       0.95       0.00       55.6
3:16               17       11.3         79       10.6      187.2        9.3       12.8        7.1     1016.1       11.6       10.5        0.0        0.0        0.0       0.00       12.3       1.03       0.00       55.6
3:18               17        8.0         79       10.6      187.2       10.6       12.8        7.1     1016.2       11.6       10.5        0.0        0.0        0.0       0.00       12.4       1.03       0.00       55.6
3:20               17        4.8         79       10.5      187.2       10.5       12.8        7.0     1016.2       11.6       10.5        0.0        0.0        0.0       0.00       12.6       1.03       0.00       55.6
3:22               17        8.0         80       10.5      187.2       10.5       12.8        7.2     1016.2       11.6       10.5        0.0        0.0        0.0       0.00       12.8       1.03       0.00       55.6
3:24               17        3.2         80       10.5      187.2       10.5       12.8        7.2     1016.2       11.6       10.5        0.0        0.0        0.0       0.00       12.9       1.03       0.00       55.6
3:26               17        8.0         80       10.5      187.2       10.5       12.8        7.2     1016.2       11.6       10.5        0.0        0.0        0.0       0.00       13.1       1.03       0.00       55.6
3:28               17       12.9         80       10.5      187.2        6.8       12.8        7.2     1016.1       11.6       10.5        0.0        0.0        0.0       0.00       13.3       1.03       0.00       55.6
3:30               17        4.8         80       10.5      187.2       10.5       12.8        7.2     1016.2       11.6       10.5        0.0        0.0        0.0       0.00       13.5       1.03       0.00       55.6
3:32               17       12.9         80       10.5      187.2        6.8       12.8        7.2     1016.2       11.6       10.5        0.0        0.0        0.0       0.00       13.7       1.11       0.00       55.6
3:34               17        6.4         79       10.6      187.2       10.6       12.8        7.1     1016.1       11.6       10.5        0.0        0.0        0.0       0.00       13.9       1.11       0.00       55.6
3:36               17        6.4         79       10.6      187.2       10.6       12.8        7.1     1016.1       11.6       10.5        0.0        0.0        0.0       0.00       14.1       1.11       0.00       55.6
3:38               17        6.4         79       10.6      187.2       10.6       12.9        7.1     1016.1       11.6       10.5        0.0        0.0        0.0       0.00       14.3       1.11       0.00       55.6
3:40               17       11.3         79       10.6      187.2       10.6       12.9        7.1     1016.2       11.6       10.5        0.0        0.0        0.0       0.00       14.5       1.11       0.00       55.6
3:42               17       11.3         79       10.6      187.2        7.7       12.9        7.1     1016.1       11.6       10.5        0.0        0.0        0.0       0.00       14.7       1.11       0.00       55.6
3:44               19        4.8         79       10.6      187.2       10.6       12.8        7.1     1016.1       11.6       10.5        0.0        0.0        0.0       0.00       14.9       1.11       0.00       55.6
3:46               19        6.4         79       10.6      187.2       10.6       12.8        7.1     1016.1       11.6       10.5        0.0        0.0        0.0       0.00       15.0       1.19       0.00       55.6
3:48               19        4.8         79       10.6      187.2       10.6       12.8        7.1     1016.2       11.6       10.5        0.0        0.0        0.0       0.00       15.1       1.19       0.00       55.6
3:50               19        4.8         79       10.6      187.2       10.6       12.8        7.1     1016.3       11.6       10.5        0.0        0.0        0.0       0.00       15.3       1.19       0.00       55.6
3:52               19        4.8         79       10.5      187.2       10.5       12.8        7.0     1016.3       11.6       10.5        0.0        0.0        0.0       0.00       15.4       1.19       0.00       55.6
3:54               17        8.0         79       10.4      187.2       10.4       12.7        7.0     1016.3       11.6       10.4        0.0        0.0        0.0       0.00       15.5       1.19       0.00       55.6
3:56               23       11.3         79       10.4      187.2       10.4       12.7        6.9     1016.3       11.6       10.4        0.0        0.0        0.0       0.00       15.7       1.19       0.00       55.6
3:58               23        9.7         79       10.4      187.2       10.4       12.7        6.9     1016.3       11.6       10.4        0.0        0.0        0.0       0.00       15.9       1.19       0.00       55.6
4:00               28        4.8         79       10.4      187.2       10.4       12.7        6.9     1016.3       11.6       10.4        0.0        0.0        0.0       0.00       16.0       1.19       0.00       55.6
4:02               28        4.8         80       10.4      187.2       10.4       12.7        7.1     1016.4       11.6       10.3        0.0        0.0        0.0       0.00       16.1       1.27       0.00       55.6
4:04               28       12.9         80       10.3      187.2       10.3       12.7        7.0     1016.5       11.6       10.3        0.0        0.0        0.0       0.00       16.3       1.27       0.00       55.6
4:06               27        4.8         80       10.3      187.2       10.3       12.7        7.0     1016.4       11.6       10.3        0.0        0.0        0.0       0.00       16.5       1.27       0.00       55.6
4:08               26        8.0         80       10.3      187.2       10.3       12.7        7.0     1016.4       11.6       10.3        0.0        0.0        0.0       0.00       16.7       1.27       0.00       55.6
4:10               36       11.3         80       10.3      187.2        7.4       12.7        7.0     1016.4       11.6       10.3        0.0        0.0        0.0       0.00       16.8       1.27       0.00       55.6
4:12               30        6.4         80       10.3      187.2       10.3       12.7        7.0     1016.5       11.6       10.3        0.0        0.0        0.0       0.00       17.1       1.27       0.00       55.6
4:14               31        6.4         80       10.3      187.2       10.3       12.7        7.0     1016.5       11.6       10.3        0.0        0.0        0.0       0.00       17.3       1.27       0.00       55.6
4:16               38        8.0         80       10.3      187.2        9.1       12.7        7.0     1016.5       11.6       10.3        0.0        0.0        0.0       0.00       17.5       1.35       0.00       55.6
4:18               33        6.4         80       10.3      187.2       10.3       12.7        7.0     1016.5       11.6       10.3        0.0        0.0        0.0       0.00       17.6       1.35       0.00       55.6
4:20               38        6.4         80       10.3      187.2       10.3       12.6        7.0     1016.5       11.6       10.3        0.0        0.0        0.0       0.00       17.8       1.35       0.00       55.6
4:22               29        6.4         80       10.3      187.2       10.3       12.6        7.0     1016.5       11.6       10.3        0.0        0.0        0.0       0.00       18.0       1.35       0.00       55.6
4:24               29       12.9         80       10.2      187.2        6.4       12.6        6.9     1016.5       11.6       10.2        0.0        0.0        0.0       0.00       18.2       1.35       0.00       55.6
4:26               24        6.4         80       10.2      187.2       10.2       12.5        6.9     1016.5       11.6       10.2        0.0        0.0        0.0       0.00       18.3       1.35       0.00       55.6
4:28               17        8.0         80       10.1      187.2        8.9       12.5        6.8     1016.5       11.6       10.1        0.0        0.0        0.0       0.00       18.5       1.35       0.00       55.6
4:30               22        8.0         80       10.0      187.2       10.0       12.3        6.7     1016.5       11.6       10.0        0.0        0.0        0.0       0.00       18.7       1.35       0.00       55.6
4:32               24        6.4         81        9.9      187.2        9.9       12.4        6.8     1016.5       11.6        9.9        0.0        0.0        0.0       0.00       18.8       1.43       0.00       55.6
4:34               31        4.8         81        9.9      187.2        9.9       12.3        6.8     1016.5       11.6        9.9        0.0        0.0        0.0       0.00       19.0       1.43       0.00       55.6
4:36               34        8.0         81        9.9      187.2        9.9       12.3        6.8     1016.5       11.6        9.9        0.0        0.0        0.0       0.00       19.2       1.43       0.00       55.6
4:38               32        6.4         81        9.9      187.2        9.9       12.3        6.8     1016.4       11.6        9.9        0.0        0.0        0.0       0.00       19.3       1.43       0.00       55.6
4:40               28        9.7         81        9.9      187.2        9.9       12.3        6.8     1016.5       11.6        9.9        0.0        0.0        0.0       0.00       19.5       1.43       0.00       55.6
4:42               21        4.8         81        9.9      187.2        9.9       12.3        6.8     1016.4       11.6        9.9        0.0        0.0        0.0       0.00       19.6       1.43       0.00       55.6
4:44               21        4.8         81        9.9      187.2        9.9       12.3        6.8     1016.5       11.6        9.9        0.0        0.0        0.0       0.00       19.8       1.43       0.00       55.6
4:46               19        4.8         81        9.9      187.2        9.9       12.3        6.8     1016.5       11.6        9.9        0.0        0.0        0.0       0.00       19.9       1.51       0.00       55.6
4:48               19        6.4         81        9.9      187.2        9.9       12.3        6.8     1016.6       11.6        9.8        0.0        0.0        0.0       0.00       20.0       1.51       0.00       55.6
4:50               20        6.4         81        9.8      187.2        9.8       12.3        6.7     1016.5       11.6        9.8        0.0        0.0        0.0       0.00       20.2       1.51       0.00       55.6
4:52               20        8.0         81        9.8      187.2        9.8       12.3        6.7     1016.5       11.6        9.8        0.0        0.0        0.0       0.00       20.3       1.51       0.00       55.6
4:54               19        6.4         81        9.8      187.2        9.8       12.2        6.7     1016.6       11.6        9.8        0.0        0.0        0.0       0.00       20.4       1.51       0.00       55.6
4:56               18        4.8         81        9.7      187.2        9.7       12.1        6.6     1016.5       11.6        9.7        0.0        0.0        0.0       0.00       20.5       1.51       0.00       55.6
4:58               19        4.8         82        9.7      187.2        9.7       12.2        6.8     1016.5       11.6        9.7        0.0        0.0        0.0       0.00       20.7       1.51       0.00       55.6
5:00               18       11.3         82        9.7      187.2        6.7       12.2        6.7     1016.4       11.6        9.7        0.0        0.0        0.0       0.00       20.9       1.51       0.00       55.6
5:02               18       11.3         82        9.7      187.2        9.7       12.2        6.7     1016.5       11.6        9.7        0.0        0.0        0.0       0.00       21.0       1.60       0.00       55.6
5:04               19        8.0         82        9.7      187.2        9.7       12.2        6.7     1016.5       11.6        9.6        0.0        0.0        0.0       0.00       21.2       1.60       0.00       55.6
5:06               12        6.4         82        9.6      187.2        9.6       12.1        6.7     1016.4       11.6        9.6        0.0        0.0        0.0       0.00       21.3       1.60       0.00       55.6
5:08               34        6.4         82        9.6      187.2        9.6       12.1        6.7     1016.5       11.6        9.6        0.0        0.0        0.0       0.00       21.5       1.60       0.00       55.6
5:10               23        6.4         82        9.6      187.2        9.6       12.1        6.7     1016.5       11.6        9.6        0.0        0.0        0.0       0.00       21.7       1.60       0.00       55.6
5:12               22        4.8         82        9.6      187.2        9.6       12.1        6.7     1016.6       11.6        9.6        0.0        0.0        0.0       0.00       21.8       1.60       0.00       55.6
5:14               26        6.4         82        9.6      187.2        9.6       12.1        6.7     1016.6       11.6        9.6        0.0        0.0        0.0       0.00       22.0       1.60       0.00       55.6
5:16               24        4.8         82        9.6      187.2        9.6       12.1        6.7     1016.6       11.6        9.6        0.0        0.0        0.0       0.00       22.2       1.69       0.00       55.6
5:17               22       12.9         82        9.7      187.2        5.8       12.2        6.7     1016.7       11.6        9.6        0.0        0.0        0.0       0.00       22.3       1.69       0.00       55.6
5:20               25        8.0         82        9.7      187.2        9.7       12.2        6.7     1016.5       11.6        9.6        0.0        0.0        0.0       0.00       22.5       1.69       0.00       55.6
5:22               18        8.0         82        9.7      187.2        9.7       12.2        6.8     1016.5       11.6        9.6        0.0        0.0        0.0       0.00       22.7       1.69       0.00       55.6
5:24               17        8.0         82        9.7      187.2        9.7       12.2        6.8     1016.6       11.6        9.6        0.0        0.0        0.0       0.00       22.9       1.69       0.00       55.6
5:26               16        8.0         82        9.7      187.2        9.7       12.2        6.8     1016.7       11.6        9.6        0.0        0.0        0.0       0.00       23.0       1.69       0.00       55.6
5:28               17        4.8         82        9.7      187.2        9.7       12.2        6.8     1016.6       11.6        9.6        0.0        0.0        0.0       0.00       23.2       1.69       0.00       55.6
5:30                5        6.4         82        9.7      187.2        9.7       12.2        6.8     1016.6       11.6        9.6        0.0        0.0        0.0       0.00       23.3       1.69       0.00       55.6
5:32                5        4.8         82        9.7      187.2        9.7       12.2        6.7     1016.6       11.6        9.6        0.0        0.0        0.0       0.00       23.5       1.77       0.00       55.6
5:34               10        8.0         82        9.7      187.2        9.7       12.2        6.7     1016.7       11.6        9.6        0.0        0.0        0.0       0.00       23.6       1.77       0.00       55.6
5:36               10        6.4         82        9.7      187.2        9.7       12.2        6.7     1016.7       11.6        9.6        0.0        0.0        0.0       0.00       23.7       1.77       0.00       55.6
5:38               13        6.4         82        9.6      187.2        9.6       12.1        6.7     1016.7       11.6        9.6        0.0        0.0        0.0       0.00       23.9       1.77       0.00       55.6
5:40               14        8.0         82        9.6      187.2        9.6       12.1        6.7     1016.8       11.6        9.6        0.0        0.0        0.0       0.00       24.1       1.77       0.00       55.6
5:42               13        6.4         82        9.6      187.2        9.6       12.1        6.7     1016.8       11.6        9.6        0.0        0.0        0.0       0.00       24.2       1.77       0.00       55.6
5:44               14        6.4         82        9.6      187.2        9.6       12.1        6.7     1016.8       11.6        9.6        0.0        0.0        0.0       0.00       24.4       1.77       0.00       55.6
5:46               13        4.8         82        9.6      187.2        9.6       12.1        6.6     1016.9       11.6        9.6        0.0        0.0        0.0       0.00       24.5       1.86       0.00       55.6
5:48               13        6.4         82        9.6      187.2        9.6       12.1        6.6     1016.9       11.6        9.6        0.0        0.0        0.0       0.00       24.7       1.86       0.00       55.6
5:50               12       11.3         82        9.6      187.2        9.6       12.1        6.6     1017.0       11.6        9.6        0.0        0.0        0.0       0.00       24.9       1.86       0.00       55.6
5:52               16        6.4         82        9.6      187.2        9.6       12.1        6.6     1017.0       11.6        9.6        0.0        0.0        0.0       0.00       25.0       1.86       0.00       55.6
5:54               16        6.4         82        9.6      187.2        9.6       12.1        6.6     1017.0       11.6        9.6        0.0        0.0        0.0       0.00       25.1       1.86       0.00       55.6
5:56               16        6.4         82        9.6      187.2        9.6       12.1        6.6     1017.0       11.6        9.6        0.0        0.0        0.0       0.00       25.3       1.86       0.00       55.6
5:58               12        8.0         82        9.6      187.2        9.6       12.1        6.6     1017.0       11.6        9.6        0.0        0.0        0.0       0.00       25.4       1.86       0.00       55.6
6:00               13        6.4         82        9.6      187.2        9.6       12.1        6.6     1017.0       11.6        9.6        0.0        0.0        0.0       0.00       25.6       1.86       0.00       55.6
6:02               13        4.8         82        9.6      187.2        9.6       12.1        6.6     1017.0       11.6        9.6        0.0        0.0        0.0       0.00       25.7       1.95       0.00       55.6
6:04               14        8.0         82        9.6      187.2        9.6       12.1        6.6     1017.0       11.6        9.6        0.0        0.0        0.0       0.00       25.9       1.95       0.00       55.6
6:06               15       11.3         82        9.6      187.2        8.3       12.1        6.6     1017.0       11.6        9.6        0.0        0.0        0.0       0.00       26.1       1.95       0.00       55.6
6:08               14        8.0         82        9.6      187.2        9.6       12.1        6.6     1017.0       11.6        9.6        0.0        0.0        0.0       0.00       26.3       1.95       0.00       55.6
6:10               22        4.8         82        9.5      187.2        9.5       12.0        6.6     1017.1       11.6        9.5        0.0        0.0        0.0       0.00       26.4       1.95       0.00       55.6
6:12               22        6.4         82        9.6      187.2        9.6       12.1        6.6     1017.1       11.6        9.5        0.0        0.0        0.0       0.00       26.6       1.95       0.00       55.6
6:14               22        4.8         82        9.6      187.2        9.6       12.1        6.6     1017.1       11.6        9.5        0.0        0.0        0.0       0.00       26.7       1.95       0.00       55.6
6:16               22        4.8         82        9.6      187.2        9.6       12.1        6.6     1017.1       11.6        9.5        0.0        0.0        0.0       0.00       26.8       2.04       0.00       55.6
6:18               22        9.7         82        9.6      187.2        9.6       12.1        6.6     1017.1       11.6        9.5        0.0        0.0        0.0       0.00       26.9       2.04       0.00       55.6
6:20               22        8.0         82        9.5      187.2        9.5       12.0        6.6     1017.2       11.6        9.5        0.0        0.0        0.0       0.00       27.1       2.04       0.00       55.6
6:22               20        4.8         82        9.5      187.2        9.5       12.0        6.6     1017.2       11.6        9.5        0.0        0.0        0.0       0.00       27.2       2.04       0.00       55.6
6:24               20        6.4         82        9.5      187.2        9.5       12.0        6.6     1017.1       11.6        9.5        0.0        0.0        0.0       0.00       27.3       2.04       0.00       55.6
6:26               19        6.4         82        9.5      187.2        9.5       12.0        6.6     1017.2       11.6        9.5        0.0        0.0        0.0       0.00       27.5       2.04       0.00       55.6
6:28               18        6.4         82        9.5      187.2        9.5       12.0        6.6     1017.2       11.6        9.5        0.0        0.0        0.0       0.00       27.7       2.04       0.00       55.6
6:30               19        6.4         82        9.5      187.2        9.5       12.0        6.6     1017.2       11.6        9.4        0.0        0.0        0.0       0.00       27.8       2.04       0.00       55.6
6:32               19        8.0         82        9.4      187.2        9.4       11.9        6.5     1017.2       11.6        9.4        0.0        0.0        0.0       0.00       28.0       2.13       0.00       55.6
6:34               19        6.4         82        9.4      187.2        9.4       11.9        6.5     1017.3       11.6        9.4        0.0        0.0        0.0       0.00       28.1       2.13       0.00       55.6
6:36               19        6.4         82        9.4      187.2        9.4       11.9        6.5     1017.3       11.6        9.4        0.0        0.0        0.0       0.00       28.3       2.13       0.00       55.6
6:38               19        6.4         82        9.4      187.2        9.4       11.9        6.5     1017.3       11.6        9.4        0.0        0.0        0.0       0.00       28.4       2.13       0.00       55.6
6:40               19        6.4         82        9.4      187.2        9.4       11.9        6.5     1017.3       11.6        9.4        0.0        0.0        0.0       0.00       28.6       2.13       0.00       55.6
6:42               19        3.2         82        9.4      187.2        9.4       11.9        6.5     1017.4       11.6        9.4        0.0        0.0        0.0       0.00       28.7       2.13       0.00       55.6
6:44               17        6.4         82        9.3      187.2        9.3       11.8        6.4     1017.4       11.6        9.3        0.0        0.0        0.0       0.00       28.8       2.13       0.00       55.6
6:46               17        4.8         82        9.3      187.2        9.3       11.8        6.4     1017.3       11.6        9.3        0.0        0.0        0.0       0.00       29.0       2.22       0.00       55.6
6:48               16        6.4         82        9.3      187.2        9.3       11.8        6.4     1017.4       11.6        9.3        0.0        0.0        0.0       0.00       29.1       2.22       0.00       55.6
6:50               17        6.4         83        9.3      187.2        9.3       11.9        6.5     1017.5       11.6        9.3        0.0        0.0        0.0       0.00       29.2       2.22       0.00       55.6
6:52               13        6.4         83        9.3      187.2        9.3       11.9        6.5     1017.4       11.6        9.3        0.0        0.0        0.0       0.00       29.4       2.22       0.00       55.6
6:54               16        6.4         83        9.3      187.2        9.3       11.9        6.5     1017.4       11.6        9.3        0.0        0.0        0.0       0.00       29.5       2.22       0.00       55.6
6:56               16        4.8         83        9.3      187.2        9.3       11.9        6.5     1017.6       11.6        9.3        0.0        0.0        0.0       0.00       29.7       2.22       0.00       55.6
6:58               15        6.4         83        9.3      187.2        9.3       11.9        6.5     1017.6       11.6        9.3        0.0        0.0        0.0       0.00       29.8       2.22       0.00       55.6
7:00               16        4.8         83        9.3      187.2        9.3       11.9        6.5     1017.6       11.6        9.3        0.0        0.0        0.0       0.00       30.0       2.22       0.00       55.6
7:02               15        8.0         83        9.2      187.2        7.9       11.8        6.5     1017.7       11.6        9.2        0.0        0.0        0.0       0.00       30.2       2.31       0.00       55.6
7:04               19        4.8         83        9.3      187.2        9.3       11.9        6.5     1017.6       11.6        9.2        0.0        0.0        0.0       0.00       30.3       2.31       0.00       55.6
7:06               20        4.8         83        9.3      187.2        9.3       11.9        6.5     1017.6       11.6        9.2        0.0        0.0        0.0       0.00       30.5       2.31       0.00       55.6
7:08               21        6.4         83        9.3      187.2        9.3       11.9        6.5     1017.8       11.6        9.2        0.0        0.0        0.0       0.00       30.6       2.31       0.00       55.6
7:10               20        4.8         83        9.3      187.2        9.3       11.9        6.6     1017.7       11.6        9.2        0.0        0.0        0.0       0.00       30.7       2.31       0.00       55.6
7:12               19        6.4         83        9.3      187.2        9.3       11.9        6.6     1017.7       11.6        9.2        0.0        0.0        0.0       0.00       30.9       2.31       0.00       55.6
7:14               18        6.4         82        9.3      187.2        9.3       11.8        6.4     1017.8       11.6        9.2        0.0        0.0        0.0       0.00       31.0       2.31       0.00       55.6
7:16               19       11.3         82        9.3      187.2        6.3       11.8        6.4     1017.8       11.6        9.2        0.0        0.0        0.0       0.00       31.2       2.40       0.00       55.6
7:18               19        6.4         82        9.4      187.2        9.4       11.9        6.5     1017.8       11.6        9.2        0.0        0.0        0.0       0.00       31.4       2.40       0.00       55.6
7:20               20        4.8         82        9.4      187.2        9.4       11.9        6.5     1017.8       11.6        9.2        0.0        0.0        0.0       0.00       31.5       2.40       0.00       55.6
7:22               16        6.4         82        9.4      187.2        9.4       11.9        6.5     1017.9       11.6        9.2        0.0        0.0        0.0       0.00       31.7       2.40       0.00       55.6
7:24               15        4.8         82        9.4      187.2        9.4       11.9        6.5     1017.8       11.6        9.2        0.0        0.0        0.0       0.00       31.8       2.40       0.00       55.6
7:26               13        8.0         82        9.4      187.2        8.2       11.9        6.5     1017.9       11.6        9.2        0.0        0.0        0.0       0.00       32.0       2.40       0.00       55.6
7:28               19       12.9         82        9.4      187.2        9.4       11.9        6.5     1017.9       11.6        9.2        0.0        0.0        0.0       0.00       32.2       2.40       0.00       55.6
7:30               13        6.4         82        9.5      187.2        9.5       12.0        6.6     1017.9       11.6        9.2        0.0        0.0        0.0       0.00       32.3       2.40       0.00       55.6
7:32               15        6.4         82        9.6      187.2        9.6       12.1        6.6     1017.9       11.6        9.2        0.0        0.0        0.0       0.00       32.5       2.48       0.00       55.6
7:34               16       11.3         82        9.6      187.2        9.6       12.1        6.6     1018.0       11.6        9.2        0.0        0.0        0.0       0.00       32.6       2.48       0.00       55.6
7:36               17        6.4         82        9.6      187.2        9.6       12.1        6.7     1017.9       11.6        9.2        0.0        0.0        0.0       0.00       32.8       2.48       0.00       55.6
7:38               17        4.8         81        9.6      187.2        9.6       12.0        6.5     1018.0       11.6        9.2        0.0        0.0        0.0       0.00       32.9       2.48       0.00       55.6
7:40               24        8.0         81        9.6      187.2        8.3       12.0        6.5     1018.0       11.6        9.2        0.0        0.0        0.0       0.00       33.1       2.48       0.00       55.6
7:42               24        9.7         81        9.6      187.2        9.6       12.0        6.5     1018.0       11.6        9.2        0.0        0.0        0.0       0.00       33.3       2.48       0.00       55.6
7:44               25        4.8         81        9.7      187.2        9.7       12.1        6.6     1018.0       11.6        9.2        0.0        0.0        0.0       0.00       33.4       2.48       0.00       55.6
7:46               24        4.8         81        9.7      187.2        9.7       12.1        6.6     1018.1       11.6        9.2        0.0        0.0        0.0       0.00       33.6       2.57       0.00       55.6
7:48               23        6.4         81        9.7      187.2        9.7       12.1        6.6     1018.1       11.6        9.2        0.0        0.0        0.0       0.00       33.7       2.57       0.00       55.6
7:50               22        6.4         81        9.7      187.2        9.7       12.1        6.6     1018.2       11.6        9.2        0.0        0.0        0.0       0.00       33.9       2.57       0.00       55.6
7:52               21        8.0         81        9.7      187.2        8.4       12.1        6.6     1018.1       11.6        9.2        0.0        0.0        0.0       0.00       34.0       2.57       0.00       55.6
7:54               21        4.8         81        9.7      187.2        9.7       12.1        6.6     1018.2       11.6        9.2        0.0        0.0        0.0       0.00       34.1       2.57       0.00       55.6
7:56               18        8.0         81        9.7      187.2        9.7       12.1        6.6     1018.2       11.6        9.2        0.0        0.0        0.0       0.00       34.3       2.57       0.00       55.6
7:58               19        8.0         81        9.7      187.2        9.7       12.1        6.6     1018.3       11.6        9.2        0.0        0.0        0.0       0.00       34.5       2.57       0.00       55.6
8:00               20        8.0         81        9.7      187.2        9.7       12.1        6.6     1018.3       11.6        9.2        0.0        0.0        0.0       0.00       34.6       2.57       0.00       55.6
8:02               20       12.9         81        9.6      187.2        9.6       12.0        6.5     1018.3       11.6        9.2        0.0        0.0        0.0       0.00       34.8       2.66       0.00       55.6
8:04               22        6.4         81        9.6      187.2        9.6       12.0        6.5     1018.2       11.6        9.2        0.0        0.0        0.0       0.00       35.0       2.66       0.00       55.6
8:06               23        6.4         81        9.6      187.2        9.6       12.0        6.5     1018.2       11.6        9.2        0.0        0.0        0.0       0.00       35.1       2.66       0.00       55.6
8:08               32        8.0         81        9.7      187.2        9.7       12.1        6.6     1018.2       11.6        9.2        0.0        0.0        0.0       0.00       35.4       2.66       0.00       55.6
8:10               26        6.4         81        9.7      187.2        9.7       12.1        6.6     1018.2       11.6        9.2        0.0        0.0        0.0       0.00       35.6       2.66       0.00       55.6
8:12               29        4.8         81        9.7      187.2        9.7       12.1        6.6     1018.2       11.6        9.2        0.0        0.0        0.0       0.00       35.7       2.66       0.00       55.6
8:14               40        6.4         81        9.7      187.2        9.7       12.1        6.6     1018.2       11.6        9.2        0.0        0.0        0.0       0.00       35.9       2.66       0.00       55.6
8:16               32        9.7         81        9.8      187.2        9.8       12.2        6.7     1018.3       11.6        9.2        0.0        0.0        0.0       0.00       36.1       2.74       0.00       55.6
8:18               32       12.9         81        9.8      187.2        9.8       12.3        6.7     1018.3       11.6        9.2        0.0        0.0        0.0       0.00       36.4       2.74       0.00       55.6
8:20               32        8.0         81        9.8      187.2        8.6       12.3        6.7     1018.3       11.6        9.2        0.0        0.0        0.0       0.00       36.6       2.74       0.00       55.6
8:22               30        9.7         80        9.8      187.2        8.6       12.2        6.6     1018.4       11.6        9.2        0.0        0.0        0.0       0.00       36.8       2.74       0.00       55.6
8:24               24        8.0         80        9.9      187.2        9.9       12.2        6.6     1018.6       11.6        9.2        0.0        0.0        0.0       0.00       37.0       2.74       0.00       55.6
8:26               30       12.9         80        9.9      187.2        7.8       12.2        6.6     1018.6       11.6        9.2        0.0        0.0        0.0       0.00       37.2       2.74       0.00       55.6
8:28               30        8.0         80        9.9      187.2        9.9       12.3        6.7     1018.6       11.6        9.2        0.0        0.0        0.0       0.00       37.5       2.74       0.00       55.6
8:30               35        6.4         80       10.0      187.2       10.0       12.3        6.7     1018.6       11.6        9.2        0.0        0.0        0.0       0.00       37.7       2.74       0.00       55.6
8:32               35        9.7         80       10.0      187.2        7.9       12.3        6.7     1018.7       11.6        9.2        0.0        0.0        0.0       0.00       37.9       2.83       0.00       55.6
8:34               35        3.2         80       10.0      187.2       10.0       12.3        6.7     1018.7       11.6        9.2        0.0        0.0        0.0       0.00       38.1       2.83       0.00       55.6
8:36               32        9.7         80       10.1      187.2       10.1       12.4        6.8     1018.8       11.6        9.2        0.0        0.0        0.0       0.00       38.3       2.83       0.00       55.6
8:38               36       11.3         80       10.1      187.2       10.1       12.5        6.8     1018.8       11.6        9.2        0.0        0.0        0.0       0.00       38.6       2.83       0.00       55.6
8:40               33       14.5         79       10.1      187.2        5.5       12.4        6.6     1018.8       11.6        9.2        0.0        0.0        0.0       0.00       38.8       2.83       0.00       55.6
8:42               33        9.7         79       10.1      187.2        8.0       12.4        6.6     1018.8       11.6        9.2        0.0        0.0        0.0       0.00       39.0       2.83       0.00       55.6
8:44               27       12.9         79       10.2      187.2        8.1       12.4        6.7     1018.8       11.6        9.2        0.0        0.0        0.0       0.00       39.3       2.83       0.00       55.6
8:46               34        9.7         79       10.2      187.2        8.9       12.4        6.7     1018.8       11.6        9.2        0.0        0.0        0.0       0.00       39.5       2.91       0.00       55.6
8:48               34        8.0         79       10.2      187.2       10.2       12.5        6.7     1018.8       11.6        9.2        0.0        0.0        0.0       0.00       39.7       2.91       0.00       55.6
8:50               25        6.4         79       10.2      187.2       10.2       12.5        6.7     1018.9       11.6        9.2        0.0        0.0        0.0       0.00       39.9       2.91       0.00       55.6
8:52               31        9.7         79       10.2      187.2       10.2       12.5        6.7     1018.9       11.6        9.2        0.0        0.0        0.0       0.00       40.2       2.91       0.00       55.6
8:54               28       12.9         79       10.3      187.2        8.2       12.6        6.8     1019.0       11.6        9.2        0.0        0.0        0.0       0.00       40.4       2.91       0.00       55.6
8:56               37        9.7         79       10.3      187.2       10.3       12.6        6.8     1018.9       11.6        9.2        0.0        0.0        0.0       0.00       40.6       2.91       0.00       55.6
8:58               37       11.3         79       10.3      187.2        7.4       12.6        6.9     1019.0       11.6        9.2        0.0        0.0        0.0       0.00       40.9       2.91       0.00       55.6
9:00               38        9.7         79       10.3      187.2       10.3       12.6        6.9     1018.9       11.6        9.2        0.0        0.0        0.0       0.00       41.1       2.91       0.00       55.6
9:02               41        8.0         79       10.4      187.2       10.4       12.7        6.9     1018.9       11.6        9.2        0.0        0.0        0.0       0.00       41.3       2.99       0.00       55.6
9:04               40        6.4         79       10.4      187.2       10.4       12.7        6.9     1018.9       11.6        9.2        0.0        0.0        0.0       0.00       41.5       2.99       0.00       55.6
9:06               40       11.3         79       10.4      187.2       10.4       12.7        7.0     1019.0       11.6        9.2        0.0        0.0        0.0       0.00       41.6       2.99       0.00       55.6
9:08               44        6.4         79       10.5      187.2       10.5       12.8        7.0     1019.0       11.6        9.2        0.0        0.0        0.0       0.00       41.8       2.99       0.00       55.6
9:10               40        4.8         79       10.5      187.2       10.5       12.8        7.0     1019.0       11.6        9.2        0.0        0.0        0.0       0.00       42.0       2.99       0.00       55.6
9:12               35        6.4         78       10.6      187.2       10.6       12.8        6.9     1019.1       11.6        9.2        0.0        0.0        0.0       0.00       42.2       2.99       0.00       55.6
9:14               35       11.3         78       10.6      187.2        8.5       12.8        6.9     1019.1       11.6        9.2        0.0        0.0        0.0       0.00       42.4       2.99       0.00       55.6
9:16               35        8.0         78       10.6      187.2       10.6       12.8        6.9     1019.0       11.6        9.2        0.0        0.0        0.0       0.00       42.6       3.07       0.00       55.6
9:18               36        8.0         78       10.6      187.2       10.6       12.8        6.9     1019.1       11.6        9.2        0.0        0.0        0.0       0.00       42.8       3.07       0.00       55.6
9:20               37        6.4         78       10.7      187.2       10.7       12.9        7.0     1019.1       11.6        9.2        0.0        0.0        0.0       0.00       43.0       3.07       0.00       55.6
9:22               28       14.5         78       10.7      187.2        8.6       12.9        7.0     1019.1       11.6        9.2        0.0        0.0        0.0       0.00       43.3       3.07       0.00       55.6
9:24               19       11.3         78       10.7      187.2       10.7       12.9        7.0     1019.1       11.6        9.2        0.0        0.0        0.0       0.00       43.6       3.07       0.00       55.6
9:26               28        6.4         78       10.8      187.2       10.8       13.0        7.1     1019.1       11.6        9.2        0.0        0.0        0.0       0.00       43.8       3.07       0.00       55.6
9:28               11       14.5         78       10.8      187.2       10.8       13.0        7.2     1019.1       11.6        9.2        0.0        0.0        0.0       0.00       44.1       3.07       0.00       55.6
9:30               30        8.0         77       10.9      187.2       10.9       13.0        7.0     1019.1       11.6        9.2        0.0        0.0        0.0       0.00       44.3       3.07       0.00       55.6
9:32               31        8.0         77       10.9      187.2       10.9       13.0        7.0     1019.2       11.6        9.2        0.0        0.0        0.0       0.00       44.5       3.14       0.00       55.6
9:34               41        4.8         78       11.0      187.2       11.0       13.2        7.3     1019.2       11.6        9.2        0.0        0.0        0.0       0.00       44.7       3.14       0.00       55.6
9:36               41        8.0         77       11.1      187.2        9.9       13.2        7.2     1019.2       11.6        9.2        0.0        0.0        0.0       0.00       44.9       3.14       0.00       55.6
9:38               46        6.4         77       11.1      187.2       11.1       13.2        7.2     1019.3       11.6        9.2        0.0        0.0        0.0       0.00       45.1       3.14       0.00       55.6
9:40               27       12.9         77       11.2      187.2        7.6       13.4        7.3     1019.4       11.6        9.2        0.0        0.0        0.0       0.00       45.3       3.14       0.00       55.6
9:42               24       12.9         77       11.3      187.2        7.7       13.4        7.4     1019.5       11.6        9.2        0.0        0.0        0.0       0.00       45.6       3.14       0.00       55.6
9:44               28        6.4         76       11.3      187.2       11.3       13.3        7.2     1019.5       11.6        9.2        0.0        0.0        0.0       0.00       45.8       3.14       0.00       55.6
9:46               26        6.4         76       11.3      187.2       11.3       13.4        7.3     1019.5       11.6        9.2        0.0        0.0        0.0       0.00       46.0       3.21       0.00       55.6
9:48               32       19.3         76       11.4      187.2        9.4       13.4        7.3     1019.5       11.6        9.2        0.0        0.0        0.0       0.00       46.3       3.21       0.00       55.6
9:50               34        8.0         76       11.4      187.2       10.3       13.5        7.4     1019.4       11.6        9.2        0.0        0.0        0.0       0.00       46.5       3.21       0.00       55.6
9:52               32       12.9         76       11.4      187.2        7.9       13.5        7.4     1019.4       11.6        9.2        0.0        0.0        0.0       0.00       46.7       3.21       0.00       55.6
9:54               33        8.0         76       11.5      187.2       11.5       13.6        7.4     1019.4       11.6        9.2        0.0        0.0        0.0       0.00       47.1       3.21       0.00       55.6
9:56               33        6.4         76       11.6      187.2       11.6       13.6        7.5     1019.5       11.6        9.2        0.0        0.0        0.0       0.00       47.3       3.21       0.00       55.6
9:58               30       14.5         76       11.6      187.2       11.6       13.7        7.5     1019.3       11.6        9.2        0.0        0.0        0.0       0.00       47.5       3.21       0.00       55.6
10:00              27        9.7         75       11.7      187.2       10.5       13.7        7.4     1019.4       11.7        9.2        0.0        0.0        0.0       0.00       47.7       3.21       0.00       55.6
10:02              26        9.7         75       11.7      187.2        9.8       13.7        7.4     1019.4       11.7        9.2        0.0        0.0        0.0       0.00       47.9       3.28       0.00       55.6
10:04              26       12.9         75       11.8      187.2       10.6       13.8        7.5     1019.3       11.8        9.2        0.0        0.0        0.0       0.00       48.2       3.28       0.00       55.6
10:06              27       12.9         75       11.8      187.2       10.6       13.8        7.5     1019.3       11.8        9.2        0.0        0.0        0.0       0.00       48.4       3.28       0.00       55.6
10:08              24       16.1         75       11.8      187.2       11.8       13.8        7.5     1019.3       11.8        9.2        0.0        0.0        0.0       0.00       48.7       3.28       0.00       55.6
10:10              39        9.7         75       11.9      187.2       10.0       13.9        7.6     1019.3       11.9        9.2        0.0        0.0        0.0       0.00       49.0       3.28       0.00       55.6
10:12              39       11.3         75       11.9      187.2       11.9       13.9        7.7     1019.2       11.9        9.2        0.0        0.0        0.0       0.00       49.3       3.28       0.00       55.6
10:14              40       14.5         75       12.0      187.2       10.1       14.0        7.7     1019.3       12.0        9.2        0.0        0.0        0.0       0.00       49.5       3.28       0.00       55.6
10:16              39       14.5         75       12.1      187.2        7.8       14.0        7.8     1019.2       12.1        9.2        0.0        0.0        0.0       0.00       49.8       3.34       0.00       55.6
10:18              40        6.4         75       12.1      187.2       12.1       14.1        7.8     1019.2       12.1        9.2        0.0        0.0        0.0       0.00       50.0       3.34       0.00       55.6
10:20              40        4.8         75       12.2      187.2       12.2       14.2        7.9     1019.2       12.2        9.2        0.0        0.0        0.0       0.00       50.1       3.34       0.00       55.6
10:22              46        6.4         75       12.2      187.2       12.2       14.2        7.9     1019.2       12.3        9.2        0.0        0.0        0.0       0.00       50.4       3.34       0.00       55.6
10:24              46        8.0         75       12.3      187.2       12.3       14.3        8.0     1019.2       12.3        9.2        0.0        0.0        0.0       0.00       50.6       3.34       0.00       55.6
10:26              46       14.5         75       12.4      187.2        8.3       14.4        8.1     1019.2       12.4        9.2        0.0        0.0        0.0       0.00       50.9       3.34       0.00       55.6
10:28              46       11.3         74       12.6      187.2       12.6       14.5        8.1     1019.2       12.6        9.2        0.0        0.0        0.0       0.00       51.2       3.34       0.00       55.6
10:30              40       14.5         74       12.7      187.2       12.7       14.6        8.2     1019.2       12.7        9.2        0.0        0.0        0.0       0.00       51.4       3.34       0.00       55.6
10:32              42        6.4         73       12.8      187.2       12.8       14.6        8.1     1019.2       12.8        9.2        0.0        0.0        0.0       0.00       51.6       3.39       0.00       55.6
10:34              22       12.9         73       12.9      187.2        9.6       14.7        8.2     1019.2       12.9        9.2        0.0        0.0        0.0       0.00       51.9       3.39       0.00       55.6
10:36              50       11.3         73       12.9      187.2       11.8       14.8        8.2     1019.1       12.9        9.2        0.0        0.0        0.0       0.00       52.2       3.39       0.00       55.6
10:38              49       14.5         72       13.1      187.2       12.0       14.8        8.1     1019.1       13.1        9.2        0.0        0.0        0.0       0.00       52.5       3.39       0.00       55.6
10:40              39        8.0         72       13.2      187.2       13.2       14.9        8.2     1019.1       13.2        9.2        0.0        0.0        0.0       0.00       52.8       3.39       0.00       55.6
10:42              34        8.0         72       13.3      187.2       12.2       15.1        8.3     1019.1       13.3        9.2        0.0        0.0        0.0       0.00       53.0       3.39       0.00       55.6
10:44              44        9.7         72       13.3      187.2       13.3       15.1        8.4     1019.0       13.3        9.2        0.0        0.0        0.0       0.00       53.2       3.39       0.00       55.6
10:46              46       11.3         71       13.4      187.2       10.9       15.2        8.3     1019.1       13.4        9.2        0.0        0.0        0.0       0.00       53.5       3.44       0.00       55.6
10:48              50        9.7         71       13.6      187.2       13.6       15.3        8.4     1019.0       13.6        9.2        0.0        0.0        0.0       0.00       53.8       3.44       0.00       55.6
10:50              65       14.5         71       13.6      187.2       10.4       15.3        8.5     1018.9       13.6        9.2        0.0        0.0        0.0       0.00       54.2       3.44       0.00       55.6
10:52              41        9.7         70       13.7      187.2       13.7       15.4        8.4     1019.0       13.7        9.2        0.0        0.0        0.0       0.00       54.4       3.44       0.00       55.6
10:54              46        6.4         70       13.8      187.2       13.8       15.5        8.5     1018.9       13.8        9.2        0.0        0.0        0.0       0.00       54.7       3.44       0.00       55.6
10:56              51       11.3         69       13.9      187.2       11.5       15.5        8.4     1019.0       13.9        9.2        0.0        0.0        0.0       0.00       54.9       3.44       0.00       55.6
10:58              38       16.1         69       14.0      187.2       12.3       15.6        8.4     1018.9       14.0        9.2        0.0        0.0        0.0       0.00       55.2       3.44       0.00       55.6
11:00              31       16.1         68       14.1      187.2       12.4       15.6        8.3     1018.9       14.1        9.2        0.0        0.0        0.0       0.00       55.5       3.44       0.00       55.6
11:02              25       14.5         68       14.2      187.2       14.2       15.7        8.4     1019.0       14.2        9.2        0.0        0.0        0.0       0.00       55.8       3.48       0.00       55.6
11:04              33        9.7         68       14.3      187.2       12.6       15.8        8.5     1018.9       14.3        9.2        0.0        0.0        0.0       0.00       56.1       3.48       0.00       55.6
11:06              41        8.0         67       14.3      187.2       13.3       15.8        8.3     1018.7       14.3        9.2        0.0        0.0        0.0       0.00       56.4       3.48       0.00       55.6
11:08              30        9.7         67       14.5      187.2       14.5       15.9        8.5     1018.8       14.5        9.2        0.0        0.0        0.0       0.00       56.6       3.48       0.00       55.6
11:10              74       14.5         67       14.6      187.2       10.8       16.0        8.5     1018.9       14.6        9.2        0.0        0.0        0.0       0.00       56.9       3.48       0.00       55.6
11:12              70       14.5         66       14.7      187.2       11.0       16.1        8.4     1018.8       14.7        9.2        0.0        0.0        0.0       0.00       57.3       3.48       0.00       55.6
11:14              19       16.1         66       14.8      187.2       10.5       16.2        8.5     1018.8       14.8        9.2        0.0        0.0        0.0       0.00       57.6       3.48       0.00       55.6
11:16              35       11.3         65       14.9      187.2       14.0       16.3        8.4     1018.8       14.9        9.2        0.0        0.0        0.0       0.00       57.9       3.52       0.00       55.6
11:18              53        8.0         64       15.1      187.2       15.1       16.3        8.3     1018.8       15.1        9.2        0.0        0.0        0.0       0.00       58.3       3.52       0.00       55.6
11:20              44       19.3         64       15.1      187.2       13.5       16.4        8.4     1018.7       15.1        9.2        0.0        0.0        0.0       0.00       58.6       3.52       0.00       55.6
11:22              63        8.0         63       15.2      187.2       14.2       16.4        8.2     1018.7       15.2        9.2        0.0        0.0        0.0       0.00       59.0       3.52       0.00       55.6
11:24              38       16.1         63       15.3      187.2       11.1       16.5        8.3     1018.6       15.3        9.2        0.0        0.0        0.0       0.00       59.2       3.52       0.00       55.6
11:26              32       16.1         63       15.3      187.2       15.3       16.5        8.3     1018.7       15.3        9.2        0.0        0.0        0.0       0.00       59.5       3.52       0.00       55.6
11:28              22       16.1         62       15.4      187.2       15.4       16.5        8.2     1018.6       15.4        9.2        0.0        0.0        0.0       0.00       59.9       3.52       0.00       55.6
11:30              29       20.9         62       15.4      187.2       10.2       16.6        8.2     1018.6       15.4        9.2        0.0        0.0        0.0       0.00       60.2       3.52       0.00       55.6
11:32              38       11.3         62       15.4      187.2       14.5       16.6        8.2     1018.6       15.4        9.2        0.0        0.0        0.0       0.00       60.6       3.54       0.00       55.6
11:34              43       11.3         62       15.4      187.2       13.8       16.6        8.2     1018.6       15.4        9.2        0.0        0.0        0.0       0.00       60.9       3.54       0.00       55.6
11:36              49       14.5         62       15.5      187.2       15.5       16.6        8.3     1018.7       15.5        9.2        0.0        0.0        0.0       0.00       61.3       3.54       0.00       55.6
11:38              64       16.1         62       15.6      187.2       11.4       16.7        8.3     1018.7       15.6        9.2        0.0        0.0        0.0       0.00       61.6       3.54       0.00       55.6
11:40              55       16.1         61       15.7      187.2       14.7       16.7        8.2     1018.6       15.7        9.2        0.0        0.0        0.0       0.00       62.0       3.54       0.00       55.6
11:42              43       16.1         61       15.7      187.2       14.1       16.8        8.2     1018.5       15.7        9.2        0.0        0.0        0.0       0.00       62.3       3.54       0.00       55.6
11:44              49       19.3         61       15.8      187.2       11.7       16.8        8.3     1018.5       15.8        9.2        0.0        0.0        0.0       0.00       62.5       3.54       0.00       55.6
11:46              56       14.5         61       15.8      187.2       13.6       16.9        8.3     1018.5       15.8        9.2        0.0        0.0        0.0       0.00       62.9       3.56       0.00       55.6
11:48              36       12.9         61       15.8      187.2       15.8       16.9        8.3     1018.5       15.8        9.2        0.0        0.0        0.0       0.00       63.2       3.56       0.00       55.6
11:50              51       12.9         61       15.9      187.2       15.9       17.0        8.4     1018.5       15.9        9.2        0.0        0.0        0.0       0.00       63.4       3.56       0.00       55.6
11:52              29        6.4         61       15.9      187.2       15.9       17.0        8.4     1018.5       15.9        9.2        0.0        0.0        0.0       0.00       63.7       3.56       0.00       55.6
11:54              42       14.5         61       16.0      187.2       12.5       17.1        8.5     1018.5       16.0        9.2        0.0        0.0        0.0       0.00       63.9       3.56       0.00       55.6
11:56              49        9.7         60       16.0      187.2       16.0       17.0        8.2     1018.5       16.0        9.2        0.0        0.0        0.0       0.00       64.2       3.56       0.00       55.6
11:58              67        8.0         60       16.1      187.2       16.1       17.1        8.3     1018.5       16.1        9.2        0.0        0.0        0.0       0.00       64.5       3.56       0.00       55.6
12:00              54       12.9         60       16.1      187.2       16.1       17.1        8.4     1018.4       16.1        9.2        0.0        0.0        0.0       0.00       64.8       3.56       0.00       55.6
12:02              42       17.7         60       16.2      187.2       14.0       17.2        8.4     1018.4       16.2        9.2        0.0        0.0        0.0       0.00       65.1       3.58       0.00       55.6
12:04              26       16.1         60       16.2      187.2       12.7       17.2        8.4     1018.4       16.2        9.2        0.0        0.0        0.0       0.00       65.5       3.58       0.00       55.6
12:06              42       14.5         60       16.2      187.2       14.0       17.2        8.4     1018.4       16.2        9.2        0.0        0.0        0.0       0.00       65.8       3.58       0.00       55.6
12:08              32       14.5         60       16.2      187.2       15.2       17.2        8.4     1018.4       16.2        9.2        0.0        0.0        0.0       0.00       66.0       3.58       0.00       55.6
12:10              19       16.1         59       16.2      187.2       16.2       17.1        8.2     1018.4       16.2        9.2        0.0        0.0        0.0       0.00       66.3       3.58       0.00       55.6
12:12              64        9.7         60       16.2      187.2       15.2       17.2        8.4     1018.4       16.2        9.2        0.0        0.0        0.0       0.00       66.6       3.58       0.00       55.6
12:14              38       16.1         60       16.2      187.2       16.2       17.2        8.4     1018.4       16.2        9.2        0.0        0.0        0.0       0.00       66.9       3.58       0.00       55.6
12:16              52       14.5         60       16.2      187.2       16.2       17.2        8.5     1018.4       16.2        9.2        0.0        0.0        0.0       0.00       67.3       3.60       0.00       55.6
12:18              55       14.5         60       16.3      187.2       14.7       17.3        8.5     1018.4       16.3        9.2        0.0        0.0        0.0       0.00       67.5       3.60       0.00       55.6
12:20              52        9.7         60       16.3      187.2       14.8       17.3        8.6     1018.3       16.3        9.2        0.0        0.0        0.0       0.00       67.8       3.60       0.00       55.6
12:22              78       17.7         60       16.4      187.2       15.5       17.4        8.6     1018.4       16.4        9.2        0.0        0.0        0.0       0.00       68.1       3.60       0.00       55.6
12:24              56       11.3         59       16.5      187.2       14.4       17.4        8.5     1018.4       16.5        9.2        0.0        0.0        0.0       0.00       68.4       3.60       0.00       55.6
12:26              65        9.7         59       16.6      187.2       15.0       17.5        8.5     1018.4       16.6        9.2        0.0        0.0        0.0       0.00       68.7       3.60       0.00       55.6
12:28              80       19.3         59       16.6      187.2       12.0       17.6        8.6     1018.3       16.6        9.2        0.0        0.0        0.0       0.00       69.1       3.60       0.00       55.6
12:30              88       12.9         59       16.7      187.2       16.7       17.6        8.6     1018.3       16.7        9.2        0.0        0.0        0.0       0.00       69.4       3.60       0.00       55.6
12:32              72       12.9         59       16.7      187.2       16.7       17.7        8.7     1018.3       16.7        9.2        0.0        0.0        0.0       0.00       69.6       3.62       0.00       55.6
12:34              36        9.7         59       16.8      187.2       16.8       17.7        8.7     1018.3       16.8        9.2        0.0        0.0        0.0       0.00       69.9       3.62       0.00       55.6
12:36              53        8.0         59       16.8      187.2       15.9       17.8        8.8     1018.3       16.8        9.2        0.0        0.0        0.0       0.00       70.2       3.62       0.00       55.6
12:38              16       16.1         59       16.8      187.2       14.1       17.8        8.8     1018.2       16.8        9.2        0.0        0.0        0.0       0.00       70.5       3.62       0.00       55.6
12:40              13       12.9         58       16.8      187.2       14.1       17.7        8.5     1018.2       16.8        9.2        0.0        0.0        0.0       0.00       70.8       3.62       0.00       55.6
12:42              29       14.5         58       16.8      187.2       14.1       17.7        8.5     1018.2       16.8        9.2        0.0        0.0        0.0       0.00       71.1       3.62       0.00       55.6
12:44              34       17.7         59       16.8      187.2       15.3       17.7        8.7     1018.2       16.8        9.2        0.0        0.0        0.0       0.00       71.5       3.62       0.00       55.6
12:46              22        8.0         58       16.8      187.2       15.9       17.7        8.5     1018.2       16.8        9.2        0.0        0.0        0.0       0.00       71.8       3.63       0.00       55.6
12:48              29       20.9         58       16.8      187.2       11.9       17.7        8.5     1018.1       16.8        9.2        0.0        0.0        0.0       0.00       72.2       3.63       0.00       55.6
12:50              30        4.8         58       16.8      187.2       16.8       17.7        8.5     1018.1       16.8        9.2        0.0        0.0        0.0       0.00       72.4       3.63       0.00       55.6
12:52              55       17.7         58       16.8      187.2       14.7       17.7        8.5     1018.1       16.8        9.2        0.0        0.0        0.0       0.00       72.7       3.63       0.00       55.6
12:54              46        9.7         58       16.8      187.2       16.8       17.7        8.5     1018.1       16.8        9.2        0.0        0.0        0.0       0.00       73.1       3.63       0.00       55.6
12:56              44       16.1         58       16.9      187.2       16.9       17.8        8.6     1018.1       16.9        9.2        0.0        0.0        0.0       0.00       73.4       3.63       0.00       55.6
12:58              45       14.5         57       16.9      187.2       15.4       17.7        8.3     1018.1       16.9        9.2        0.0        0.0        0.0       0.00       73.8       3.63       0.00       55.6
13:00              49        9.7         57       16.9      187.2       16.0       17.7        8.3     1018.0       16.9        9.2        0.0        0.0        0.0       0.00       74.1       3.63       0.00       55.6
13:02              57       14.5         57       16.9      187.2       16.9       17.8        8.4     1018.0       16.9        9.2        0.0        0.0        0.0       0.00       74.4       3.64       0.00       55.6
13:04              43       11.3         57       17.0      187.2       16.1       17.8        8.4     1018.0       17.0        9.2        0.0        0.0        0.0       0.00       74.8       3.64       0.00       55.6
13:06              62       17.7         57       17.0      187.2       16.1       17.8        8.4     1018.0       17.1        9.2        0.0        0.0        0.0       0.00       75.1       3.64       0.00       55.6
13:08              50       14.5         57       17.1      187.2       15.1       17.9        8.5     1018.0       17.1        9.2        0.0        0.0        0.0       0.00       75.4       3.64       0.00       55.6
13:10              52        4.8         57       17.1      187.2       17.1       17.9        8.5     1018.0       17.1        9.2        0.0        0.0        0.0       0.00       75.6       3.64       0.00       55.6
13:12              45        9.7         57       17.2      187.2       16.4       18.1        8.6     1017.9       17.2        9.2        0.0        0.0        0.0       0.00       75.8       3.64       0.00       55.6
13:14              58       16.1         57       17.3      187.2       17.3       18.1        8.7     1017.9       17.3        9.2        0.0        0.0        0.0       0.00       76.1       3.64       0.00       55.6
13:16              27        6.4         56       17.3      187.2       17.3       18.1        8.5     1017.9       17.3        9.2        0.0        0.0        0.0       0.00       76.4       3.65       0.00       55.6
13:18              29        9.7         55       17.3      187.2       15.9       18.0        8.2     1017.8       17.3        9.2        0.0        0.0        0.0       0.00       76.7       3.65       0.00       55.6
13:20              43        8.0         56       17.3      187.2       17.3       18.1        8.5     1017.8       17.4        9.2        0.0        0.0        0.0       0.00       76.9       3.65       0.00       55.6
13:22              47        9.7         56       17.4      187.2       16.0       18.2        8.5     1017.7       17.4        9.2        0.0        0.0        0.0       0.00       77.1       3.65       0.00       55.6
13:24              58        8.0         56       17.4      187.2       17.4       18.2        8.6     1017.8       17.5        9.2        0.0        0.0        0.0       0.00       77.4       3.65       0.00       55.6
13:26              58        8.0         56       17.6      187.2       17.6       18.3        8.7     1017.8       17.6        9.2        0.0        0.0        0.0       0.00       77.6       3.65       0.00       55.6
13:28              68       14.5         55       17.7      187.2       16.3       18.4        8.5     1017.7       17.7        9.2        0.0        0.0        0.0       0.00       77.9       3.65       0.00       55.6
13:30              69       12.9         54       17.8      187.2       16.9       18.4        8.4     1017.7       17.8        9.2        0.0        0.0        0.0       0.00       78.3       3.65       0.00       55.6
13:32              65        9.7         54       17.8      187.2       17.8       18.5        8.4     1017.7       17.8        9.2        0.0        0.0        0.0       0.00       78.5       3.65       0.00       55.6
13:34              68       16.1         54       17.9      187.2       16.6       18.6        8.5     1017.6       17.9        9.2        0.0        0.0        0.0       0.00       78.8       3.65       0.00       55.6
13:36              49        9.7         54       18.0      187.2       16.6       18.7        8.6     1017.6       18.0        9.2        0.0        0.0        0.0       0.00       79.0       3.65       0.00       55.6
13:38              55       14.5         54       18.0      187.2       16.1       18.7        8.6     1017.6       18.0        9.2        0.0        0.0        0.0       0.00       79.3       3.65       0.00       55.6
13:40              58        4.8         54       18.1      187.2       18.1       18.7        8.6     1017.6       18.1        9.2        0.0        0.0        0.0       0.00       79.6       3.65       0.00       55.6
13:42              62       17.7         54       18.1      187.2       15.6       18.8        8.7     1017.6       18.1        9.2        0.0        0.0        0.0       0.00       79.8       3.65       0.00       55.6
13:44              59        8.0         53       18.1      187.2       17.3       18.7        8.4     1017.6       18.1        9.2        0.0        0.0        0.0       0.00       80.1       3.65       0.00       55.6
13:46              55       17.7         53       18.1      187.2       16.2       18.7        8.4     1017.5       18.1        9.2        0.0        0.0        0.0       0.00       80.4       3.65       0.00       55.6
13:48              38       14.5         53       18.1      187.2       15.1       18.7        8.4     1017.4       18.1        9.2        0.0        0.0        0.0       0.00       80.8       3.65       0.00       55.6
13:50              29       17.7         54       18.0      187.2       16.6       18.7        8.6     1017.4       18.1        9.2        0.0        0.0        0.0       0.00       81.1       3.65       0.00       55.6
13:52              30        8.0         54       17.9      187.2       17.9       18.6        8.5     1017.5       18.1        9.2        0.0        0.0        0.0       0.00       81.4       3.65       0.00       55.6
13:54              36       11.3         54       17.9      187.2       16.6       18.6        8.5     1017.4       18.1        9.2        0.0        0.0        0.0       0.00       81.7       3.65       0.00       55.6
13:56              36        4.8         54       17.9      187.2       17.9       18.6        8.5     1017.4       18.1        9.2        0.0        0.0        0.0       0.00       81.9       3.65       0.00       55.6
13:58              44        4.8         54       18.0      187.2       18.0       18.7        8.6     1017.4       18.1        9.2        0.0        0.0        0.0       0.00       82.1       3.65       0.00       55.6
14:00              43        6.4         55       18.1      187.2       18.1       18.8        8.9     1017.4       18.1        9.2        0.0        0.0        0.0       0.00       82.3       3.65       0.00       55.6
14:02              46       11.3         54       18.1      187.2       18.1       18.8        8.7     1017.4       18.1        9.2        0.0        0.0        0.0       0.00       82.5       3.65       0.00       55.6
14:04              49        6.4         54       18.2      187.2       18.2       18.8        8.7     1017.4       18.2        9.2        0.0        0.0        0.0       0.00       82.7       3.65       0.00       55.6
14:06              50        4.8         54       18.2      187.2       18.2       18.9        8.8     1017.4       18.2        9.2        0.0        0.0        0.0       0.00       82.9       3.65       0.00       55.6
14:08              45       11.3         54       18.2      187.2       18.2       18.9        8.8     1017.3       18.2        9.2        0.0        0.0        0.0       0.00       83.2       3.65       0.00       55.6
14:10              45        9.7         54       18.2      187.2       17.4       18.9        8.8     1017.3       18.2        9.2        0.0        0.0        0.0       0.00       83.3       3.65       0.00       55.6
14:12              44        8.0         54       18.3      187.2       18.3       18.9        8.8     1017.2       18.3        9.2        0.0        0.0        0.0       0.00       83.5       3.65       0.00       55.6
14:14              49       16.1         54       18.3      187.2       16.4       19.0        8.9     1017.3       18.3        9.2        0.0        0.0        0.0       0.00       83.8       3.65       0.00       55.6
14:16              49       11.3         54       18.4      187.2       17.0       19.0        8.9     1017.2       18.4        9.2        0.0        0.0        0.0       0.00       84.1       3.65       0.00       55.6
14:18              46       11.3         54       18.4      187.2       18.4       19.0        8.9     1017.3       18.4        9.2        0.0        0.0        0.0       0.00       84.4       3.65       0.00       55.6
14:20              40        9.7         53       18.4      187.2       17.0       19.0        8.6     1017.3       18.4        9.2        0.0        0.0        0.0       0.00       84.6       3.65       0.00       55.6
14:22              52       14.5         54       18.4      187.2       17.0       19.0        8.9     1017.2       18.4        9.2        0.0        0.0        0.0       0.00       84.9       3.65       0.00       55.6
14:24              53        8.0         54       18.4      187.2       17.6       19.1        9.0     1017.2       18.4        9.2        0.0        0.0        0.0       0.00       85.1       3.65       0.00       55.6
14:26              53        4.8         54       18.5      187.2       18.5       19.2        9.0     1017.2       18.5        9.2        0.0        0.0        0.0       0.00       85.2       3.65       0.00       55.6
14:28              53        8.0         54       18.6      187.2       18.6       19.3        9.1     1017.2       18.6        9.2        0.0        0.0        0.0       0.00       85.4       3.65       0.00       55.6
14:30              37        3.2         54       18.6      187.2       18.6       19.3        9.1     1017.2       18.6        9.2        0.0        0.0        0.0       0.00       85.6       3.65       0.00       55.6
14:32              38        9.7         54       18.7      187.2       17.4       19.3        9.2     1017.2       18.7        9.2        0.0        0.0        0.0       0.00       85.8       3.65       0.00       55.6
14:34              53       14.5         54       18.7      187.2       17.4       19.3        9.2     1017.2       18.7        9.2        0.0        0.0        0.0       0.00       86.1       3.65       0.00       55.6
14:36              62       16.1         53       18.7      187.2       15.8       19.3        9.0     1017.2       18.7        9.2        0.0        0.0        0.0       0.00       86.5       3.65       0.00       55.6
14:38              71        9.7         53       18.8      187.2       18.0       19.4        9.0     1017.2       18.8        9.2        0.0        0.0        0.0       0.00       86.9       3.65       0.00       55.6
14:40              71        6.4         53       18.8      187.2       18.8       19.4        9.1     1017.3       18.8        9.2        0.0        0.0        0.0       0.00       87.1       3.65       0.00       55.6
14:42              63       14.5         53       18.8      187.2       16.0       19.4        9.1     1017.2       18.8        9.2        0.0        0.0        0.0       0.00       87.4       3.65       0.00       55.6
14:44              59        9.7         53       18.8      187.2       18.8       19.4        9.1     1017.2       18.9        9.2        0.0        0.0        0.0       0.00       87.7       3.65       0.00       55.6
14:46              59        6.4         53       18.9      187.2       18.9       19.5        9.1     1017.2       18.9        9.2        0.0        0.0        0.0       0.00       87.8       3.65       0.00       55.6
14:48              50       11.3         53       18.8      187.2       18.8       19.4        9.1     1017.2       18.9        9.2        0.0        0.0        0.0       0.00       88.0       3.65       0.00       55.6
14:50              49        9.7         52       18.8      187.2       18.8       19.4        8.8     1017.1       18.9        9.2        0.0        0.0        0.0       0.00       88.2       3.65       0.00       55.6
14:52              49        3.2         52       18.8      187.2       18.8       19.4        8.8     1017.2       18.9        9.2        0.0        0.0        0.0       0.00       88.4       3.65       0.00       55.6
14:54              53       14.5         53       18.8      187.2       18.8       19.4        9.1     1017.2       18.9        9.2        0.0        0.0        0.0       0.00       88.6       3.65       0.00       55.6
14:56              53        4.8         53       18.9      187.2       18.9       19.5        9.1     1017.1       18.9        9.2        0.0        0.0        0.0       0.00       88.8       3.65       0.00       55.6
14:58              51       11.3         53       18.9      187.2       18.9       19.5        9.1     1017.3       18.9        9.2        0.0        0.0        0.0       0.00       89.0       3.65       0.00       55.6
15:00              42        4.8         53       18.9      187.2       18.9       19.6        9.2     1017.2       18.9        9.2        0.0        0.0        0.0       0.00       89.2       3.65       0.00       55.6
15:02              45       11.3         53       18.9      187.2       18.9       19.6        9.2     1017.1       18.9        9.2        0.0        0.0        0.0       0.00       89.4       3.65       0.00       55.6
15:04              51       11.3         52       18.9      187.2       17.7       19.5        8.9     1017.2       18.9        9.2        0.0        0.0        0.0       0.00       89.7       3.65       0.00       55.6
15:06              57        9.7         52       18.9      187.2       18.9       19.5        8.9     1017.2       18.9        9.2        0.0        0.0        0.0       0.00       89.9       3.65       0.00       55.6
15:08              57        4.8         52       19.0      187.2       19.0       19.6        8.9     1017.1       19.0        9.2        0.0        0.0        0.0       0.00       90.2       3.65       0.00       55.6
15:10              57        8.0         52       19.0      187.2       19.0       19.6        8.9     1017.1       19.0        9.2        0.0        0.0        0.0       0.00       90.4       3.65       0.00       55.6
15:12              58        4.8         52       19.0      187.2       19.0       19.6        8.9     1017.1       19.0        9.2        0.0        0.0        0.0       0.00       90.5       3.65       0.00       55.6
15:14              59        9.7         51       19.1      187.2       17.8       19.6        8.7     1017.1       19.1        9.2        0.0        0.0        0.0       0.00       90.8       3.65       0.00       55.6
15:16              57        9.7         51       19.1      187.2       18.3       19.6        8.7     1017.2       19.1        9.2        0.0        0.0        0.0       0.00       91.1       3.65       0.00       55.6
15:18              57        6.4         51       19.1      187.2       19.1       19.6        8.7     1017.2       19.1        9.2        0.0        0.0        0.0       0.00       91.2       3.65       0.00       55.6
15:20              56        6.4         51       19.1      187.2       19.1       19.6        8.7     1017.2       19.1        9.2        0.0        0.0        0.0       0.00       91.4       3.65       0.00       55.6
15:22              56        4.8         51       19.1      187.2       19.1       19.6        8.7     1017.2       19.1        9.2        0.0        0.0        0.0       0.00       91.5       3.65       0.00       55.6
15:24              56        4.8         51       19.1      187.2       19.1       19.6        8.7     1017.2       19.1        9.2        0.0        0.0        0.0       0.00       91.7       3.65       0.00       55.6
15:26              57        6.4         51       19.2      187.2       19.2       19.7        8.8     1017.2       19.2        9.2        0.0        0.0        0.0       0.00       91.8       3.65       0.00       55.6
15:28              57        4.8         50       19.3      187.2       19.3       19.7        8.6     1017.2       19.3        9.2        0.0        0.0        0.0       0.00       91.9       3.65       0.00       55.6
15:30              57        6.4         49       19.3      187.2       19.3       19.7        8.4     1017.2       19.3        9.2        0.0        0.0        0.0       0.00       92.0       3.65       0.00       55.6
15:32              57        6.4         49       19.3      187.2       19.3       19.7        8.4     1017.2       19.3        9.2        0.0        0.0        0.0       0.00       92.2       3.65       0.00       55.6
15:34              57        8.0         49       19.4      187.2       18.6       19.8        8.4     1017.2       19.4        9.2        0.0        0.0        0.0       0.00       92.3       3.65       0.00       55.6
15:36              57        4.8         48       19.5      187.2       19.5       19.8        8.2     1017.2       19.5        9.2        0.0        0.0        0.0       0.00       92.5       3.65       0.00       55.6
15:38              57        6.4         48       19.5      187.2       19.5       19.8        8.2     1017.3       19.5        9.2        0.0        0.0        0.0       0.00       92.7       3.65       0.00       55.6
15:40              57        8.0         48       19.5      187.2       19.5       19.8        8.2     1017.3       19.6        9.2        0.0        0.0        0.0       0.00       92.9       3.65       0.00       55.6
15:42              57       14.5         48       19.5      187.2       18.8       19.8        8.2     1017.4       19.6        9.2        0.0        0.0        0.0       0.00       93.1       3.65       0.00       55.6
15:44              57        9.7         48       19.5      187.2       19.5       19.8        8.2     1017.3       19.6        9.2        0.0        0.0        0.0       0.00       93.4       3.65       0.00       55.6
15:46              57        6.4         49       19.5      187.2       19.5       19.9        8.5     1017.3       19.6        9.2        0.0        0.0        0.0       0.00       93.6       3.65       0.00       55.6
15:48              60       17.7         49       19.4      187.2       19.4       19.8        8.5     1017.3       19.6        9.2        0.0        0.0        0.0       0.00       93.8       3.65       0.00       55.6
15:50              52       16.1         49       19.4      187.2       16.6       19.8        8.4     1017.3       19.6        9.2        0.0        0.0        0.0       0.00       94.1       3.65       0.00       55.6
15:52              49        8.0         49       19.3      187.2       18.6       19.7        8.4     1017.3       19.6        9.2        0.0        0.0        0.0       0.00       94.4       3.65       0.00       55.6
15:54              49       11.3         49       19.2      187.2       19.2       19.6        8.3     1017.3       19.6        9.2        0.0        0.0        0.0       0.00       94.7       3.65       0.00       55.6
15:56              46       11.3         50       19.2      187.2       18.4       19.6        8.5     1017.4       19.6        9.2        0.0        0.0        0.0       0.00       95.0       3.65       0.00       55.6
15:58              46       11.3         50       19.1      187.2       18.4       19.6        8.5     1017.3       19.6        9.2        0.0        0.0        0.0       0.00       95.1       3.65       0.00       55.6
16:00              50        9.7         51       19.1      187.2       17.8       19.6        8.7     1017.3       19.6        9.2        0.0        0.0        0.0       0.00       95.4       3.65       0.00       55.6
16:02              49       11.3         51       19.0      187.2       19.0       19.5        8.6     1017.4       19.6        9.2        0.0        0.0        0.0       0.00       95.6       3.65       0.00       55.6
16:04              48        8.0         51       19.0      187.2       19.0       19.5        8.6     1017.3       19.6        9.2        0.0        0.0        0.0       0.00       95.8       3.65       0.00       55.6
16:06              48        6.4         51       18.9      187.2       18.9       19.4        8.6     1017.4       19.6        9.2        0.0        0.0        0.0       0.00       96.0       3.65       0.00       55.6
16:08              48        6.4         51       18.9      187.2       18.9       19.4        8.6     1017.4       19.6        9.2        0.0        0.0        0.0       0.00       96.1       3.65       0.00       55.6
16:10              48        3.2         52       18.9      187.2       18.9       19.5        8.9     1017.4       19.6        9.2        0.0        0.0        0.0       0.00       96.3       3.65       0.00       55.6
16:12              48        6.4         52       18.9      187.2       18.9       19.5        8.9     1017.4       19.6        9.2        0.0        0.0        0.0       0.00       96.5       3.65       0.00       55.6
16:14              48        4.8         52       18.9      187.2       18.9       19.4        8.8     1017.4       19.6        9.2        0.0        0.0        0.0       0.00       96.7       3.65       0.00       55.6
16:16              48        4.8         52       18.9      187.2       18.9       19.4        8.8     1017.4       19.6        9.2        0.0        0.0        0.0       0.00       96.8       3.65       0.00       55.6
16:18              48        6.4         52       18.8      187.2       18.8       19.4        8.8     1017.4       19.6        9.2        0.0        0.0        0.0       0.00       96.9       3.65       0.00       55.6
16:20              48        3.2         52       18.8      187.2       18.8       19.4        8.8     1017.4       19.6        9.2        0.0        0.0        0.0       0.00       97.1       3.65       0.00       55.6
16:22              48        6.4         53       18.8      187.2       18.8       19.4        9.1     1017.3       19.6        9.2        0.0        0.0        0.0       0.00       97.2       3.65       0.00       55.6
16:24              48        8.0         52       18.8      187.2       18.8       19.4        8.8     1017.4       19.6        9.2        0.0        0.0        0.0       0.00       97.4       3.65       0.00       55.6
16:26              48        9.7         52       18.8      187.2       18.8       19.3        8.7     1017.3       19.6        9.2        0.0        0.0        0.0       0.00       97.6       3.65       0.00       55.6
16:28              48        8.0         52       18.8      187.2       18.8       19.3        8.7     1017.4       19.6        9.2        0.0        0.0        0.0       0.00       97.8       3.65       0.00       55.6
16:29              49        9.7         52       18.7      187.2       17.4       19.3        8.7     1017.4       19.6        9.2        0.0        0.0        0.0       0.00       98.0       3.65       0.00       55.6
16:32              49        6.4         52       18.7      187.2       18.7       19.2        8.6     1017.4       19.6        9.2        0.0        0.0        0.0       0.00       98.2       3.65       0.00       55.6
16:34              49        4.8         53       18.6      187.2       18.6       19.2        8.9     1017.5       19.6        9.2        0.0        0.0        0.0       0.00       98.3       3.65       0.00       55.6
16:36              49        8.0         53       18.6      187.2       18.6       19.2        8.8     1017.4       19.6        9.2        0.0        0.0        0.0       0.00       98.5       3.65       0.00       55.6
16:38              48        4.8         53       18.5      187.2       18.5       19.1        8.7     1017.4       19.6        9.2        0.0        0.0        0.0       0.00       98.6       3.65       0.00       55.6
16:40              49        3.2         53       18.4      187.2       18.4       19.1        8.7     1017.4       19.6        9.2        0.0        0.0        0.0       0.00       98.8       3.65       0.00       55.6
16:42              48        6.4         53       18.4      187.2       18.4       19.0        8.6     1017.4       19.6        9.2        0.0        0.0        0.0       0.00       98.9       3.65       0.00       55.6
16:44              48        4.8         53       18.3      187.2       18.3       18.9        8.6     1017.4       19.6        9.2        0.0        0.0        0.0       0.00       99.0       3.65       0.00       55.6
16:46              49        6.4         53       18.3      187.2       18.3       18.9        8.5     1017.5       19.6        9.2        0.0        0.0        0.0       0.00       99.1       3.65       0.00       55.6
16:48              49        4.8         53       18.3      187.2       18.3       18.9        8.5     1017.5       19.6        9.2        0.0        0.0        0.0       0.00       99.2       3.65       0.00       55.6
16:50              49        3.2         54       18.2      187.2       18.2       18.9        8.8     1017.5       19.6        9.2        0.0        0.0        0.0       0.00       99.3       3.65       0.00       55.6
16:52              49        3.2         54       18.2      187.2       18.2       18.9        8.8     1017.6       19.6        9.2        0.0        0.0        0.0       0.00       99.4       3.65       0.00       55.6
16:54              49        4.8         54       18.1      187.2       18.1       18.8        8.7     1017.6       19.6        9.2        0.0        0.0        0.0       0.00       99.4       3.65       0.00       55.6
16:56              48        4.8         54       18.1      187.2       18.1       18.8        8.7     1017.6       19.6        9.2        0.0        0.0        0.0       0.00       99.5       3.65       0.00       55.6
16:58              48        3.2         54       18.0      187.2       18.0       18.7        8.6     1017.5       19.6        9.2        0.0        0.0        0.0       0.00       99.6       3.65       0.00       55.6
17:00              48        6.4         54       17.9      187.2       17.9       18.5        8.5     1017.6       19.6        9.2        0.0        0.0        0.0       0.00       99.7       3.65       0.00       55.6
17:02              48        3.2         55       17.8      187.2       17.8       18.5        8.7     1017.5       19.6        9.2        0.0        0.0        0.0       0.00       99.7       3.65       0.00       55.6
17:04              49        4.8         55       17.8      187.2       17.8       18.5        8.6     1017.6       19.6        9.2        0.0        0.0        0.0       0.00       99.8       3.65       0.00       55.6
17:06              49        4.8         55       17.7      187.2       17.7       18.4        8.6     1017.6       19.6        9.2        0.0        0.0        0.0       0.00       99.9       3.65       0.00       55.6
17:08              49        3.2         55       17.7      187.2       17.7       18.4        8.5     1017.6       19.6        9.2        0.0        0.0        0.0       0.00      100.0       3.65       0.00       55.6
17:10              49        8.0         56       17.6      187.2       17.6       18.4        8.7     1017.6       19.6        9.2        0.0        0.0        0.0       0.00      100.1       3.65       0.00       55.6
17:12              49        6.4         56       17.5      187.2       17.5       18.3        8.6     1017.6       19.6        9.2        0.0        0.0        0.0       0.00      100.2       3.65       0.00       55.6
17:14              49        0.0         56       17.4      187.2       17.4       18.2        8.6     1017.6       19.6        9.2        0.0        0.0        0.0       0.00      100.3       3.65       0.00       55.6
17:16              48        3.2         56       17.3      187.2       17.3       18.1        8.5     1017.6       19.6        9.2        0.0        0.0        0.0       0.00      100.4       3.66       0.00       55.6
17:18              49        4.8         57       17.3      187.2       17.3       18.1        8.7     1017.6       19.6        9.2        0.0        0.0        0.0       0.00      100.5       3.66       0.00       55.6
17:20              49        4.8         57       17.2      187.2       17.2       18.1        8.6     1017.6       19.6        9.2        0.0        0.0        0.0       0.00      100.6       3.66       0.00       55.6
17:22              49        4.8         57       17.1      187.2       17.1       17.9        8.5     1017.6       19.6        9.2        0.0        0.0        0.0       0.00      100.7       3.66       0.00       55.6
17:24              48        1.6         57       17.1      187.2       17.1       17.9        8.5     1017.6       19.6        9.2        0.0        0.0        0.0       0.00      100.7       3.66       0.00       55.6
17:26              49        3.2         58       17.0      187.2       17.0       17.9        8.7     1017.6       19.6        9.2        0.0        0.0        0.0       0.00      100.8       3.66       0.00       55.6
17:28              49        0.0         58       16.9      187.2       16.9       17.8        8.6     1017.6       19.6        9.2        0.0        0.0        0.0       0.00      100.9       3.66       0.00       55.6
17:30              49        4.8         58       16.9      187.2       16.9       17.8        8.6     1017.7       19.6        9.2        0.0        0.0        0.0       0.00      100.9       3.66       0.00       55.6
17:32              49        1.6         59       16.8      187.2       16.8       17.7        8.7     1017.7       19.6        9.2        0.0        0.0        0.0       0.00      101.0       3.67       0.00       55.6
17:34              48        3.2         59       16.7      187.2       16.7       17.7        8.7     1017.7       19.6        9.2        0.0        0.0        0.0       0.00      101.1       3.67       0.00       55.6
17:36              49        1.6         59       16.7      187.2       16.7       17.6        8.6     1017.6       19.6        9.2        0.0        0.0        0.0       0.00      101.2       3.67       0.00       55.6
17:38              49        1.6         59       16.6      187.2       16.6       17.6        8.6     1017.9       19.6        9.2        0.0        0.0        0.0       0.00      101.2       3.67       0.00       55.6
17:40              49        1.6         59       16.6      187.2       16.6       17.5        8.5     1017.9       19.6        9.2        0.0        0.0        0.0       0.00      101.2       3.67       0.00       55.6
17:42              48        1.6         59       16.6      187.2       16.6       17.5        8.5     1017.9       19.6        9.2        0.0        0.0        0.0       0.00      101.2       3.67       0.00       55.6
17:44              49        0.0         60       16.5      187.2       16.5       17.5        8.7     1017.9       19.6        9.2        0.0        0.0        0.0       0.00      101.2       3.67       0.00       55.6
17:46              48        0.0         60       16.4      187.2       16.4       17.4        8.7     1018.0       19.6        9.2        0.0        0.0        0.0       0.00      101.2       3.69       0.00       55.6
17:48              49        0.0         60       16.4      187.2       16.4       17.4        8.6     1018.0       19.6        9.2        0.0        0.0        0.0       0.00      101.2       3.69       0.00       55.6
17:50              49        0.0         60       16.3      187.2       16.3       17.3        8.6     1018.0       19.6        9.2        0.0        0.0        0.0       0.00      101.2       3.69       0.00       55.6
17:52              49        0.0         61       16.3      187.2       16.3       17.3        8.8     1018.1       19.6        9.2        0.0        0.0        0.0       0.00      101.3       3.69       0.00       55.6
17:54              49        0.0         61       16.2      187.2       16.2       17.3        8.7     1018.1       19.6        9.2        0.0        0.0        0.0       0.00      101.3       3.69       0.00       55.6
17:56              48        1.6         61       16.1      187.2       16.1       17.2        8.6     1018.1       19.6        9.2        0.0        0.0        0.0       0.00      101.3       3.69       0.00       55.6
17:58              48        1.6         61       16.1      187.2       16.1       17.1        8.5     1018.1       19.6        9.2        0.0        0.0        0.0       0.00      101.3       3.69       0.00       55.6
18:00              49        3.2         62       16.0      187.2       16.0       17.1        8.7     1018.1       19.6        9.2        0.0        0.0        0.0       0.00      101.3       3.69       0.00       55.6
18:02              49        3.2         62       15.9      187.2       15.9       17.0        8.6     1018.1       19.6        9.2        0.0        0.0        0.0       0.00      101.4       3.71       0.00       55.6
18:04              49        1.6         62       15.8      187.2       15.8       17.0        8.6     1018.1       19.6        9.2        0.0        0.0        0.0       0.00      101.4       3.71       0.00       55.6
18:06              48        3.2         62       15.8      187.2       15.8       17.0        8.6     1018.1       19.6        9.2        0.0        0.0        0.0       0.00      101.5       3.71       0.00       55.6
18:08              49        3.2         62       15.7      187.2       15.7       16.8        8.5     1018.1       19.6        9.2        0.0        0.0        0.0       0.00      101.5       3.71       0.00       55.6
18:10              49        4.8         63       15.7      187.2       15.7       16.9        8.7     1018.1       19.6        9.2        0.0        0.0        0.0       0.00      101.6       3.71       0.00       55.6
18:12              49        4.8         63       15.6      187.2       15.6       16.8        8.6     1018.1       19.6        9.2        0.0        0.0        0.0       0.00      101.7       3.71       0.00       55.6
18:14              49        4.8         63       15.6      187.2       15.6       16.7        8.5     1018.2       19.6        9.2        0.0        0.0        0.0       0.00      101.8       3.71       0.00       55.6
18:16              49        3.2         63       15.5      187.2       15.5       16.7        8.5     1018.2       19.6        9.2        0.0        0.0        0.0       0.00      101.9       3.73       0.00       55.6
18:18              49        1.6         64       15.5      187.2       15.5       16.8        8.7     1018.2       19.6        9.2        0.0        0.0        0.0       0.00      101.9       3.73       0.00       55.6
18:20              49        3.2         64       15.4      187.2       15.4       16.7        8.7     1018.3       19.6        9.2        0.0        0.0        0.0       0.00      102.0       3.73       0.00       55.6
18:22              48        1.6         64       15.4      187.2       15.4       16.6        8.6     1018.3       19.6        9.2        0.0        0.0        0.0       0.00      102.0       3.73       0.00       55.6
18:24              49        4.8         64       15.3      187.2       15.3       16.6        8.6     1018.3       19.6        9.2        0.0        0.0        0.0       0.00      102.1       3.73       0.00       55.6
18:26              48        3.2         64       15.3      187.2       15.3       16.6        8.6     1018.4       19.6        9.2        0.0        0.0        0.0       0.00      102.2       3.73       0.00       55.6
18:28              49        3.2         65       15.3      187.2       15.3       16.6        8.7     1018.4       19.6        9.2        0.0        0.0        0.0       0.00      102.2       3.73       0.00       55.6
18:30              48        1.6         65       15.2      187.2       15.2       16.5        8.7     1018.4       19.6        9.2        0.0        0.0        0.0       0.00      102.3       3.73       0.00       55.6
18:32              49        3.2         65       15.2      187.2       15.2       16.5        8.7     1018.4       19.6        9.2        0.0        0.0        0.0       0.00      102.4       3.76       0.00       55.6
18:33              48        1.6         65       15.2      187.2       15.2       16.5        8.6     1018.5       19.6        9.2        0.0        0.0        0.0       0.00      102.4       3.76       0.00       55.6
18:36              49        3.2         65       15.1      187.2       15.1       16.4        8.6     1018.5       19.6        9.2        0.0        0.0        0.0       0.00      102.5       3.76       0.00       55.6
18:38              49        3.2         65       15.1      187.2       15.1       16.4        8.6     1018.5       19.6        9.2        0.0        0.0        0.0       0.00      102.6       3.76       0.00       55.6
18:40              48        3.2         66       15.1      187.2       15.1       16.4        8.8     1018.5       19.6        9.2        0.0        0.0        0.0       0.00      102.7       3.76       0.00       55.6
18:42              49        3.2         66       15.0      187.2       15.0       16.4        8.7     1018.6       19.6        9.2        0.0        0.0        0.0       0.00      102.8       3.76       0.00       55.6
18:44              48        4.8         66       15.0      187.2       15.0       16.4        8.7     1018.6       19.6        9.2        0.0        0.0        0.0       0.00      102.9       3.76       0.00       55.6
18:46              49        3.2         66       14.9      187.2       14.9       16.3        8.7     1018.6       19.6        9.2        0.0        0.0        0.0       0.00      102.9       3.79       0.00       55.6
18:48              48        4.8         66       14.9      187.2       14.9       16.3        8.7     1018.7       19.6        9.2        0.0        0.0        0.0       0.00      103.0       3.79       0.00       55.6
18:50              49        4.8         67       14.9      187.2       14.9       16.3        8.8     1018.6       19.6        9.2        0.0        0.0        0.0       0.00      103.1       3.79       0.00       55.6
18:52              49        4.8         67       14.9      187.2       14.9       16.3        8.8     1018.7       19.6        9.2        0.0        0.0        0.0       0.00      103.2       3.79       0.00       55.6
18:54              48        6.4         67       14.9      187.2       14.9       16.3        8.8     1018.7       19.6        9.2        0.0        0.0        0.0       0.00      103.4       3.79       0.00       55.6
18:56              49        4.8         67       14.9      187.2       14.9       16.3        8.8     1018.7       19.6        9.2        0.0        0.0        0.0       0.00      103.5       3.79       0.00       55.6
18:58              48        3.2         67       14.9      187.2       14.9       16.3        8.8     1018.7       19.6        9.2        0.0        0.0        0.0       0.00      103.6       3.79       0.00       55.6
19:00              49        3.2         67       14.9      187.2       14.9       16.3        8.8     1018.7       19.6        9.2        0.0        0.0        0.0       0.00      103.7       3.79       0.00       55.6
19:02              49        4.8         67       14.9      187.2       14.9       16.3        8.8     1018.7       19.6        9.2        0.0        0.0        0.0       0.00      103.7       3.82       0.00       55.6
19:04              48        3.2         67       14.9      187.2       14.9       16.3        8.8     1018.7       19.6        9.2        0.0        0.0        0.0       0.00      103.8       3.82       0.00       55.6
19:06              49        3.2         67       14.9      187.2       14.9       16.3        8.8     1018.8       19.6        9.2        0.0        0.0        0.0       0.00      103.9       3.82       0.00       55.6
19:08              49        4.8         67       14.8      187.2       14.8       16.3        8.8     1018.8       19.6        9.2        0.0        0.0        0.0       0.00      104.0       3.82       0.00       55.6
19:10              48        3.2         67       14.8      187.2       14.8       16.3        8.8     1018.8       19.6        9.2        0.0        0.0        0.0       0.00      104.0       3.82       0.00       55.6
19:12              49        4.8         67       14.8      187.2       14.8       16.2        8.7     1018.8       19.6        9.2        0.0        0.0        0.0       0.00      104.1       3.82       0.00       55.6
19:14              49        4.8         68       14.8      187.2       14.8       16.3        8.9     1018.8       19.6        9.2        0.0        0.0        0.0       0.00      104.2       3.82       0.00       55.6
19:16              49        3.2         68       14.8      187.2       14.8       16.3        8.9     1018.8       19.6        9.2        0.0        0.0        0.0       0.00      104.4       3.86       0.00       55.6
19:18              49        3.2         68       14.8      187.2       14.8       16.3        8.9     1018.8       19.6        9.2        0.0        0.0        0.0       0.00      104.5       3.86       0.00       55.6
19:20              49        4.8         68       14.8      187.2       14.8       16.3        8.9     1018.8       19.6        9.2        0.0        0.0        0.0       0.00      104.6       3.86       0.00       55.6
19:22              49        6.4         68       14.7      187.2       14.7       16.2        8.9     1018.8       19.6        9.2        0.0        0.0        0.0       0.00      104.7       3.86       0.00       55.6
19:24              48        3.2         68       14.7      187.2       14.7       16.2        8.9     1018.7       19.6        9.2        0.0        0.0        0.0       0.00      104.8       3.86       0.00       55.6
19:26              49        3.2         68       14.7      187.2       14.7       16.2        8.9     1018.8       19.6        9.2        0.0        0.0        0.0       0.00      104.9       3.86       0.00       55.6
19:28              49        4.8         68       14.7      187.2       14.7       16.2        8.9     1018.8       19.6        9.2        0.0        0.0        0.0       0.00      105.0       3.86       0.00       55.6
19:30              49        1.6         68       14.7      187.2       14.7       16.2        8.8     1018.8       19.6        9.2        0.0        0.0        0.0       0.00      105.1       3.86       0.00       55.6
19:32              48        3.2         68       14.7      187.2       14.7       16.2        8.8     1018.9       19.6        9.2        0.0        0.0        0.0       0.00      105.1       3.89       0.00       55.6
19:34              49        3.2         68       14.6      187.2       14.6       16.1        8.8     1018.8       19.6        9.2        0.0        0.0        0.0       0.00      105.2       3.89       0.00       55.6
19:36              49        6.4         68       14.6      187.2       14.6       16.1        8.8     1018.8       19.6        9.2        0.0        0.0        0.0       0.00      105.3       3.89       0.00       55.6
19:38              48        1.6         68       14.6      187.2       14.6       16.1        8.7     1018.8       19.6        9.2        0.0        0.0        0.0       0.00      105.3       3.89       0.00       55.6
19:40              49        4.8         68       14.6      187.2       14.6       16.1        8.7     1018.8       19.6        9.2        0.0        0.0        0.0       0.00      105.4       3.89       0.00       55.6
19:42              48        0.0         69       14.5      187.2       14.5       16.1        8.9     1018.8       19.6        9.2        0.0        0.0        0.0       0.00      105.5       3.89       0.00       55.6
19:44              48        6.4         69       14.5      187.2       14.5       16.1        8.9     1018.8       19.6        9.2        0.0        0.0        0.0       0.00      105.5       3.89       0.00       55.6
19:46              49        3.2         69       14.4      187.2       14.4       16.0        8.8     1018.8       19.6        9.2        0.0        0.0        0.0       0.00      105.6       3.93       0.00       55.6
19:48              49        3.2         69       14.4      187.2       14.4       16.0        8.8     1018.8       19.6        9.2        0.0        0.0        0.0       0.00      105.7       3.93       0.00       55.6
19:50              48        1.6         69       14.4      187.2       14.4       16.0        8.8     1018.8       19.6        9.2        0.0        0.0        0.0       0.00      105.7       3.93       0.00       55.6
19:52              48        3.2         69       14.3      187.2       14.3       15.9        8.7     1018.9       19.6        9.2        0.0        0.0        0.0       0.00      105.8       3.93       0.00       55.6
19:54              49        1.6         69       14.3      187.2       14.3       15.9        8.7     1018.9       19.6        9.2        0.0        0.0        0.0       0.00      105.8       3.93       0.00       55.6
19:56              49        3.2         69       14.3      187.2       14.3       15.9        8.7     1018.9       19.6        9.2        0.0        0.0        0.0       0.00      105.9       3.93       0.00       55.6
19:58              49        3.2         69       14.2      187.2       14.2       15.8        8.6     1018.9       19.6        9.2        0.0        0.0        0.0       0.00      106.0       3.93       0.00       55.6
20:00              49        3.2         70       14.2      187.2       14.2       15.9        8.8     1019.0       19.6        9.2        0.0        0.0        0.0       0.00      106.1       3.93       0.00       55.6
20:02              49        3.2         70       14.2      187.2       14.2       15.9        8.8     1019.0       19.6        9.2        0.0        0.0        0.0       0.00      106.1       3.97       0.00       55.6
20:04              49        9.7         70       14.2      187.2       14.2       15.8        8.8     1019.0       19.6        9.2        0.0        0.0        0.0       0.00      106.3       3.97       0.00       55.6
20:06              49        4.8         70       14.2      187.2       14.2       15.8        8.8     1019.0       19.6        9.2        0.0        0.0        0.0       0.00      106.4       3.97       0.00       55.6
20:08              45        3.2         70       14.2      187.2       14.2       15.8        8.8     1019.0       19.6        9.2        0.0        0.0        0.0       0.00      106.5       3.97       0.00       55.6
20:10              44        3.2         70       14.2      187.2       14.2       15.8        8.8     1019.0       19.6        9.2        0.0        0.0        0.0       0.00      106.6       3.97       0.00       55.6
20:12              43        3.2         70       14.2      187.2       14.2       15.8        8.8     1018.9       19.6        9.2        0.0        0.0        0.0       0.00      106.7       3.97       0.00       55.6
20:14              32        3.2         70       14.2      187.2       14.2       15.8        8.8     1019.0       19.6        9.2        0.0        0.0        0.0       0.00      106.8       3.97       0.00       55.6
20:16              31        4.8         70       14.2      187.2       14.2       15.9        8.8     1019.0       19.6        9.2        0.0        0.0        0.0       0.00      106.9       4.01       0.00       55.6
20:18              25        6.4         69       14.2      187.2       14.2       15.8        8.6     1019.0       19.6        9.2        0.0        0.0        0.0       0.00      107.0       4.01       0.00       55.6
20:20              24        4.8         69       14.2      187.2       14.2       15.8        8.6     1019.0       19.6        9.2        0.0        0.0        0.0       0.00      107.1       4.01       0.00       55.6
20:22              24        3.2         69       14.2      187.2       14.2       15.8        8.6     1019.0       19.6        9.2        0.0        0.0        0.0       0.00      107.2       4.01       0.00       55.6
20:24              24        4.8         69       14.2      187.2       14.2       15.8        8.6     1019.0       19.6        9.2        0.0        0.0        0.0       0.00      107.3       4.01       0.00       55.6
20:26              24        4.8         69       14.2      187.2       14.2       15.8        8.6     1019.0       19.6        9.2        0.0        0.0        0.0       0.00      107.4       4.01       0.00       55.6
20:28              23        3.2         69       14.2      187.2       14.2       15.7        8.6     1019.0       19.6        9.2        0.0        0.0        0.0       0.00      107.5       4.01       0.00       55.6
20:30              23        6.4         69       14.2      187.2       14.2       15.7        8.6     1019.0       19.6        9.2        0.0        0.0        0.0       0.00      107.6       4.01       0.00       55.6
20:32              22        4.8         69       14.2      187.2       14.2       15.7        8.6     1019.0       19.6        9.2        0.0        0.0        0.0       0.00      107.7       4.05       0.00       55.6
20:34              22        4.8         69       14.1      187.2       14.1       15.7        8.5     1019.0       19.6        9.2        0.0        0.0        0.0       0.00      107.9       4.05       0.00       55.6
20:36              19        4.8         69       14.1      187.2       14.1       15.6        8.5     1019.0       19.6        9.2        0.0        0.0        0.0       0.00      108.0       4.05       0.00       55.6
20:38              18        4.8         69       14.1      187.2       14.1       15.6        8.5     1019.0       19.6        9.2        0.0        0.0        0.0       0.00      108.1       4.05       0.00       55.6
20:40              17        4.8         70       14.0      187.2       14.0       15.6        8.6     1019.0       19.6        9.2        0.0        0.0        0.0       0.00      108.2       4.05       0.00       55.6
20:42              15        4.8         70       14.0      187.2       14.0       15.6        8.6     1019.1       19.6        9.2        0.0        0.0        0.0       0.00      108.3       4.05       0.00       55.6
20:44              13        4.8         70       13.9      187.2       13.9       15.6        8.6     1019.1       19.6        9.2        0.0        0.0        0.0       0.00      108.5       4.05       0.00       55.6
20:46              12        4.8         70       13.9      187.2       13.9       15.5        8.5     1019.1       19.6        9.2        0.0        0.0        0.0       0.00      108.6       4.09       0.00       55.6
20:48               9        6.4         70       13.9      187.2       13.9       15.5        8.5     1019.0       19.6        9.2        0.0        0.0        0.0       0.00      108.7       4.09       0.00       55.6
20:50               5        4.8         70       13.9      187.2       13.9       15.5        8.5     1019.1       19.6        9.2        0.0        0.0        0.0       0.00      108.8       4.09       0.00       55.6
20:52               5        6.4         70       13.8      187.2       13.8       15.5        8.5     1019.1       19.6        9.2        0.0        0.0        0.0       0.00      108.9       4.09       0.00       55.6
20:54               5        4.8         70       13.8      187.2       13.8       15.5        8.5     1019.3       19.6        9.2        0.0        0.0        0.0       0.00      109.0       4.09       0.00       55.6
20:56               5        4.8         70       13.8      187.2       13.8       15.4        8.4     1019.2       19.6        9.2        0.0        0.0        0.0       0.00      109.2       4.09       0.00       55.6
20:58               5        3.2         70       13.8      187.2       13.8       15.4        8.4     1019.3       19.6        9.2        0.0        0.0        0.0       0.00      109.3       4.09       0.00       55.6
21:00               5        3.2         70       13.8      187.2       13.8       15.4        8.4     1019.3       19.6        9.2        0.0        0.0        0.0       0.00      109.4       4.09       0.00       55.6
21:02               5        4.8         70       13.8      187.2       13.8       15.4        8.4     1019.3       19.6        9.2        0.0        0.0        0.0       0.00      109.5       4.13       0.00       55.6
21:04               5        6.4         71       13.8      187.2       13.8       15.5        8.6     1019.3       19.6        9.2        0.0        0.0        0.0       0.00      109.6       4.13       0.00       55.6
21:06               5        3.2         71       13.8      187.2       13.8       15.5        8.6     1019.3       19.6        9.2        0.0        0.0        0.0       0.00      109.7       4.13       0.00       55.6
21:08               5        3.2         71       13.7      187.2       13.7       15.4        8.6     1019.3       19.6        9.2        0.0        0.0        0.0       0.00      109.8       4.13       0.00       55.6
21:10               5        3.2         71       13.7      187.2       13.7       15.4        8.6     1019.5       19.6        9.2        0.0        0.0        0.0       0.00      109.9       4.13       0.00       55.6
21:12               5        4.8         71       13.7      187.2       13.7       15.4        8.6     1019.5       19.6        9.2        0.0        0.0        0.0       0.00      110.0       4.13       0.00       55.6
21:14             360        3.2         71       13.7      187.2       13.7       15.4        8.5     1019.4       19.6        9.2        0.0        0.0        0.0       0.00      110.2       4.13       0.00       55.6
21:16             360        4.8         71       13.6      187.2       13.6       15.3        8.5     1019.5       19.6        9.2        0.0        0.0        0.0       0.00      110.3       4.18       0.00       55.6
21:18             360        9.7         71       13.6      187.2       13.6       15.3        8.5     1019.5       19.6        9.2        0.0        0.0        0.0       0.00      110.4       4.18       0.00       55.6
21:20             355        6.4         71       13.6      187.2       13.6       15.3        8.4     1019.5       19.6        9.2        0.0        0.0        0.0       0.00      110.5       4.18       0.00       55.6
21:22             355        4.8         71       13.6      187.2       13.6       15.3        8.4     1019.5       19.6        9.2        0.0        0.0        0.0       0.00      110.7       4.18       0.00       55.6
21:24               5        3.2         71       13.6      187.2       13.6       15.3        8.4     1019.5       19.6        9.2        0.0        0.0        0.0       0.00      110.8       4.18       0.00       55.6
21:26               5        3.2         71       13.6      187.2       13.6       15.3        8.4     1019.5       19.6        9.2        0.0        0.0        0.0       0.00      110.9       4.18       0.00       55.6
21:28               5        4.8         71       13.6      187.2       13.6       15.3        8.4     1019.5       19.6        9.2        0.0        0.0        0.0       0.00      111.0       4.18       0.00       55.6
21:30               5        6.4         71       13.6      187.2       13.6       15.3        8.4     1019.4       19.6        9.2        0.0        0.0        0.0       0.00      111.1       4.18       0.00       55.6
21:32               5        3.2         71       13.5      187.2       13.5       15.2        8.4     1019.5       19.6        9.2        0.0        0.0        0.0       0.00      111.2       4.23       0.00       55.6
21:34               5        4.8         71       13.5      187.2       13.5       15.2        8.4     1019.5       19.6        9.2        0.0        0.0        0.0       0.00      111.4       4.23       0.00       55.6
21:36               5        4.8         71       13.5      187.2       13.5       15.2        8.4     1019.4       19.6        9.2        0.0        0.0        0.0       0.00      111.5       4.23       0.00       55.6
21:38               5        4.8         71       13.4      187.2       13.4       15.2        8.3     1019.5       19.6        9.2        0.0        0.0        0.0       0.00      111.6       4.23       0.00       55.6
21:40               5        4.8         71       13.4      187.2       13.4       15.1        8.2     1019.5       19.6        9.2        0.0        0.0        0.0       0.00      111.7       4.23       0.00       55.6
21:42               5        4.8         72       13.3      187.2       13.3       15.1        8.4     1019.6       19.6        9.2        0.0        0.0        0.0       0.00      111.9       4.23       0.00       55.6
21:44               5        6.4         72       13.3      187.2       13.3       15.1        8.3     1019.6       19.6        9.2        0.0        0.0        0.0       0.00      112.0       4.23       0.00       55.6
21:46               5        4.8         72       13.2      187.2       13.2       15.0        8.3     1019.6       19.6        9.2        0.0        0.0        0.0       0.00      112.1       4.28       0.00       55.6
21:48               5        4.8         72       13.2      187.2       13.2       15.0        8.3     1019.7       19.6        9.2        0.0        0.0        0.0       0.00      112.2       4.28       0.00       55.6
21:50               5        3.2         72       13.2      187.2       13.2       14.9        8.2     1019.7       19.6        9.2        0.0        0.0        0.0       0.00      112.3       4.28       0.00       55.6
21:52               5        4.8         72       13.2      187.2       13.2       14.9        8.2     1019.7       19.6        9.2        0.0        0.0        0.0       0.00      112.4       4.28       0.00       55.6
21:54               5        8.0         72       13.2      187.2       13.2       14.9        8.2     1019.8       19.6        9.2        0.0        0.0        0.0       0.00      112.5       4.28       0.00       55.6
21:56               5        4.8         72       13.1      187.2       13.1       14.9        8.2     1019.8       19.6        9.2        0.0        0.0        0.0       0.00      112.6       4.28       0.00       55.6
21:58               5        4.8         72       13.1      187.2       13.1       14.9        8.2     1019.7       19.6        9.2        0.0        0.0        0.0       0.00      112.7       4.28       0.00       55.6
22:00               5        4.8         72       13.1      187.2       13.1       14.9        8.2     1019.8       19.6        9.2        0.0        0.0        0.0       0.00      112.8       4.28       0.00       55.6
22:02               5        4.8         72       13.1      187.2       13.1       14.9        8.2     1019.7       19.6        9.2        0.0        0.0        0.0       0.00      113.0       4.33       0.00       55.6
22:04               5        6.4         72       13.1      187.2       13.1       14.9        8.2     1019.7       19.6        9.2        0.0        0.0        0.0       0.00      113.1       4.33       0.00       55.6
22:06               5        6.4         72       13.1      187.2       13.1       14.9        8.2     1019.7       19.6        9.2        0.0        0.0        0.0       0.00      113.3       4.33       0.00       55.6
22:08               5        6.4         72       13.1      187.2       13.1       14.9        8.2     1019.7       19.6        9.2        0.0        0.0        0.0       0.00      113.4       4.33       0.00       55.6
22:10               5        4.8         72       13.1      187.2       13.1       14.8        8.1     1019.8       19.6        9.2        0.0        0.0        0.0       0.00      113.6       4.33       0.00       55.6
22:12               5        4.8         72       13.1      187.2       13.1       14.8        8.1     1019.8       19.6        9.2        0.0        0.0        0.0       0.00      113.7       4.33       0.00       55.6
22:14               5        6.4         72       13.0      187.2       13.0       14.8        8.1     1019.8       19.6        9.2        0.0        0.0        0.0       0.00      113.8       4.33       0.00       55.6
22:16               5        3.2         72       13.0      187.2       13.0       14.8        8.1     1019.8       19.6        9.2        0.0        0.0        0.0       0.00      113.9       4.38       0.00       55.6
22:18               5        3.2         72       12.9      187.2       12.9       14.7        8.0     1019.8       19.6        9.2        0.0        0.0        0.0       0.00      114.0       4.38       0.00       55.6
22:20               5        4.8         73       12.9      187.2       12.9       14.7        8.2     1019.8       19.6        9.2        0.0        0.0        0.0       0.00      114.1       4.38       0.00       55.6
22:22               5        3.2         73       12.9      187.2       12.9       14.7        8.2     1019.8       19.6        9.2        0.0        0.0        0.0       0.00      114.2       4.38       0.00       55.6
22:24               5        3.2         73       12.8      187.2       12.8       14.7        8.1     1019.8       19.6        9.2        0.0        0.0        0.0       0.00      114.3       4.38       0.00       55.6
22:26               5        3.2         73       12.8      187.2       12.8       14.6        8.1     1019.9       19.6        9.2        0.0        0.0        0.0       0.00      114.4       4.38       0.00       55.6
22:28               5        3.2         73       12.8      187.2       12.8       14.6        8.1     1019.9       19.6        9.2        0.0        0.0        0.0       0.00      114.5       4.38       0.00       55.6
22:30               5        4.8         73       12.7      187.2       12.7       14.6        8.0     1019.9       19.6        9.2        0.0        0.0        0.0       0.00      114.6       4.38       0.00       55.6
22:32               5        4.8         73       12.7      187.2       12.7       14.5        8.0     1020.0       19.6        9.2        0.0        0.0        0.0       0.00      114.7       4.43       0.00       55.6
22:34               5        4.8         73       12.7      187.2       12.7       14.5        8.0     1020.0       19.6        9.2        0.0        0.0        0.0       0.00      114.8       4.43       0.00       55.6
22:36               5        3.2         73       12.6      187.2       12.6       14.5        7.9     1020.0       19.6        9.2        0.0        0.0        0.0       0.00      114.9       4.43       0.00       55.6
22:38               5        3.2         73       12.6      187.2       12.6       14.4        7.9     1020.0       19.6        9.2        0.0        0.0        0.0       0.00      114.9       4.43       0.00       55.6
22:40               5        3.2         74       12.6      187.2       12.6       14.5        8.1     1020.0       19.6        9.2        0.0        0.0        0.0       0.00      115.1       4.43       0.00       55.6
22:42               5        6.4         74       12.5      187.2       12.5       14.4        8.0     1020.0       19.6        9.2        0.0        0.0        0.0       0.00      115.2       4.43       0.00       55.6
22:44               5        3.2         74       12.4      187.2       12.4       14.4        7.9     1020.0       19.6        9.2        0.0        0.0        0.0       0.00      115.3       4.43       0.00       55.6
22:46               5        3.2         74       12.4      187.2       12.4       14.4        7.9     1020.0       19.6        9.2        0.0        0.0        0.0       0.00      115.4       4.49       0.00       55.6
22:48               5        4.8         74       12.4      187.2       12.4       14.3        7.9     1020.0       19.6        9.2        0.0        0.0        0.0       0.00      115.5       4.49       0.00       55.6
22:50               5        4.8         74       12.4      187.2       12.4       14.3        7.9     1020.1       19.6        9.2        0.0        0.0        0.0       0.00      115.6       4.49       0.00       55.6
22:52               5        4.8         74       12.4      187.2       12.4       14.3        7.9     1020.1       19.6        9.2        0.0        0.0        0.0       0.00      115.8       4.49       0.00       55.6
22:54               5        8.0         74       12.4      187.2       12.4       14.3        7.9     1020.0       19.6        9.2        0.0        0.0        0.0       0.00      115.9       4.49       0.00       55.6
22:56               5        6.4         74       12.4      187.2       12.4       14.3        7.9     1020.1       19.6        9.2        0.0        0.0        0.0       0.00      116.1       4.49       0.00       55.6
22:58               5        8.0         74       12.3      187.2       12.3       14.2        7.8     1020.1       19.6        9.2        0.0        0.0        0.0       0.00      116.2       4.49       0.00       55.6
23:00               5        4.8         74       12.3      187.2       12.3       14.2        7.8     1020.1       19.6        9.2        0.0        0.0        0.0       0.00      116.3       4.49       0.00       55.6
23:02               5        8.0         74       12.3      187.2       12.3       14.2        7.8     1020.0       19.6        9.2        0.0        0.0        0.0       0.00      116.5       4.55       0.00       55.6
23:04               5        8.0         74       12.3      187.2       11.1       14.2        7.8     1020.1       19.6        9.2        0.0        0.0        0.0       0.00      116.6       4.55       0.00       55.6
23:06               5        6.4         74       12.3      187.2       12.3       14.2        7.8     1020.1       19.6        9.2        0.0        0.0        0.0       0.00      116.8       4.55       0.00       55.6
23:08               5        1.6         74       12.3      187.2       12.3       14.2        7.8     1020.1       19.6        9.2        0.0        0.0        0.0       0.00      116.9       4.55       0.00       55.6
23:10               5        3.2         74       12.3      187.2       12.3       14.2        7.8     1020.1       19.6        9.2        0.0        0.0        0.0       0.00      116.9       4.55       0.00       55.6
23:12               5        0.0         74       12.3      187.2       12.3       14.2        7.8     1020.1       19.6        9.2        0.0        0.0        0.0       0.00      116.9       4.55       0.00       55.6
23:14               5        3.2         74       12.3      187.2       12.3       14.2        7.8     1020.1       19.6        9.2        0.0        0.0        0.0       0.00      117.0       4.55       0.00       55.6
23:16               5        4.8         74       12.3      187.2       12.3       14.2        7.8     1020.2       19.6        9.2        0.0        0.0        0.0       0.00      117.1       4.61       0.00       55.6
23:18               5        4.8         74       12.3      187.2       12.3       14.2        7.8     1020.2       19.6        9.2        0.0        0.0        0.0       0.00      117.1       4.61       0.00       55.6
23:20               5        3.2         74       12.2      187.2       12.2       14.1        7.7     1020.2       19.6        9.2        0.0        0.0        0.0       0.00      117.2       4.61       0.00       55.6
23:22               5        3.2         74       12.2      187.2       12.2       14.1        7.7     1020.3       19.6        9.2        0.0        0.0        0.0       0.00      117.3       4.61       0.00       55.6
23:24               5        4.8         74       12.2      187.2       12.2       14.1        7.7     1020.3       19.6        9.2        0.0        0.0        0.0       0.00      117.3       4.61       0.00       55.6
23:26               5        3.2         74       12.2      187.2       12.2       14.1        7.7     1020.3       19.6        9.2        0.0        0.0        0.0       0.00      117.4       4.61       0.00       55.6
23:28               5        3.2         74       12.2      187.2       12.2       14.1        7.7     1020.3       19.6        9.2        0.0        0.0        0.0       0.00      117.4       4.61       0.00       55.6
23:30               5        1.6         74       12.1      187.2       12.1       14.0        7.6     1020.3       19.6        9.2        0.0        0.0        0.0       0.00      117.5       4.61       0.00       55.6
23:32               5        1.6         74       12.1      187.2       12.1       14.0        7.6     1020.4       19.6        9.2        0.0        0.0        0.0       0.00      117.5       4.67       0.00       55.6
23:34               5        1.6         74       12.1      187.2       12.1       14.0        7.6     1020.3       19.6        9.2        0.0        0.0        0.0       0.00      117.5       4.67       0.00       55.6
23:36               5        1.6         74       12.1      187.2       12.1       14.0        7.6     1020.3       19.6        9.2        0.0        0.0        0.0       0.00      117.6       4.67       0.00       55.6
23:38               5        0.0         74       12.0      187.2       12.0       13.9        7.5     1020.3       19.6        9.2        0.0        0.0        0.0       0.00      117.6       4.67       0.00       55.6
23:40               5        0.0         74       12.0      187.2       12.0       13.9        7.5     1020.3       19.6        9.2        0.0        0.0        0.0       0.00      117.6       4.67       0.00       55.6
23:42               5        0.0         75       11.9      187.2       11.9       13.9        7.7     1020.3       19.6        9.2        0.0        0.0        0.0       0.00      117.6       4.67       0.00       55.6
23:44               5        0.0         75       11.9      187.2       11.9       13.9        7.6     1020.3       19.6        9.2        0.0        0.0        0.0       0.00      117.6       4.67       0.00       55.6
23:46               5        0.0         75       11.9      187.2       11.9       13.9        7.6     1020.3       19.6        9.2        0.0        0.0        0.0       0.00      117.6       4.73       0.00       55.6
23:48               5        0.0         75       11.8      187.2       11.8       13.8        7.5     1020.3       19.6        9.2        0.0        0.0        0.0       0.00      117.6       4.73       0.00       55.6
23:50               5        3.2         75       11.8      187.2       11.8       13.8        7.5     1020.4       19.6        9.2        0.0        0.0        0.0       0.00      117.6       4.73       0.00       55.6
23:52               5        3.2         75       11.8      187.2       11.8       13.8        7.5     1020.4       19.6        9.2        0.0        0.0        0.0       0.00      117.7       4.73       0.00       55.6
23:54               5        3.2         75       11.8      187.2       11.8       13.8        7.5     1020.4       19.6        9.2        0.0        0.0        0.0       0.00      117.8       4.73       0.00       55.6
23:56               5        3.2         75       11.8      187.2       11.8       13.8        7.5     1020.4       19.6        9.2        0.0        0.0        0.0       0.00      117.8       4.73       0.00       55.6
23:58               5        4.8         75       11.8      187.2       11.8       13.8        7.5     1020.3       19.6        9.2        0.0        0.0        0.0       0.00      117.9       4.73       0.00       55.6


Detalle de hace 2 das:

5/12/19
Time         Wind Dir  Wind Gust   Humidity       Temp   Tot Rain Wind Chill Heat Index  Dew Point   Barom SL Temp Out H Temp Out L  DailyRain   HourRain   24HrRain   RainRate   Wind Run   Deg Heat   Deg Cool  MonthRain
                          km/hr          %         C         mm         C         C         C         mb         C         C         mm         mm         mm      mm/hr         km         C         C         mm
0:00              238        0.0         86        8.3      187.2        8.3       11.1        6.1     1010.2        8.3        8.3        0.0        0.0        0.0       0.00       36.8       5.87       0.00       55.6
0:02              238        0.0         86        8.3      187.2        8.3       11.1        6.1     1010.2        8.3        8.3        0.0        0.0        0.0       0.00        0.0       0.10       0.00       55.6
0:03              238        0.0         86        8.2      187.2        8.2       11.0        6.0     1010.2        8.3        8.2        0.0        0.0        0.0       0.00        0.0       0.10       0.00       55.6
0:06              238        0.0         86        8.2      187.2        8.2       11.0        6.0     1010.1        8.3        8.2        0.0        0.0        0.0       0.00        0.0       0.10       0.00       55.6
0:08              238        0.0         86        8.2      187.2        8.2       11.0        6.0     1010.2        8.3        8.2        0.0        0.0        0.0       0.00        0.0       0.10       0.00       55.6
0:10              238        0.0         86        8.1      187.2        8.1       10.9        5.9     1010.3        8.3        8.1        0.0        0.0        0.0       0.00        0.0       0.10       0.00       55.6
0:12              238        0.0         86        8.1      187.2        8.1       10.9        5.9     1010.2        8.3        8.1        0.0        0.0        0.0       0.00        0.0       0.10       0.00       55.6
0:14              238        0.0         86        8.1      187.2        8.1       10.9        5.9     1010.2        8.3        8.1        0.0        0.0        0.0       0.00        0.0       0.10       0.00       55.6
0:16              239        0.0         86        8.0      187.2        8.0       10.8        5.8     1010.3        8.3        8.0        0.0        0.0        0.0       0.00        0.0       0.20       0.00       55.6
0:18              238        0.0         86        8.0      187.2        8.0       10.8        5.8     1010.3        8.3        8.0        0.0        0.0        0.0       0.00        0.0       0.20       0.00       55.6
0:20              238        0.0         86        8.0      187.2        8.0       10.8        5.8     1010.2        8.3        8.0        0.0        0.0        0.0       0.00        0.0       0.20       0.00       55.6
0:22              238        0.0         86        7.9      187.2        7.9       10.8        5.7     1010.2        8.3        7.9        0.0        0.0        0.0       0.00        0.0       0.20       0.00       55.6
0:24              238        0.0         87        7.9      187.2        7.9       10.8        5.9     1010.1        8.3        7.9        0.0        0.0        0.0       0.00        0.0       0.20       0.00       55.6
0:26              238        0.0         87        7.9      187.2        7.9       10.8        5.9     1010.1        8.3        7.9        0.0        0.0        0.0       0.00        0.0       0.20       0.00       55.6
0:28              238        0.0         87        7.9      187.2        7.9       10.8        5.9     1010.1        8.3        7.9        0.0        0.0        0.0       0.00        0.0       0.20       0.00       55.6
0:30              238        0.0         87        7.8      187.2        7.8       10.7        5.8     1010.1        8.3        7.8        0.0        0.0        0.0       0.00        0.0       0.20       0.00       55.6
0:32              238        0.0         87        7.8      187.2        7.8       10.7        5.8     1010.2        8.3        7.8        0.0        0.0        0.0       0.00        0.0       0.31       0.00       55.6
0:34              238        0.0         87        7.8      187.2        7.8       10.7        5.8     1010.2        8.3        7.8        0.0        0.0        0.0       0.00        0.0       0.31       0.00       55.6
0:36              238        0.0         87        7.8      187.2        7.8       10.7        5.8     1010.4        8.3        7.8        0.0        0.0        0.0       0.00        0.0       0.31       0.00       55.6
0:38              238        0.0         87        7.8      187.2        7.8       10.7        5.8     1010.4        8.3        7.8        0.0        0.0        0.0       0.00        0.0       0.31       0.00       55.6
0:40              238        0.0         87        7.8      187.2        7.8       10.7        5.8     1010.3        8.3        7.8        0.0        0.0        0.0       0.00        0.0       0.31       0.00       55.6
0:42              238        0.0         88        7.9      187.2        7.9       10.9        6.0     1010.3        8.3        7.8        0.0        0.0        0.0       0.00        0.0       0.31       0.00       55.6
0:44              238        0.0         88        7.9      187.2        7.9       10.9        6.0     1010.3        8.3        7.8        0.0        0.0        0.0       0.00        0.0       0.31       0.00       55.6
0:46              238        0.0         88        7.9      187.2        7.9       10.9        6.0     1010.3        8.3        7.8        0.0        0.0        0.0       0.00        0.0       0.42       0.00       55.6
0:48              238        0.0         88        7.9      187.2        7.9       10.9        6.0     1010.4        8.3        7.8        0.0        0.0        0.0       0.00        0.0       0.42       0.00       55.6
0:50              238        0.0         88        7.9      187.2        7.9       10.9        6.0     1010.5        8.3        7.8        0.0        0.0        0.0       0.00        0.0       0.42       0.00       55.6
0:52              238        0.0         88        7.9      187.2        7.9       10.9        6.0     1010.5        8.3        7.8        0.0        0.0        0.0       0.00        0.0       0.42       0.00       55.6
0:54              238        0.0         88        7.9      187.2        7.9       10.9        6.0     1010.5        8.3        7.8        0.0        0.0        0.0       0.00        0.0       0.42       0.00       55.6
0:56              238        0.0         88        7.8      187.2        7.8       10.8        6.0     1010.5        8.3        7.8        0.0        0.0        0.0       0.00        0.0       0.42       0.00       55.6
0:58              238        4.8         88        7.9      187.2        7.9       10.9        6.0     1010.5        8.3        7.8        0.0        0.0        0.0       0.00        0.1       0.42       0.00       55.6
1:00              238        6.4         88        7.8      187.2        7.8       10.8        6.0     1010.6        8.3        7.8        0.0        0.0        0.0       0.00        0.2       0.42       0.00       55.6
1:02              238        4.8         88        7.8      187.2        7.8       10.8        6.0     1010.5        8.3        7.8        0.0        0.0        0.0       0.00        0.3       0.52       0.00       55.6
1:04              238        3.2         88        7.8      187.2        7.8       10.8        6.0     1010.5        8.3        7.8        0.0        0.0        0.0       0.00        0.4       0.52       0.00       55.6
1:06              238        1.6         88        7.8      187.2        7.8       10.8        6.0     1010.5        8.3        7.8        0.0        0.0        0.0       0.00        0.4       0.52       0.00       55.6
1:08              238        1.6         87        7.8      187.2        7.8       10.7        5.8     1010.4        8.3        7.8        0.0        0.0        0.0       0.00        0.5       0.52       0.00       55.6
1:10              238        3.2         87        7.8      187.2        7.8       10.7        5.8     1010.5        8.3        7.8        0.0        0.0        0.0       0.00        0.6       0.52       0.00       55.6
1:12              238        4.8         87        7.8      187.2        7.8       10.7        5.8     1010.5        8.3        7.8        0.0        0.0        0.0       0.00        0.6       0.52       0.00       55.6
1:14              238        4.8         87        7.8      187.2        7.8       10.7        5.8     1010.5        8.3        7.8        0.0        0.0        0.0       0.00        0.7       0.52       0.00       55.6
1:16              238        4.8         87        7.8      187.2        7.8       10.7        5.8     1010.5        8.3        7.8        0.0        0.0        0.0       0.00        0.9       0.63       0.00       55.6
1:18              238        3.2         87        7.8      187.2        7.8       10.7        5.8     1010.5        8.3        7.8        0.0        0.0        0.0       0.00        1.0       0.63       0.00       55.6
1:20              238        3.2         87        7.8      187.2        7.8       10.7        5.8     1010.5        8.3        7.8        0.0        0.0        0.0       0.00        1.1       0.63       0.00       55.6
1:22              238        3.2         88        7.8      187.2        7.8       10.7        5.9     1010.4        8.3        7.8        0.0        0.0        0.0       0.00        1.1       0.63       0.00       55.6
1:24              238        3.2         88        7.8      187.2        7.8       10.7        5.9     1010.4        8.3        7.8        0.0        0.0        0.0       0.00        1.2       0.63       0.00       55.6
1:26              238        3.2         88        7.8      187.2        7.8       10.7        5.9     1010.3        8.3        7.8        0.0        0.0        0.0       0.00        1.3       0.63       0.00       55.6
1:28              238        3.2         88        7.8      187.2        7.8       10.8        6.0     1010.3        8.3        7.8        0.0        0.0        0.0       0.00        1.3       0.63       0.00       55.6
1:30              238        3.2         88        7.8      187.2        7.8       10.8        6.0     1010.3        8.3        7.8        0.0        0.0        0.0       0.00        1.4       0.63       0.00       55.6
1:32              238        0.0         88        7.8      187.2        7.8       10.8        6.0     1010.4        8.3        7.8        0.0        0.0        0.0       0.00        1.5       0.73       0.00       55.6
1:34              238        3.2         88        7.8      187.2        7.8       10.8        6.0     1010.3        8.3        7.8        0.0        0.0        0.0       0.00        1.5       0.73       0.00       55.6
1:36              238        1.6         87        7.8      187.2        7.8       10.7        5.8     1010.2        8.3        7.8        0.0        0.0        0.0       0.00        1.6       0.73       0.00       55.6
1:38              238        3.2         88        7.8      187.2        7.8       10.8        6.0     1010.1        8.3        7.8        0.0        0.0        0.0       0.00        1.6       0.73       0.00       55.6
1:40              238        4.8         88        7.8      187.2        7.8       10.8        6.0     1010.2        8.3        7.8        0.0        0.0        0.0       0.00        1.7       0.73       0.00       55.6
1:42              238        4.8         88        7.8      187.2        7.8       10.8        6.0     1010.2        8.3        7.8        0.0        0.0        0.0       0.00        1.8       0.73       0.00       55.6
1:44              238        3.2         88        7.8      187.2        7.8       10.8        6.0     1010.2        8.3        7.8        0.0        0.0        0.0       0.00        1.9       0.73       0.00       55.6
1:46              238        1.6         88        7.9      187.2        7.9       10.9        6.0     1010.2        8.3        7.8        0.0        0.0        0.0       0.00        1.9       0.84       0.00       55.6
1:48              238        4.8         88        7.9      187.2        7.9       10.9        6.0     1010.2        8.3        7.8        0.0        0.0        0.0       0.00        2.0       0.84       0.00       55.6
1:50              238        3.2         88        7.9      187.2        7.9       10.9        6.0     1010.3        8.3        7.8        0.0        0.0        0.0       0.00        2.0       0.84       0.00       55.6
1:52              238        0.0         88        7.9      187.2        7.9       10.9        6.0     1010.3        8.3        7.8        0.0        0.0        0.0       0.00        2.0       0.84       0.00       55.6
1:54              238        0.0         88        7.9      187.2        7.9       10.9        6.0     1010.3        8.3        7.8        0.0        0.0        0.0       0.00        2.0       0.84       0.00       55.6
1:56              238        0.0         88        7.9      187.2        7.9       10.9        6.0     1010.3        8.3        7.8        0.0        0.0        0.0       0.00        2.0       0.84       0.00       55.6
1:58              238        0.0         88        7.9      187.2        7.9       10.9        6.0     1010.4        8.3        7.8        0.0        0.0        0.0       0.00        2.0       0.84       0.00       55.6
2:00              238        0.0         88        7.9      187.2        7.9       10.9        6.0     1010.4        8.3        7.8        0.0        0.0        0.0       0.00        2.0       0.84       0.00       55.6
2:02              238        0.0         88        7.9      187.2        7.9       10.9        6.0     1010.3        8.3        7.8        0.0        0.0        0.0       0.00        2.0       0.94       0.00       55.6
2:04              238        0.0         88        7.8      187.2        7.8       10.8        6.0     1010.4        8.3        7.8        0.0        0.0        0.0       0.00        2.0       0.94       0.00       55.6
2:06              238        0.0         88        7.8      187.2        7.8       10.8        6.0     1010.3        8.3        7.8        0.0        0.0        0.0       0.00        2.0       0.94       0.00       55.6
2:08              238        0.0         88        7.8      187.2        7.8       10.8        6.0     1010.3        8.3        7.8        0.0        0.0        0.0       0.00        2.0       0.94       0.00       55.6
2:10              238        1.6         88        7.8      187.2        7.8       10.8        6.0     1010.3        8.3        7.8        0.0        0.0        0.0       0.00        2.0       0.94       0.00       55.6
2:12              238        3.2         88        7.8      187.2        7.8       10.8        6.0     1010.2        8.3        7.8        0.0        0.0        0.0       0.00        2.1       0.94       0.00       55.6
2:14              238        0.0         88        7.8      187.2        7.8       10.8        6.0     1010.2        8.3        7.8        0.0        0.0        0.0       0.00        2.1       0.94       0.00       55.6
2:16              238        0.0         88        7.8      187.2        7.8       10.7        5.9     1010.3        8.3        7.8        0.0        0.0        0.0       0.00        2.1       1.05       0.00       55.6
2:18              238        0.0         88        7.8      187.2        7.8       10.7        5.9     1010.3        8.3        7.8        0.0        0.0        0.0       0.00        2.1       1.05       0.00       55.6
2:20              238        4.8         88        7.8      187.2        7.8       10.7        5.9     1010.3        8.3        7.8        0.0        0.0        0.0       0.00        2.2       1.05       0.00       55.6
2:22              238        3.2         88        7.8      187.2        7.8       10.8        6.0     1010.3        8.3        7.8        0.0        0.0        0.0       0.00        2.2       1.05       0.00       55.6
2:24              238        1.6         88        7.8      187.2        7.8       10.7        5.9     1010.3        8.3        7.8        0.0        0.0        0.0       0.00        2.3       1.05       0.00       55.6
2:26              238        0.0         88        7.8      187.2        7.8       10.8        6.0     1010.3        8.3        7.8        0.0        0.0        0.0       0.00        2.3       1.05       0.00       55.6
2:28              238        0.0         88        7.8      187.2        7.8       10.7        5.9     1010.3        8.3        7.8        0.0        0.0        0.0       0.00        2.3       1.05       0.00       55.6
2:30              238        0.0         88        7.8      187.2        7.8       10.7        5.9     1010.4        8.3        7.8        0.0        0.0        0.0       0.00        2.3       1.05       0.00       55.6
2:32              238        0.0         88        7.8      187.2        7.8       10.7        5.9     1010.3        8.3        7.8        0.0        0.0        0.0       0.00        2.3       1.16       0.00       55.6
2:34              238        0.0         88        7.8      187.2        7.8       10.7        5.9     1010.2        8.3        7.8        0.0        0.0        0.0       0.00        2.3       1.16       0.00       55.6
2:36              238        0.0         88        7.8      187.2        7.8       10.7        5.9     1010.2        8.3        7.8        0.0        0.0        0.0       0.00        2.3       1.16       0.00       55.6
2:38              238        0.0         88        7.8      187.2        7.8       10.7        5.9     1010.3        8.3        7.8        0.0        0.0        0.0       0.00        2.3       1.16       0.00       55.6
2:40              238        0.0         88        7.8      187.2        7.8       10.7        5.9     1010.4        8.3        7.8        0.0        0.0        0.0       0.00        2.3       1.16       0.00       55.6
2:42              238        0.0         88        7.8      187.2        7.8       10.8        6.0     1010.4        8.3        7.8        0.0        0.0        0.0       0.00        2.3       1.16       0.00       55.6
2:44              238        0.0         88        7.8      187.2        7.8       10.7        5.9     1010.3        8.3        7.8        0.0        0.0        0.0       0.00        2.3       1.16       0.00       55.6
2:46              238        0.0         88        7.8      187.2        7.8       10.8        6.0     1010.3        8.3        7.8        0.0        0.0        0.0       0.00        2.3       1.26       0.00       55.6
2:48              238        0.0         88        7.8      187.2        7.8       10.8        6.0     1010.3        8.3        7.8        0.0        0.0        0.0       0.00        2.3       1.26       0.00       55.6
2:50              238        0.0         88        7.8      187.2        7.8       10.8        6.0     1010.3        8.3        7.8        0.0        0.0        0.0       0.00        2.3       1.26       0.00       55.6
2:52              238        0.0         88        7.8      187.2        7.8       10.8        6.0     1010.4        8.3        7.8        0.0        0.0        0.0       0.00        2.3       1.26       0.00       55.6
2:54              238        0.0         88        7.8      187.2        7.8       10.8        6.0     1010.3        8.3        7.8        0.0        0.0        0.0       0.00        2.3       1.26       0.00       55.6
2:56              238        3.2         88        7.8      187.2        7.8       10.8        6.0     1010.4        8.3        7.8        0.0        0.0        0.0       0.00        2.4       1.26       0.00       55.6
2:58              238        3.2         87        7.8      187.2        7.8       10.7        5.8     1010.4        8.3        7.8        0.0        0.0        0.0       0.00        2.5       1.26       0.00       55.6
3:00              238        3.2         87        7.8      187.2        7.8       10.7        5.8     1010.4        8.3        7.8        0.0        0.0        0.0       0.00        2.6       1.26       0.00       55.6
3:02              238        0.0         87        7.8      187.2        7.8       10.7        5.8     1010.3        8.3        7.8        0.0        0.0        0.0       0.00        2.6       1.37       0.00       55.6
3:04              238        0.0         87        7.8      187.2        7.8       10.7        5.8     1010.4        8.3        7.8        0.0        0.0        0.0       0.00        2.6       1.37       0.00       55.6
3:06              238        0.0         87        7.8      187.2        7.8       10.7        5.8     1010.4        8.3        7.8        0.0        0.0        0.0       0.00        2.6       1.37       0.00       55.6
3:08              239        9.7         87        7.8      187.2        7.8       10.7        5.8     1010.5        8.3        7.8        0.0        0.0        0.0       0.00        2.7       1.37       0.00       55.6
3:10              239        3.2         87        7.8      187.2        7.8       10.7        5.8     1010.4        8.3        7.8        0.0        0.0        0.0       0.00        2.8       1.37       0.00       55.6
3:12              239        4.8         87        7.8      187.2        7.8       10.7        5.8     1010.5        8.3        7.8        0.0        0.0        0.0       0.00        2.9       1.37       0.00       55.6
3:14              239        3.2         87        7.8      187.2        7.8       10.7        5.8     1010.5        8.3        7.8        0.0        0.0        0.0       0.00        2.9       1.37       0.00       55.6
3:16              239        1.6         86        7.8      187.2        7.8       10.6        5.6     1010.5        8.3        7.8        0.0        0.0        0.0       0.00        3.0       1.48       0.00       55.6
3:18              239        3.2         86        7.8      187.2        7.8       10.6        5.6     1010.4        8.3        7.8        0.0        0.0        0.0       0.00        3.1       1.48       0.00       55.6
3:20              239        3.2         86        7.8      187.2        7.8       10.6        5.6     1010.5        8.3        7.8        0.0        0.0        0.0       0.00        3.1       1.48       0.00       55.6
3:22              239        1.6         87        7.8      187.2        7.8       10.7        5.8     1010.5        8.3        7.8        0.0        0.0        0.0       0.00        3.1       1.48       0.00       55.6
3:24              239        0.0         87        7.8      187.2        7.8       10.7        5.8     1010.4        8.3        7.8        0.0        0.0        0.0       0.00        3.1       1.48       0.00       55.6
3:26              239        0.0         87        7.8      187.2        7.8       10.7        5.8     1010.4        8.3        7.8        0.0        0.0        0.0       0.00        3.1       1.48       0.00       55.6
3:28              239        0.0         87        7.8      187.2        7.8       10.7        5.8     1010.4        8.3        7.8        0.0        0.0        0.0       0.00        3.1       1.48       0.00       55.6
3:30              239        0.0         87        7.8      187.2        7.8       10.7        5.8     1010.4        8.3        7.8        0.0        0.0        0.0       0.00        3.1       1.48       0.00       55.6
3:32              238        0.0         87        7.8      187.2        7.8       10.7        5.8     1010.4        8.3        7.8        0.0        0.0        0.0       0.00        3.1       1.58       0.00       55.6
3:34              239        1.6         87        7.8      187.2        7.8       10.7        5.8     1010.4        8.3        7.8        0.0        0.0        0.0       0.00        3.2       1.58       0.00       55.6
3:36              239        1.6         87        7.7      187.2        7.7       10.6        5.7     1010.4        8.3        7.7        0.0        0.0        0.0       0.00        3.2       1.58       0.00       55.6
3:38              239        0.0         87        7.7      187.2        7.7       10.6        5.7     1010.4        8.3        7.7        0.0        0.0        0.0       0.00        3.3       1.58       0.00       55.6
3:40              239        0.0         87        7.7      187.2        7.7       10.6        5.7     1010.4        8.3        7.7        0.0        0.0        0.0       0.00        3.3       1.58       0.00       55.6
3:42              239        0.0         87        7.7      187.2        7.7       10.6        5.6     1010.4        8.3        7.7        0.0        0.0        0.0       0.00        3.3       1.58       0.00       55.6
3:44              239        0.0         87        7.7      187.2        7.7       10.6        5.6     1010.4        8.3        7.7        0.0        0.0        0.0       0.00        3.3       1.58       0.00       55.6
3:46              239        0.0         87        7.6      187.2        7.6       10.5        5.6     1010.4        8.3        7.6        0.0        0.0        0.0       0.00        3.3       1.69       0.00       55.6
3:48              239        0.0         87        7.6      187.2        7.6       10.5        5.6     1010.4        8.3        7.6        0.0        0.0        0.0       0.00        3.3       1.69       0.00       55.6
3:50              239        3.2         87        7.6      187.2        7.6       10.4        5.5     1010.4        8.3        7.6        0.0        0.0        0.0       0.00        3.4       1.69       0.00       55.6
3:52              239        4.8         88        7.6      187.2        7.6       10.5        5.7     1010.4        8.3        7.6        0.0        0.0        0.0       0.00        3.4       1.69       0.00       55.6
3:54              239        4.8         88        7.6      187.2        7.6       10.5        5.7     1010.4        8.3        7.6        0.0        0.0        0.0       0.00        3.5       1.69       0.00       55.6
3:56              239        3.2         88        7.5      187.2        7.5       10.5        5.6     1010.4        8.3        7.5        0.0        0.0        0.0       0.00        3.6       1.69       0.00       55.6
3:58              239        6.4         88        7.5      187.2        7.5       10.5        5.6     1010.4        8.3        7.5        0.0        0.0        0.0       0.00        3.7       1.69       0.00       55.6
4:00              239        4.8         88        7.4      187.2        7.4       10.4        5.6     1010.4        8.3        7.4        0.0        0.0        0.0       0.00        3.8       1.69       0.00       55.6
4:02              239        0.0         88        7.4      187.2        7.4       10.4        5.5     1010.5        8.3        7.4        0.0        0.0        0.0       0.00        3.9       1.80       0.00       55.6
4:04              239        0.0         88        7.4      187.2        7.4       10.4        5.5     1010.5        8.3        7.4        0.0        0.0        0.0       0.00        3.9       1.80       0.00       55.6
4:06              239        0.0         88        7.4      187.2        7.4       10.4        5.5     1010.5        8.3        7.4        0.0        0.0        0.0       0.00        3.9       1.80       0.00       55.6
4:08              239        0.0         88        7.3      187.2        7.3       10.3        5.5     1010.5        8.3        7.3        0.0        0.0        0.0       0.00        3.9       1.80       0.00       55.6
4:10              239        0.0         88        7.3      187.2        7.3       10.3        5.5     1010.6        8.3        7.3        0.0        0.0        0.0       0.00        3.9       1.80       0.00       55.6
4:12              239        0.0         88        7.3      187.2        7.3       10.2        5.4     1010.6        8.3        7.3        0.0        0.0        0.0       0.00        3.9       1.80       0.00       55.6
4:14              239        0.0         88        7.3      187.2        7.3       10.2        5.4     1010.7        8.3        7.3        0.0        0.0        0.0       0.00        3.9       1.80       0.00       55.6
4:16              239        0.0         88        7.3      187.2        7.3       10.2        5.4     1010.7        8.3        7.3        0.0        0.0        0.0       0.00        3.9       1.91       0.00       55.6
4:18              239        0.0         88        7.2      187.2        7.2       10.2        5.4     1010.7        8.3        7.2        0.0        0.0        0.0       0.00        3.9       1.91       0.00       55.6
4:20              239        0.0         88        7.2      187.2        7.2       10.2        5.4     1010.8        8.3        7.2        0.0        0.0        0.0       0.00        3.9       1.91       0.00       55.6
4:22              239        4.8         88        7.2      187.2        7.2       10.2        5.4     1010.8        8.3        7.2        0.0        0.0        0.0       0.00        3.9       1.91       0.00       55.6
4:24              239        0.0         88        7.2      187.2        7.2       10.2        5.4     1010.6        8.3        7.2        0.0        0.0        0.0       0.00        4.0       1.91       0.00       55.6
4:26              239        4.8         88        7.2      187.2        7.2       10.2        5.4     1010.7        8.3        7.2        0.0        0.0        0.0       0.00        4.1       1.91       0.00       55.6
4:28              239        8.0         88        7.2      187.2        7.2       10.2        5.4     1010.9        8.3        7.2        0.0        0.0        0.0       0.00        4.3       1.91       0.00       55.6
4:30              242       14.5         89        7.3      187.2        7.3       10.3        5.6     1010.8        8.3        7.2        0.0        0.0        0.0       0.00        4.5       1.91       0.00       55.6
4:32              245        4.8         89        7.3      187.2        7.3       10.3        5.6     1010.9        8.3        7.2        0.0        0.0        0.0       0.00        4.7       2.02       0.00       55.6
4:34              252       11.3         89        7.3      187.2        5.9       10.4        5.6     1010.9        8.3        7.2        0.0        0.0        0.0       0.00        5.0       2.02       0.00       55.6
4:36              256       14.5         89        7.3      187.2        2.1       10.4        5.6     1010.9        8.3        7.2        0.0        0.0        0.0       0.00        5.3       2.02       0.00       55.6
4:38              259       11.3         89        7.3      187.2        7.3       10.4        5.6     1010.9        8.3        7.2        0.0        0.0        0.0       0.00        5.5       2.02       0.00       55.6
4:40              260        9.7         89        7.3      187.2        5.0       10.4        5.6     1010.9        8.3        7.2        0.0        0.0        0.0       0.00        5.8       2.02       0.00       55.6
4:42              261        9.7         89        7.3      187.2        7.3       10.4        5.6     1010.9        8.3        7.2        0.0        0.0        0.0       0.00        6.0       2.02       0.00       55.6
4:44              265       11.3         89        7.3      187.2        7.3       10.4        5.6     1010.9        8.3        7.2        0.0        0.0        0.0       0.00        6.3       2.02       0.00       55.6
4:46              266       12.9         89        7.3      187.2        7.3       10.3        5.6     1010.9        8.3        7.2        0.0        0.0        0.0       0.00        6.5       2.13       0.00       55.6
4:48              266        4.8         89        7.3      187.2        7.3       10.3        5.6     1010.9        8.3        7.2        0.0        0.0        0.0       0.00        6.7       2.13       0.00       55.6
4:50              266       11.3         89        7.2      187.2        4.9       10.3        5.5     1010.9        8.3        7.2        0.0        0.0        0.0       0.00        7.0       2.13       0.00       55.6
4:52              267       11.3         89        7.2      187.2        4.9       10.3        5.5     1010.9        8.3        7.2        0.0        0.0        0.0       0.00        7.2       2.13       0.00       55.6
4:54              267        9.7         89        7.2      187.2        7.2       10.2        5.5     1010.9        8.3        7.2        0.0        0.0        0.0       0.00        7.3       2.13       0.00       55.6
4:56              267       11.3         89        7.2      187.2        7.2       10.2        5.5     1010.9        8.3        7.2        0.0        0.0        0.0       0.00        7.5       2.13       0.00       55.6
4:58              267       11.3         89        7.2      187.2        3.8       10.2        5.5     1010.9        8.3        7.2        0.0        0.0        0.0       0.00        7.7       2.13       0.00       55.6
5:00              271       12.9         90        7.2      187.2        3.9       10.4        5.7     1011.0        8.3        7.2        0.0        0.0        0.0       0.00        8.0       2.13       0.00       55.6
5:02              278        3.2         90        7.2      187.2        7.2       10.4        5.7     1011.0        8.3        7.2        0.0        0.0        0.0       0.00        8.3       2.25       0.00       55.6
5:04              293        3.2         90        7.2      187.2        7.2       10.4        5.7     1010.9        8.3        7.2        0.0        0.0        0.0       0.00        8.4       2.25       0.00       55.6
5:06              296        1.6         90        7.2      187.2        7.2       10.4        5.7     1011.0        8.3        7.2        0.0        0.0        0.0       0.00        8.5       2.25       0.00       55.6
5:08              298        4.8         90        7.2      187.2        7.2       10.4        5.7     1011.1        8.3        7.2        0.0        0.0        0.0       0.00        8.6       2.25       0.00       55.6
5:10              313        6.4         90        7.2      187.2        7.2       10.4        5.7     1011.0        8.3        7.2        0.0        0.0        0.0       0.00        8.7       2.25       0.00       55.6
5:12              329        3.2         90        7.2      187.2        7.2       10.4        5.7     1011.0        8.3        7.2        0.0        0.0        0.0       0.00        8.8       2.25       0.00       55.6
5:14              330        3.2         90        7.2      187.2        7.2       10.4        5.7     1010.9        8.3        7.2        0.0        0.0        0.0       0.00        8.9       2.25       0.00       55.6
5:16              330        3.2         90        7.3      187.2        7.3       10.4        5.7     1011.0        8.3        7.2        0.0        0.0        0.0       0.00        8.9       2.36       0.00       55.6
5:18              330        1.6         90        7.3      187.2        7.3       10.5        5.8     1011.0        8.3        7.2        0.0        0.0        0.0       0.00        9.0       2.36       0.00       55.6
5:20              330        1.6         90        7.3      187.2        7.3       10.5        5.8     1011.0        8.3        7.2        0.0        0.0        0.0       0.00        9.1       2.36       0.00       55.6
5:22              330        3.2         90        7.3      187.2        7.3       10.5        5.8     1011.0        8.3        7.2        0.0        0.0        0.0       0.00        9.1       2.36       0.00       55.6
5:24              331        4.8         90        7.3      187.2        7.3       10.5        5.8     1011.0        8.3        7.2        0.0        0.0        0.0       0.00        9.2       2.36       0.00       55.6
5:26              331        3.2         90        7.4      187.2        7.4       10.5        5.9     1011.0        8.3        7.2        0.0        0.0        0.0       0.00        9.3       2.36       0.00       55.6
5:28              331        1.6         90        7.4      187.2        7.4       10.5        5.9     1011.0        8.3        7.2        0.0        0.0        0.0       0.00        9.4       2.36       0.00       55.6
5:30              331        3.2         90        7.4      187.2        7.4       10.5        5.9     1011.1        8.3        7.2        0.0        0.0        0.0       0.00        9.4       2.36       0.00       55.6
5:32              331        3.2         90        7.4      187.2        7.4       10.5        5.9     1011.0        8.3        7.2        0.0        0.0        0.0       0.00        9.5       2.47       0.00       55.6
5:34              331        3.2         90        7.4      187.2        7.4       10.5        5.9     1010.9        8.3        7.2        0.0        0.0        0.0       0.00        9.6       2.47       0.00       55.6
5:36              331        1.6         90        7.4      187.2        7.4       10.5        5.9     1010.9        8.3        7.2        0.0        0.0        0.0       0.00        9.6       2.47       0.00       55.6
5:38              331        3.2         90        7.4      187.2        7.4       10.5        5.9     1011.1        8.3        7.2        0.0        0.0        0.0       0.00        9.7       2.47       0.00       55.6
5:40              331        3.2         89        7.4      187.2        7.4       10.4        5.7     1011.1        8.3        7.2        0.0        0.0        0.0       0.00        9.8       2.47       0.00       55.6
5:42              331        3.2         89        7.4      187.2        7.4       10.4        5.7     1011.2        8.3        7.2        0.0        0.0        0.0       0.00        9.8       2.47       0.00       55.6
5:44              331        3.2         89        7.4      187.2        7.4       10.4        5.7     1011.1        8.3        7.2        0.0        0.0        0.0       0.00        9.9       2.47       0.00       55.6
5:46              331        3.2         89        7.4      187.2        7.4       10.4        5.7     1011.1        8.3        7.2        0.0        0.0        0.0       0.00        9.9       2.58       0.00       55.6
5:48              331        1.6         89        7.3      187.2        7.3       10.4        5.6     1011.2        8.3        7.2        0.0        0.0        0.0       0.00       10.0       2.58       0.00       55.6
5:50              331        1.6         89        7.3      187.2        7.3       10.4        5.6     1011.3        8.3        7.2        0.0        0.0        0.0       0.00       10.0       2.58       0.00       55.6
5:52              331        3.2         89        7.3      187.2        7.3       10.4        5.6     1011.3        8.3        7.2        0.0        0.0        0.0       0.00       10.1       2.58       0.00       55.6
5:54              331        1.6         89        7.3      187.2        7.3       10.4        5.6     1011.4        8.3        7.2        0.0        0.0        0.0       0.00       10.1       2.58       0.00       55.6
5:56              331        3.2         89        7.3      187.2        7.3       10.4        5.6     1011.3        8.3        7.2        0.0        0.0        0.0       0.00       10.2       2.58       0.00       55.6
5:58              331        3.2         89        7.3      187.2        7.3       10.4        5.6     1011.3        8.3        7.2        0.0        0.0        0.0       0.00       10.2       2.58       0.00       55.6
6:00              331        1.6         89        7.3      187.2        7.3       10.4        5.6     1011.3        8.3        7.2        0.0        0.0        0.0       0.00       10.3       2.58       0.00       55.6
6:02              331        3.2         89        7.3      187.2        7.3       10.4        5.6     1011.4        8.3        7.2        0.0        0.0        0.0       0.00       10.3       2.69       0.00       55.6
6:04              331        3.2         89        7.3      187.2        7.3       10.3        5.6     1011.4        8.3        7.2        0.0        0.0        0.0       0.00       10.4       2.69       0.00       55.6
6:06              331        4.8         89        7.3      187.2        7.3       10.3        5.6     1011.4        8.3        7.2        0.0        0.0        0.0       0.00       10.5       2.69       0.00       55.6
6:08              331        1.6         89        7.3      187.2        7.3       10.3        5.6     1011.4        8.3        7.2        0.0        0.0        0.0       0.00       10.5       2.69       0.00       55.6
6:10              331        3.2         89        7.3      187.2        7.3       10.3        5.6     1011.4        8.3        7.2        0.0        0.0        0.0       0.00       10.6       2.69       0.00       55.6
6:12              331        3.2         89        7.3      187.2        7.3       10.3        5.6     1011.4        8.3        7.2        0.0        0.0        0.0       0.00       10.7       2.69       0.00       55.6
6:14              331        3.2         89        7.3      187.2        7.3       10.3        5.6     1011.5        8.3        7.2        0.0        0.0        0.0       0.00       10.8       2.69       0.00       55.6
6:16              331        3.2         89        7.3      187.2        7.3       10.3        5.6     1011.4        8.3        7.2        0.0        0.0        0.0       0.00       10.8       2.80       0.00       55.6
6:18              331        4.8         89        7.3      187.2        7.3       10.3        5.6     1011.4        8.3        7.2        0.0        0.0        0.0       0.00       10.9       2.80       0.00       55.6
6:20              331        3.2         89        7.3      187.2        7.3       10.3        5.6     1011.5        8.3        7.2        0.0        0.0        0.0       0.00       11.0       2.80       0.00       55.6
6:22              331        3.2         89        7.3      187.2        7.3       10.3        5.6     1011.6        8.3        7.2        0.0        0.0        0.0       0.00       11.1       2.80       0.00       55.6
6:24              331        3.2         89        7.3      187.2        7.3       10.3        5.6     1011.6        8.3        7.2        0.0        0.0        0.0       0.00       11.2       2.80       0.00       55.6
6:26              331        3.2         89        7.2      187.2        7.2       10.3        5.5     1011.7        8.3        7.2        0.0        0.0        0.0       0.00       11.3       2.80       0.00       55.6
6:28              332        4.8         89        7.2      187.2        7.2       10.3        5.5     1011.7        8.3        7.2        0.0        0.0        0.0       0.00       11.4       2.80       0.00       55.6
6:30              333        4.8         89        7.2      187.2        7.2       10.3        5.5     1011.7        8.3        7.2        0.0        0.0        0.0       0.00       11.5       2.80       0.00       55.6
6:32              334        4.8         89        7.2      187.2        7.2       10.3        5.5     1011.7        8.3        7.2        0.0        0.0        0.0       0.00       11.6       2.92       0.00       55.6
6:34              334        4.8         89        7.2      187.2        7.2       10.2        5.5     1011.7        8.3        7.2        0.0        0.0        0.0       0.00       11.6       2.92       0.00       55.6
6:36              336        4.8         89        7.2      187.2        7.2       10.2        5.5     1011.8        8.3        7.1        0.0        0.0        0.0       0.00       11.7       2.92       0.00       55.6
6:38              340        3.2         89        7.1      187.2        7.1       10.2        5.4     1011.7        8.3        7.1        0.0        0.0        0.0       0.00       11.8       2.92       0.00       55.6
6:40              342        3.2         89        7.1      187.2        7.1       10.2        5.4     1011.9        8.3        7.1        0.0        0.0        0.0       0.00       11.9       2.92       0.00       55.6
6:42              348        4.8         89        7.1      187.2        7.1       10.2        5.4     1011.8        8.3        7.1        0.0        0.0        0.0       0.00       12.0       2.92       0.00       55.6
6:44              351        3.2         89        7.1      187.2        7.1       10.2        5.4     1012.0        8.3        7.1        0.0        0.0        0.0       0.00       12.1       2.92       0.00       55.6
6:46              360        4.8         89        7.1      187.2        7.1       10.2        5.4     1012.0        8.3        7.1        0.0        0.0        0.0       0.00       12.2       3.03       0.00       55.6
6:48                5        4.8         89        7.2      187.2        7.2       10.2        5.5     1012.0        8.3        7.1        0.0        0.0        0.0       0.00       12.4       3.03       0.00       55.6
6:50                5        4.8         89        7.2      187.2        7.2       10.2        5.5     1011.9        8.3        7.1        0.0        0.0        0.0       0.00       12.4       3.03       0.00       55.6
6:52                9        4.8         88        7.2      187.2        7.2       10.1        5.3     1012.0        8.3        7.1        0.0        0.0        0.0       0.00       12.6       3.03       0.00       55.6
6:54               12        4.8         88        7.2      187.2        7.2       10.2        5.4     1012.0        8.3        7.1        0.0        0.0        0.0       0.00       12.7       3.03       0.00       55.6
6:56               15        3.2         88        7.2      187.2        7.2       10.2        5.4     1012.0        8.3        7.1        0.0        0.0        0.0       0.00       12.8       3.03       0.00       55.6
6:58               19        3.2         88        7.2      187.2        7.2       10.2        5.4     1012.0        8.3        7.1        0.0        0.0        0.0       0.00       12.9       3.03       0.00       55.6
7:00               19        3.2         88        7.3      187.2        7.3       10.2        5.4     1012.1        8.3        7.1        0.0        0.0        0.0       0.00       13.0       3.03       0.00       55.6
7:02               20        4.8         88        7.3      187.2        7.3       10.2        5.4     1012.0        8.3        7.1        0.0        0.0        0.0       0.00       13.1       3.14       0.00       55.6
7:04               21        4.8         87        7.3      187.2        7.3       10.2        5.3     1012.1        8.3        7.1        0.0        0.0        0.0       0.00       13.2       3.14       0.00       55.6
7:06               20        6.4         87        7.3      187.2        7.3       10.2        5.3     1012.1        8.3        7.1        0.0        0.0        0.0       0.00       13.3       3.14       0.00       55.6
7:08               20        3.2         87        7.3      187.2        7.3       10.2        5.3     1012.0        8.3        7.1        0.0        0.0        0.0       0.00       13.4       3.14       0.00       55.6
7:10               20        4.8         87        7.3      187.2        7.3       10.2        5.3     1012.0        8.3        7.1        0.0        0.0        0.0       0.00       13.5       3.14       0.00       55.6
7:12               21        3.2         87        7.3      187.2        7.3       10.2        5.3     1012.0        8.3        7.1        0.0        0.0        0.0       0.00       13.6       3.14       0.00       55.6
7:14               22        3.2         87        7.3      187.2        7.3       10.2        5.3     1012.0        8.3        7.1        0.0        0.0        0.0       0.00       13.7       3.14       0.00       55.6
7:16               22        3.2         87        7.3      187.2        7.3       10.2        5.3     1012.0        8.3        7.1        0.0        0.0        0.0       0.00       13.8       3.25       0.00       55.6
7:18               22        3.2         87        7.3      187.2        7.3       10.2        5.3     1012.1        8.3        7.1        0.0        0.0        0.0       0.00       13.9       3.25       0.00       55.6
7:20               22        3.2         87        7.3      187.2        7.3       10.2        5.3     1012.1        8.3        7.1        0.0        0.0        0.0       0.00       14.0       3.25       0.00       55.6
7:22               22        4.8         87        7.3      187.2        7.3       10.2        5.3     1012.3        8.3        7.1        0.0        0.0        0.0       0.00       14.1       3.25       0.00       55.6
7:24               24        3.2         86        7.3      187.2        7.3       10.1        5.1     1012.3        8.3        7.1        0.0        0.0        0.0       0.00       14.2       3.25       0.00       55.6
7:26               24        0.0         86        7.3      187.2        7.3       10.1        5.1     1012.4        8.3        7.1        0.0        0.0        0.0       0.00       14.3       3.25       0.00       55.6
7:28               24        0.0         86        7.3      187.2        7.3       10.1        5.1     1012.4        8.3        7.1        0.0        0.0        0.0       0.00       14.3       3.25       0.00       55.6
7:30               24        4.8         86        7.3      187.2        7.3       10.1        5.1     1012.4        8.3        7.1        0.0        0.0        0.0       0.00       14.4       3.25       0.00       55.6
7:32               24        4.8         86        7.4      187.2        7.4       10.2        5.2     1012.4        8.3        7.1        0.0        0.0        0.0       0.00       14.5       3.36       0.00       55.6
7:34               24        4.8         86        7.4      187.2        7.4       10.2        5.2     1012.3        8.3        7.1        0.0        0.0        0.0       0.00       14.6       3.36       0.00       55.6
7:36               25        3.2         86        7.4      187.2        7.4       10.3        5.3     1012.4        8.3        7.1        0.0        0.0        0.0       0.00       14.7       3.36       0.00       55.6
7:38               25        3.2         86        7.4      187.2        7.4       10.3        5.3     1012.4        8.3        7.1        0.0        0.0        0.0       0.00       14.8       3.36       0.00       55.6
7:40               24        6.4         86        7.4      187.2        7.4       10.3        5.3     1012.4        8.3        7.1        0.0        0.0        0.0       0.00       15.0       3.36       0.00       55.6
7:42               22        8.0         85        7.4      187.2        7.4       10.2        5.1     1012.5        8.3        7.1        0.0        0.0        0.0       0.00       15.1       3.36       0.00       55.6
7:44               19        8.0         85        7.4      187.2        7.4       10.2        5.1     1012.5        8.3        7.1        0.0        0.0        0.0       0.00       15.2       3.36       0.00       55.6
7:46               20        6.4         85        7.4      187.2        7.4       10.1        5.0     1012.5        8.3        7.1        0.0        0.0        0.0       0.00       15.3       3.47       0.00       55.6
7:48               19        8.0         85        7.3      187.2        7.3       10.1        5.0     1012.5        8.3        7.1        0.0        0.0        0.0       0.00       15.5       3.47       0.00       55.6
7:50               19        6.4         85        7.3      187.2        7.3       10.0        4.9     1012.5        8.3        7.1        0.0        0.0        0.0       0.00       15.6       3.47       0.00       55.6
7:52               20        4.8         85        7.3      187.2        7.3       10.0        4.9     1012.5        8.3        7.1        0.0        0.0        0.0       0.00       15.8       3.47       0.00       55.6
7:54               24        4.8         85        7.2      187.2        7.2       10.0        4.9     1012.5        8.3        7.1        0.0        0.0        0.0       0.00       15.9       3.47       0.00       55.6
7:56               23        3.2         85        7.2      187.2        7.2       10.0        4.9     1012.5        8.3        7.1        0.0        0.0        0.0       0.00       16.0       3.47       0.00       55.6
7:58               19        8.0         85        7.2      187.2        7.2       10.0        4.9     1012.5        8.3        7.1        0.0        0.0        0.0       0.00       16.1       3.47       0.00       55.6
8:00               19        4.8         86        7.2      187.2        7.2       10.0        5.0     1012.6        8.3        7.1        0.0        0.0        0.0       0.00       16.3       3.47       0.00       55.6
8:02               18        3.2         86        7.2      187.2        7.2       10.0        5.0     1012.6        8.3        7.1        0.0        0.0        0.0       0.00       16.4       3.59       0.00       55.6
8:04               14        4.8         86        7.2      187.2        7.2       10.0        5.0     1012.6        8.3        7.1        0.0        0.0        0.0       0.00       16.6       3.59       0.00       55.6
8:06               14        4.8         86        7.2      187.2        7.2       10.0        5.0     1012.6        8.3        7.1        0.0        0.0        0.0       0.00       16.7       3.59       0.00       55.6
8:08               13        4.8         86        7.3      187.2        7.3       10.1        5.1     1012.6        8.3        7.1        0.0        0.0        0.0       0.00       16.8       3.59       0.00       55.6
8:10               14        3.2         86        7.3      187.2        7.3       10.1        5.1     1012.7        8.3        7.1        0.0        0.0        0.0       0.00       16.9       3.59       0.00       55.6
8:12               14        4.8         86        7.3      187.2        7.3       10.1        5.1     1012.8        8.3        7.1        0.0        0.0        0.0       0.00       17.1       3.59       0.00       55.6
8:14               13        8.0         86        7.4      187.2        7.4       10.2        5.2     1012.9        8.3        7.1        0.0        0.0        0.0       0.00       17.2       3.59       0.00       55.6
8:16               16        4.8         86        7.4      187.2        7.4       10.3        5.3     1012.8        8.3        7.1        0.0        0.0        0.0       0.00       17.3       3.70       0.00       55.6
8:18               16        4.8         86        7.5      187.2        7.5       10.3        5.3     1012.8        8.3        7.1        0.0        0.0        0.0       0.00       17.5       3.70       0.00       55.6
8:20               16        1.6         86        7.5      187.2        7.5       10.3        5.3     1012.8        8.3        7.1        0.0        0.0        0.0       0.00       17.6       3.70       0.00       55.6
8:22               17        3.2         86        7.5      187.2        7.5       10.3        5.3     1012.8        8.3        7.1        0.0        0.0        0.0       0.00       17.7       3.70       0.00       55.6
8:24               17        3.2         86        7.5      187.2        7.5       10.3        5.3     1012.9        8.3        7.1        0.0        0.0        0.0       0.00       17.8       3.70       0.00       55.6
8:26               19        4.8         86        7.7      187.2        7.7       10.5        5.5     1013.0        8.3        7.1        0.0        0.0        0.0       0.00       17.9       3.70       0.00       55.6
8:28               19        4.8         86        7.7      187.2        7.7       10.5        5.5     1012.9        8.3        7.1        0.0        0.0        0.0       0.00       18.1       3.70       0.00       55.6
8:30               19        4.8         86        7.7      187.2        7.7       10.5        5.5     1013.0        8.3        7.1        0.0        0.0        0.0       0.00       18.2       3.70       0.00       55.6
8:32               19        4.8         86        7.7      187.2        7.7       10.5        5.5     1013.0        8.3        7.1        0.0        0.0        0.0       0.00       18.4       3.80       0.00       55.6
8:33               19        4.8         86        7.7      187.2        7.7       10.5        5.5     1013.0        8.3        7.1        0.0        0.0        0.0       0.00       18.6       3.80       0.00       55.6
8:36               19        4.8         86        7.7      187.2        7.7       10.5        5.5     1013.1        8.3        7.1        0.0        0.0        0.0       0.00       18.7       3.80       0.00       55.6
8:38               19        4.8         86        7.7      187.2        7.7       10.5        5.5     1013.2        8.3        7.1        0.0        0.0        0.0       0.00       18.9       3.80       0.00       55.6
8:40               19        4.8         86        7.7      187.2        7.7       10.5        5.5     1013.2        8.3        7.1        0.0        0.0        0.0       0.00       19.0       3.80       0.00       55.6
8:42               19        4.8         86        7.7      187.2        7.7       10.5        5.5     1013.1        8.3        7.1        0.0        0.0        0.0       0.00       19.2       3.80       0.00       55.6
8:44               19        4.8         86        7.7      187.2        7.7       10.5        5.5     1013.2        8.3        7.1        0.0        0.0        0.0       0.00       19.4       3.80       0.00       55.6
8:46               19        4.8         86        7.7      187.2        7.7       10.5        5.5     1013.2        8.3        7.1        0.0        0.0        0.0       0.00       19.5       3.91       0.00       55.6
8:48               19        4.8         86        7.7      187.2        7.7       10.5        5.5     1013.3        8.3        7.1        0.0        0.0        0.0       0.00       19.7       3.91       0.00       55.6
8:50               19        4.8         86        7.7      187.2        7.7       10.5        5.5     1013.4        8.3        7.1        0.0        0.0        0.0       0.00       19.8       3.91       0.00       55.6
8:52               19        4.8         86        7.7      187.2        7.7       10.5        5.5     1013.3        8.3        7.1        0.0        0.0        0.0       0.00       20.0       3.91       0.00       55.6
8:54               11        4.8         83        8.3      187.2        8.3       10.9        5.6     1013.3        8.3        7.1        0.0        0.0        0.0       0.00       20.2       3.91       0.00       55.6
8:56               13       11.3         83        8.3      187.2        8.3       10.9        5.6     1013.4        8.3        7.1        0.0        0.0        0.0       0.00       20.3       3.91       0.00       55.6
8:58               18        6.4         82        8.3      187.2        8.3       10.8        5.4     1013.4        8.3        7.1        0.0        0.0        0.0       0.00       20.5       3.91       0.00       55.6
9:00                5        6.4         82        8.4      187.2        8.4       10.9        5.5     1013.4        8.4        7.1        0.0        0.0        0.0       0.00       20.6       3.91       0.00       55.6
9:02               15        8.0         82        8.4      187.2        7.1       10.9        5.6     1013.5        8.4        7.1        0.0        0.0        0.0       0.00       20.8       4.01       0.00       55.6
9:04               32        4.8         82        8.5      187.2        8.5       11.0        5.6     1013.6        8.5        7.1        0.0        0.0        0.0       0.00       21.0       4.01       0.00       55.6
9:06               23        4.8         82        8.6      187.2        8.6       11.1        5.7     1013.6        8.6        7.1        0.0        0.0        0.0       0.00       21.1       4.01       0.00       55.6
9:08               19        3.2         82        8.6      187.2        8.6       11.1        5.7     1013.6        8.6        7.1        0.0        0.0        0.0       0.00       21.2       4.01       0.00       55.6
9:10               20        4.8         81        8.7      187.2        8.7       11.1        5.6     1013.6        8.7        7.1        0.0        0.0        0.0       0.00       21.3       4.01       0.00       55.6
9:12               24        3.2         81        8.7      187.2        8.7       11.1        5.6     1013.6        8.7        7.1        0.0        0.0        0.0       0.00       21.4       4.01       0.00       55.6
9:14               25        6.4         81        8.8      187.2        8.8       11.2        5.7     1013.7        8.8        7.1        0.0        0.0        0.0       0.00       21.6       4.01       0.00       55.6
9:16               11       11.3         81        8.8      187.2        8.8       11.3        5.8     1013.7        8.8        7.1        0.0        0.0        0.0       0.00       21.7       4.11       0.00       55.6
9:18               31        9.7         80        8.9      187.2        7.6       11.2        5.6     1013.7        8.9        7.1        0.0        0.0        0.0       0.00       22.0       4.11       0.00       55.6
9:20               28        6.4         80        9.0      187.2        9.0       11.3        5.7     1013.7        9.0        7.1        0.0        0.0        0.0       0.00       22.1       4.11       0.00       55.6
9:22               31        8.0         80        9.1      187.2        7.7       11.4        5.8     1013.7        9.1        7.1        0.0        0.0        0.0       0.00       22.3       4.11       0.00       55.6
9:24               16        8.0         80        9.2      187.2        9.2       11.5        5.9     1013.7        9.2        7.1        0.0        0.0        0.0       0.00       22.4       4.11       0.00       55.6
9:26               29        4.8         80        9.2      187.2        9.2       11.5        5.9     1013.7        9.2        7.1        0.0        0.0        0.0       0.00       22.6       4.11       0.00       55.6
9:28               22        4.8         80        9.2      187.2        9.2       11.6        6.0     1013.7        9.2        7.1        0.0        0.0        0.0       0.00       22.7       4.11       0.00       55.6
9:30               30        6.4         79        9.3      187.2        9.3       11.6        5.8     1013.8        9.3        7.1        0.0        0.0        0.0       0.00       22.9       4.11       0.00       55.6
9:32               34        4.8         79        9.3      187.2        9.3       11.6        5.8     1013.7        9.3        7.1        0.0        0.0        0.0       0.00       23.0       4.20       0.00       55.6
9:34               40       11.3         79        9.3      187.2        8.0       11.6        5.9     1013.7        9.3        7.1        0.0        0.0        0.0       0.00       23.2       4.20       0.00       55.6
9:36                5       12.9         79        9.4      187.2        5.5       11.7        5.9     1013.8        9.4        7.1        0.0        0.0        0.0       0.00       23.4       4.20       0.00       55.6
9:38               32        6.4         79        9.4      187.2        9.4       11.7        5.9     1013.9        9.4        7.1        0.0        0.0        0.0       0.00       23.6       4.20       0.00       55.6
9:40               19        8.0         79        9.4      187.2        9.4       11.7        6.0     1013.9        9.4        7.1        0.0        0.0        0.0       0.00       23.7       4.20       0.00       55.6
9:42               29       12.9         79        9.5      187.2        9.5       11.8        6.0     1013.9        9.5        7.1        0.0        0.0        0.0       0.00       23.9       4.20       0.00       55.6
9:44               24        8.0         79        9.5      187.2        9.5       11.8        6.0     1014.0        9.5        7.1        0.0        0.0        0.0       0.00       24.1       4.20       0.00       55.6
9:46               22        8.0         80        9.6      187.2        9.6       11.9        6.3     1013.9        9.6        7.1        0.0        0.0        0.0       0.00       24.2       4.29       0.00       55.6
9:48               24        8.0         79        9.6      187.2        9.6       11.8        6.1     1014.0        9.6        7.1        0.0        0.0        0.0       0.00       24.4       4.29       0.00       55.6
9:50               30        8.0         80        9.6      187.2        8.3       11.9        6.3     1014.0        9.6        7.1        0.0        0.0        0.0       0.00       24.6       4.29       0.00       55.6
9:52               22        4.8         80        9.6      187.2        9.6       12.0        6.3     1014.1        9.6        7.1        0.0        0.0        0.0       0.00       24.8       4.29       0.00       55.6
9:54               19        9.7         80        9.6      187.2        9.6       12.0        6.3     1014.0        9.6        7.1        0.0        0.0        0.0       0.00       24.9       4.29       0.00       55.6
9:56               15        6.4         80        9.6      187.2        9.6       12.0        6.3     1014.1        9.6        7.1        0.0        0.0        0.0       0.00       25.1       4.29       0.00       55.6
9:58               28        6.4         80        9.7      187.2        9.7       12.0        6.4     1014.1        9.7        7.1        0.0        0.0        0.0       0.00       25.4       4.29       0.00       55.6
10:00              27        3.2         80        9.7      187.2        9.7       12.0        6.4     1014.0        9.7        7.1        0.0        0.0        0.0       0.00       25.5       4.29       0.00       55.6
10:02              25        4.8         81        9.7      187.2        9.7       12.1        6.6     1014.1        9.7        7.1        0.0        0.0        0.0       0.00       25.6       4.37       0.00       55.6
10:04              40        9.7         81        9.8      187.2        7.7       12.3        6.7     1014.2        9.8        7.1        0.0        0.0        0.0       0.00       25.8       4.37       0.00       55.6
10:06              26        4.8         81        9.9      187.2        9.9       12.3        6.8     1014.1        9.9        7.1        0.0        0.0        0.0       0.00       26.0       4.37       0.00       55.6
10:08              17        8.0         81       10.0      187.2       10.0       12.4        6.9     1014.1       10.0        7.1        0.0        0.0        0.0       0.00       26.1       4.37       0.00       55.6
10:10              23        6.4         81       10.1      187.2       10.1       12.5        6.9     1014.1       10.1        7.1        0.0        0.0        0.0       0.00       26.3       4.37       0.00       55.6
10:12              26       12.9         81       10.2      187.2        8.9       12.6        7.1     1014.1       10.2        7.1        0.0        0.0        0.0       0.00       26.5       4.37       0.00       55.6
10:14              34        6.4         81       10.2      187.2       10.2       12.6        7.1     1014.2       10.2        7.1        0.0        0.0        0.0       0.00       26.7       4.37       0.00       55.6
10:16              29        3.2         81       10.3      187.2       10.3       12.7        7.2     1014.2       10.3        7.1        0.0        0.0        0.0       0.00       26.8       4.45       0.00       55.6
10:18              22       12.9         81       10.3      187.2       10.3       12.8        7.2     1014.2       10.3        7.1        0.0        0.0        0.0       0.00       27.0       4.45       0.00       55.6
10:20              34        9.7         80       10.4      187.2        9.2       12.7        7.1     1014.2       10.4        7.1        0.0        0.0        0.0       0.00       27.2       4.45       0.00       55.6
10:22              17        6.4         80       10.5      187.2       10.5       12.8        7.2     1014.2       10.5        7.1        0.0        0.0        0.0       0.00       27.4       4.45       0.00       55.6
10:24              28        8.0         80       10.6      187.2       10.6       12.9        7.3     1014.2       10.6        7.1        0.0        0.0        0.0       0.00       27.5       4.45       0.00       55.6
10:26              34        9.7         80       10.6      187.2        9.4       13.0        7.3     1014.1       10.6        7.1        0.0        0.0        0.0       0.00       27.7       4.45       0.00       55.6
10:28              14       12.9         80       10.7      187.2       10.7       13.0        7.4     1014.1       10.7        7.1        0.0        0.0        0.0       0.00       27.9       4.45       0.00       55.6
10:30              30        8.0         80       10.8      187.2       10.8       13.1        7.5     1014.1       10.8        7.1        0.0        0.0        0.0       0.00       28.1       4.45       0.00       55.6
10:32              23        4.8         80       10.8      187.2       10.8       13.2        7.5     1014.1       10.8        7.1        0.0        0.0        0.0       0.00       28.3       4.53       0.00       55.6
10:34              13        6.4         80       10.9      187.2       10.9       13.3        7.6     1014.1       10.9        7.1        0.0        0.0        0.0       0.00       28.4       4.53       0.00       55.6
10:36              35        8.0         80       11.0      187.2        9.8       13.3        7.7     1014.1       11.0        7.1        0.0        0.0        0.0       0.00       28.6       4.53       0.00       55.6
10:38              24        8.0         80       11.1      187.2        9.9       13.5        7.8     1014.1       11.1        7.1        0.0        0.0        0.0       0.00       28.8       4.53       0.00       55.6
10:40              37        8.0         79       11.2      187.2       10.0       13.4        7.7     1014.1       11.2        7.1        0.0        0.0        0.0       0.00       29.0       4.53       0.00       55.6
10:42              17        4.8         79       11.2      187.2       11.2       13.4        7.7     1014.1       11.2        7.1        0.0        0.0        0.0       0.00       29.1       4.53       0.00       55.6
10:44               9        8.0         79       11.3      187.2       11.3       13.6        7.8     1014.0       11.3        7.1        0.0        0.0        0.0       0.00       29.3       4.53       0.00       55.6
10:46              11        8.0         79       11.3      187.2       10.1       13.6        7.8     1013.9       11.3        7.1        0.0        0.0        0.0       0.00       29.5       4.60       0.00       55.6
10:48              26        6.4         79       11.4      187.2       11.4       13.7        7.9     1014.0       11.4        7.1        0.0        0.0        0.0       0.00       29.7       4.60       0.00       55.6
10:50              30       16.1         79       11.5      187.2        7.9       13.8        8.0     1014.0       11.5        7.1        0.0        0.0        0.0       0.00       29.9       4.60       0.00       55.6
10:52              19       14.5         79       11.6      187.2       11.6       13.8        8.0     1013.9       11.6        7.1        0.0        0.0        0.0       0.00       30.2       4.60       0.00       55.6
10:54              32       12.9         79       11.6      187.2       11.6       13.9        8.1     1013.9       11.6        7.1        0.0        0.0        0.0       0.00       30.4       4.60       0.00       55.6
10:56              20       11.3         79       11.7      187.2       11.7       13.9        8.2     1013.8       11.7        7.1        0.0        0.0        0.0       0.00       30.7       4.60       0.00       55.6
10:58              16        6.4         79       11.7      187.2       11.7       14.0        8.2     1013.9       11.7        7.1        0.0        0.0        0.0       0.00       30.9       4.60       0.00       55.6
11:00              67       14.5         78       11.7      187.2        8.2       13.9        8.0     1013.9       11.7        7.1        0.0        0.0        0.0       0.00       31.2       4.60       0.00       55.6
11:02              40        6.4         79       11.8      187.2       11.8       14.1        8.3     1013.9       11.8        7.1        0.0        0.0        0.0       0.00       31.5       4.66       0.00       55.6
11:04              19       11.3         78       11.8      187.2       11.8       14.0        8.1     1013.9       11.8        7.1        0.0        0.0        0.0       0.00       31.7       4.66       0.00       55.6
11:06              39       19.3         78       11.9      187.2        9.2       14.1        8.2     1013.9       11.9        7.1        0.0        0.0        0.0       0.00       32.0       4.66       0.00       55.6
11:08              24        9.7         78       11.9      187.2       11.9       14.1        8.2     1013.9       11.9        7.1        0.0        0.0        0.0       0.00       32.3       4.66       0.00       55.6
11:10              36        8.0         78       12.0      187.2       12.0       14.2        8.3     1013.9       12.0        7.1        0.0        0.0        0.0       0.00       32.5       4.66       0.00       55.6
11:12              30       12.9         78       12.1      187.2       12.1       14.3        8.3     1013.9       12.1        7.1        0.0        0.0        0.0       0.00       32.8       4.66       0.00       55.6
11:14              32       14.5         79       12.2      187.2       10.3       14.4        8.6     1013.9       12.2        7.1        0.0        0.0        0.0       0.00       32.9       4.66       0.00       55.6
11:16              38        6.4         78       12.2      187.2       12.2       14.4        8.5     1013.9       12.2        7.1        0.0        0.0        0.0       0.00       33.1       4.72       0.00       55.6
11:18              45        8.0         78       12.3      187.2       12.3       14.5        8.6     1013.8       12.3        7.1        0.0        0.0        0.0       0.00       33.2       4.72       0.00       55.6
11:20              18        4.8         78       12.4      187.2       12.4       14.6        8.7     1013.7       12.4        7.1        0.0        0.0        0.0       0.00       33.4       4.72       0.00       55.6
11:22              17       11.3         78       12.6      187.2        9.9       14.8        8.8     1013.7       12.6        7.1        0.0        0.0        0.0       0.00       33.6       4.72       0.00       55.6
11:24              32        9.7         77       12.6      187.2       12.6       14.7        8.7     1013.8       12.6        7.1        0.0        0.0        0.0       0.00       33.8       4.72       0.00       55.6
11:26              34       11.3         77       12.7      187.2       12.7       14.8        8.7     1013.6       12.7        7.1        0.0        0.0        0.0       0.00       34.1       4.72       0.00       55.6
11:28              42        6.4         77       12.7      187.2       12.7       14.9        8.8     1013.6       12.7        7.1        0.0        0.0        0.0       0.00       34.3       4.72       0.00       55.6
11:30              37        8.0         77       12.8      187.2       12.8       15.0        8.9     1013.6       12.8        7.1        0.0        0.0        0.0       0.00       34.4       4.72       0.00       55.6
11:32              36        6.4         77       12.9      187.2       12.9       15.1        9.0     1013.5       12.9        7.1        0.0        0.0        0.0       0.00       34.6       4.78       0.00       55.6
11:34              71       16.1         77       13.1      187.2       13.1       15.2        9.1     1013.6       13.1        7.1        0.0        0.0        0.0       0.00       34.8       4.78       0.00       55.6
11:36              54        8.0         77       13.2      187.2       13.2       15.3        9.2     1013.6       13.2        7.1        0.0        0.0        0.0       0.00       35.0       4.78       0.00       55.6
11:38              41        8.0         77       13.3      187.2       13.3       15.4        9.3     1013.6       13.3        7.1        0.0        0.0        0.0       0.00       35.2       4.78       0.00       55.6
11:40              51       16.1         76       13.4      187.2       13.4       15.4        9.2     1013.6       13.4        7.1        0.0        0.0        0.0       0.00       35.5       4.78       0.00       55.6
11:42              65       12.9         76       13.5      187.2       13.5       15.6        9.4     1013.6       13.5        7.1        0.0        0.0        0.0       0.00       35.7       4.78       0.00       55.6
11:44              15       12.9         75       13.6      187.2       10.4       15.6        9.3     1013.6       13.6        7.1        0.0        0.0        0.0       0.00       36.0       4.78       0.00       55.6
11:46              46        3.2         75       13.7      187.2       13.7       15.7        9.4     1013.6       13.7        7.1        0.0        0.0        0.0       0.00       36.2       4.82       0.00       55.6
11:48              33        8.0         75       13.8      187.2       13.8       15.8        9.4     1013.6       13.8        7.1        0.0        0.0        0.0       0.00       36.3       4.82       0.00       55.6
11:50              81       17.7         75       13.8      187.2        8.9       15.8        9.5     1013.6       13.8        7.1        0.0        0.0        0.0       0.00       36.6       4.82       0.00       55.6
11:52              54       12.9         74       13.9      187.2       13.9       15.9        9.4     1013.5       13.9        7.1        0.0        0.0        0.0       0.00       36.9       4.82       0.00       55.6
11:54              57        9.7         74       14.0      187.2       12.3       15.9        9.4     1013.5       14.0        7.1        0.0        0.0        0.0       0.00       37.2       4.82       0.00       55.6
11:56              49        6.4         73       14.1      187.2       14.1       15.9        9.3     1013.4       14.1        7.1        0.0        0.0        0.0       0.00       37.5       4.82       0.00       55.6
11:58              53        4.8         73       14.1      187.2       14.1       16.0        9.3     1013.4       14.1        7.1        0.0        0.0        0.0       0.00       37.8       4.82       0.00       55.6
12:00              26        8.0         73       14.2      187.2       13.1       16.0        9.4     1013.4       14.2        7.1        0.0        0.0        0.0       0.00       38.0       4.82       0.00       55.6
12:02              42        8.0         73       14.2      187.2       13.1       16.0        9.4     1013.4       14.2        7.1        0.0        0.0        0.0       0.00       38.2       4.86       0.00       55.6
12:04              42        8.0         73       14.2      187.2       13.1       16.0        9.4     1013.4       14.2        7.1        0.0        0.0        0.0       0.00       38.5       4.86       0.00       55.6
12:05              42        8.0         73       14.2      187.2       13.1       16.0        9.4     1013.4       14.2        7.1        0.0        0.0        0.0       0.00       38.8       4.86       0.00       55.6
12:08              29        8.0         73       14.4      187.2       14.4       16.2        9.6     1013.3       14.4        7.1        0.0        0.0        0.0       0.00       39.0       4.86       0.00       55.6
12:10              74       12.9         72       14.4      187.2       11.3       16.2        9.4     1013.3       14.4        7.1        0.0        0.0        0.0       0.00       39.4       4.86       0.00       55.6
12:12              30       14.5         72       14.5      187.2       13.5       16.3        9.5     1013.2       14.5        7.1        0.0        0.0        0.0       0.00       39.8       4.86       0.00       55.6
12:14              67        8.0         71       14.5      187.2       14.5       16.2        9.3     1013.3       14.5        7.1        0.0        0.0        0.0       0.00       40.1       4.86       0.00       55.6
12:16              61       17.7         71       14.6      187.2       14.6       16.3        9.4     1013.2       14.6        7.1        0.0        0.0        0.0       0.00       40.4       4.90       0.00       55.6
12:18              46       17.7         71       14.6      187.2       10.9       16.3        9.4     1013.2       14.6        7.1        0.0        0.0        0.0       0.00       40.8       4.90       0.00       55.6
12:20              49       20.9         71       14.7      187.2       13.7       16.4        9.5     1013.2       14.7        7.1        0.0        0.0        0.0       0.00       41.3       4.90       0.00       55.6
12:22              38        8.0         70       14.7      187.2       14.7       16.3        9.3     1013.1       14.7        7.1        0.0        0.0        0.0       0.00       41.6       4.90       0.00       55.6
12:24              56        9.7         71       14.7      187.2       14.7       16.4        9.5     1013.1       14.7        7.1        0.0        0.0        0.0       0.00       41.9       4.90       0.00       55.6
12:26              17       27.4         70       14.8      187.2        7.9       16.4        9.4     1013.1       14.8        7.1        0.0        0.0        0.0       0.00       42.3       4.90       0.00       55.6
12:28              67       17.7         69       14.8      187.2       10.1       16.4        9.2     1013.1       14.8        7.1        0.0        0.0        0.0       0.00       42.7       4.90       0.00       55.6
12:30              20       16.1         69       14.8      187.2       10.5       16.4        9.2     1013.0       14.8        7.1        0.0        0.0        0.0       0.00       43.1       4.90       0.00       55.6
12:32              17       17.7         69       14.8      187.2       10.5       16.4        9.2     1013.1       14.8        7.1        0.0        0.0        0.0       0.00       43.5       4.93       0.00       55.6
12:34              63        8.0         69       14.9      187.2       14.9       16.5        9.3     1013.1       14.9        7.1        0.0        0.0        0.0       0.00       43.8       4.93       0.00       55.6
12:36              53       11.3         69       14.9      187.2       13.9       16.5        9.3     1013.0       14.9        7.1        0.0        0.0        0.0       0.00       44.2       4.93       0.00       55.6
12:38              62       14.5         69       15.0      187.2       11.3       16.6        9.4     1013.1       15.0        7.1        0.0        0.0        0.0       0.00       44.5       4.93       0.00       55.6
12:40              70       12.9         68       15.1      187.2       12.1       16.6        9.2     1013.0       15.1        7.1        0.0        0.0        0.0       0.00       44.9       4.93       0.00       55.6
12:42              50        9.7         68       15.1      187.2       15.1       16.6        9.3     1013.0       15.1        7.1        0.0        0.0        0.0       0.00       45.2       4.93       0.00       55.6
12:44              67       22.5         68       15.2      187.2       10.2       16.7        9.3     1013.0       15.2        7.1        0.0        0.0        0.0       0.00       45.5       4.93       0.00       55.6
12:46              69       14.5         68       15.3      187.2       11.7       16.8        9.4     1013.0       15.3        7.1        0.0        0.0        0.0       0.00       45.8       4.96       0.00       55.6
12:48              49       17.7         67       15.3      187.2       13.7       16.8        9.2     1013.0       15.3        7.1        0.0        0.0        0.0       0.00       46.3       4.96       0.00       55.6
12:50              53       17.7         67       15.4      187.2       14.4       16.8        9.3     1013.0       15.4        7.1        0.0        0.0        0.0       0.00       46.6       4.96       0.00       55.6
12:52              49       16.1         67       15.4      187.2       11.2       16.8        9.3     1013.0       15.4        7.1        0.0        0.0        0.0       0.00       46.9       4.96       0.00       55.6
12:54              41       14.5         67       15.4      187.2       11.9       16.9        9.4     1013.0       15.4        7.1        0.0        0.0        0.0       0.00       47.3       4.96       0.00       55.6
12:56              41       19.3         66       15.4      187.2       10.5       16.8        9.1     1012.9       15.4        7.1        0.0        0.0        0.0       0.00       47.6       4.96       0.00       55.6
12:58              53       17.7         67       15.4      187.2       14.4       16.8        9.3     1012.9       15.4        7.1        0.0        0.0        0.0       0.00       47.9       4.96       0.00       55.6
13:00              50       22.5         66       15.4      187.2       11.8       16.8        9.1     1012.9       15.4        7.1        0.0        0.0        0.0       0.00       48.4       4.96       0.00       55.6
13:02              49       11.3         66       15.4      187.2       13.1       16.8        9.1     1012.8       15.4        7.1        0.0        0.0        0.0       0.00       48.7       4.99       0.00       55.6
13:04              37        8.0         67       15.4      187.2       15.4       16.9        9.4     1012.9       15.4        7.1        0.0        0.0        0.0       0.00       48.9       4.99       0.00       55.6
13:06              33       19.3         66       15.5      187.2       13.9       16.9        9.2     1012.8       15.5        7.1        0.0        0.0        0.0       0.00       49.3       4.99       0.00       55.6
13:08              36       19.3         66       15.6      187.2       15.6       16.9        9.2     1012.8       15.6        7.1        0.0        0.0        0.0       0.00       49.7       4.99       0.00       55.6
13:10              63        8.0         66       15.6      187.2       14.7       17.0        9.3     1012.8       15.6        7.1        0.0        0.0        0.0       0.00       50.1       4.99       0.00       55.6
13:12              63        8.0         66       15.6      187.2       14.7       17.0        9.3     1012.8       15.6        7.1        0.0        0.0        0.0       0.00       50.4       4.99       0.00       55.6
13:14              63        8.0         66       15.6      187.2       14.7       17.0        9.3     1012.7       15.6        7.1        0.0        0.0        0.0       0.00       50.6       4.99       0.00       55.6
13:15              63        8.0         66       15.6      187.2       14.7       17.0        9.3     1012.7       15.6        7.1        0.0        0.0        0.0       0.00       50.9       5.01       0.00       55.6
13:18              51       14.5         64       15.9      187.2       13.7       17.1        9.1     1012.7       15.9        7.1        0.0        0.0        0.0       0.00       51.2       5.01       0.00       55.6
13:20              71       19.3         65       15.9      187.2       11.5       17.2        9.3     1012.7       15.9        7.1        0.0        0.0        0.0       0.00       51.5       5.01       0.00       55.6
13:22              44        8.0         64       15.9      187.2       15.0       17.2        9.1     1012.7       15.9        7.1        0.0        0.0        0.0       0.00       51.9       5.01       0.00       55.6
13:24              60       16.1         64       16.0      187.2       13.8       17.3        9.2     1012.7       16.0        7.1        0.0        0.0        0.0       0.00       52.3       5.01       0.00       55.6
13:26              55       22.5         63       16.0      187.2       16.0       17.2        9.0     1012.6       16.0        7.1        0.0        0.0        0.0       0.00       52.7       5.01       0.00       55.6
13:28              67       19.3         63       16.1      187.2       16.1       17.2        9.0     1012.6       16.1        7.1        0.0        0.0        0.0       0.00       53.0       5.01       0.00       55.6
13:30              33       19.3         61       16.1      187.2       11.7       17.1        8.5     1012.6       16.1        7.1        0.0        0.0        0.0       0.00       53.5       5.01       0.00       55.6
13:32              76       25.7         61       16.1      187.2       10.1       17.2        8.6     1012.6       16.1        7.1        0.0        0.0        0.0       0.00       54.0       5.03       0.00       55.6
13:34              67       17.7         61       16.2      187.2       11.8       17.2        8.6     1012.5       16.2        7.1        0.0        0.0        0.0       0.00       54.4       5.03       0.00       55.6
13:36              61       22.5         60       16.2      187.2       11.6       17.2        8.5     1012.6       16.2        7.1        0.0        0.0        0.0       0.00       55.0       5.03       0.00       55.6
13:38              71        9.7         60       16.2      187.2       14.7       17.2        8.5     1012.6       16.2        7.1        0.0        0.0        0.0       0.00       55.4       5.03       0.00       55.6
13:40              65       20.9         60       16.3      187.2       14.7       17.3        8.5     1012.5       16.3        7.1        0.0        0.0        0.0       0.00       55.8       5.03       0.00       55.6
13:42              68       20.9         61       16.3      187.2       12.0       17.4        8.8     1012.5       16.3        7.1        0.0        0.0        0.0       0.00       56.3       5.03       0.00       55.6
13:44              35       19.3         61       16.4      187.2       15.5       17.5        8.9     1012.5       16.4        7.1        0.0        0.0        0.0       0.00       56.9       5.03       0.00       55.6
13:46              52       14.5         61       16.4      187.2       16.4       17.5        8.9     1012.4       16.4        7.1        0.0        0.0        0.0       0.00       57.2       5.05       0.00       55.6
13:48              56        8.0         60       16.4      187.2       15.5       17.4        8.7     1012.4       16.4        7.1        0.0        0.0        0.0       0.00       57.4       5.05       0.00       55.6
13:50              75       24.1         60       16.5      187.2       13.1       17.5        8.7     1012.4       16.5        7.1        0.0        0.0        0.0       0.00       57.9       5.05       0.00       55.6
13:52              40       19.3         60       16.5      187.2       15.0       17.5        8.7     1012.4       16.5        7.1        0.0        0.0        0.0       0.00       58.3       5.05       0.00       55.6
13:54              65        9.7         60       16.5      187.2       16.5       17.5        8.7     1012.3       16.5        7.1        0.0        0.0        0.0       0.00       58.6       5.05       0.00       55.6
13:56              74       14.5         60       16.6      187.2       13.8       17.6        8.8     1012.4       16.6        7.1        0.0        0.0        0.0       0.00       58.9       5.05       0.00       55.6
13:58              91       14.5         59       16.6      187.2       15.1       17.6        8.6     1012.3       16.6        7.1        0.0        0.0        0.0       0.00       59.3       5.05       0.00       55.6
14:00              71       20.9         59       16.7      187.2       15.8       17.6        8.6     1012.3       16.7        7.1        0.0        0.0        0.0       0.00       59.7       5.05       0.00       55.6
14:02              76       22.5         58       16.7      187.2       12.8       17.6        8.4     1012.2       16.7        7.1        0.0        0.0        0.0       0.00       60.2       5.06       0.00       55.6
14:04              50       16.1         58       16.7      187.2       12.8       17.6        8.4     1012.2       16.7        7.1        0.0        0.0        0.0       0.00       60.6       5.06       0.00       55.6
14:06              68       14.5         57       16.7      187.2       13.4       17.6        8.2     1012.2       16.7        7.1        0.0        0.0        0.0       0.00       61.0       5.06       0.00       55.6
14:08              65       17.7         57       16.8      187.2       16.8       17.6        8.2     1012.1       16.8        7.1        0.0        0.0        0.0       0.00       61.4       5.06       0.00       55.6
14:10              92       11.3         57       16.8      187.2       16.8       17.6        8.2     1012.2       16.8        7.1        0.0        0.0        0.0       0.00       61.8       5.06       0.00       55.6
14:12              84       16.1         57       16.8      187.2       16.8       17.6        8.2     1012.2       16.8        7.1        0.0        0.0        0.0       0.00       62.3       5.06       0.00       55.6
14:14              24       16.1         57       16.8      187.2       16.8       17.7        8.3     1012.2       16.8        7.1        0.0        0.0        0.0       0.00       62.6       5.06       0.00       55.6
14:16              28       29.0         57       16.8      187.2       10.5       17.7        8.3     1012.2       16.8        7.1        0.0        0.0        0.0       0.00       63.0       5.08       0.00       55.6
14:18              69       11.3         56       16.8      187.2       16.8       17.6        8.0     1012.1       16.8        7.1        0.0        0.0        0.0       0.00       63.4       5.08       0.00       55.6
14:20              92       17.7         57       16.8      187.2       16.8       17.6        8.2     1012.2       16.8        7.1        0.0        0.0        0.0       0.00       63.7       5.08       0.00       55.6
14:22              70       22.5         57       16.8      187.2       14.1       17.6        8.2     1012.2       16.8        7.1        0.0        0.0        0.0       0.00       64.1       5.08       0.00       55.6
14:24              65       16.1         57       16.7      187.2       15.2       17.6        8.2     1012.2       16.8        7.1        0.0        0.0        0.0       0.00       64.5       5.08       0.00       55.6
14:26              63       22.5         57       16.7      187.2       13.4       17.6        8.2     1012.2       16.8        7.1        0.0        0.0        0.0       0.00       64.9       5.08       0.00       55.6
14:28             108       17.7         57       16.8      187.2       13.5       17.6        8.2     1012.2       16.8        7.1        0.0        0.0        0.0       0.00       65.2       5.08       0.00       55.6
14:30              65       16.1         57       16.8      187.2       14.1       17.7        8.3     1012.2       16.8        7.1        0.0        0.0        0.0       0.00       65.6       5.08       0.00       55.6
14:32              76       16.1         57       16.8      187.2       14.7       17.7        8.3     1012.1       16.8        7.1        0.0        0.0        0.0       0.00       65.9       5.09       0.00       55.6
14:34              61       14.5         57       16.8      187.2       15.3       17.7        8.3     1012.2       16.8        7.1        0.0        0.0        0.0       0.00       66.3       5.09       0.00       55.6
14:36              66       22.5         57       16.8      187.2       12.7       17.7        8.3     1012.2       16.8        7.1        0.0        0.0        0.0       0.00       66.7       5.09       0.00       55.6
14:38              52       19.3         57       16.8      187.2       14.7       17.7        8.3     1012.2       16.8        7.1        0.0        0.0        0.0       0.00       67.2       5.09       0.00       55.6
14:40              64       16.1         57       16.8      187.2       14.1       17.7        8.3     1012.3       16.8        7.1        0.0        0.0        0.0       0.00       67.6       5.09       0.00       55.6
14:42              83       11.3         57       16.8      187.2       16.8       17.7        8.3     1012.3       16.8        7.1        0.0        0.0        0.0       0.00       68.0       5.09       0.00       55.6
14:44              49       14.5         57       16.8      187.2       16.8       17.7        8.3     1012.2       16.8        7.1        0.0        0.0        0.0       0.00       68.4       5.09       0.00       55.6
14:46              67        3.2         57       16.8      187.2       16.8       17.7        8.3     1012.2       16.8        7.1        0.0        0.0        0.0       0.00       68.7       5.10       0.00       55.6
14:48              21       14.5         57       16.9      187.2       16.9       17.7        8.3     1012.2       16.9        7.1        0.0        0.0        0.0       0.00       69.1       5.10       0.00       55.6
14:50              90       19.3         57       16.9      187.2       12.7       17.7        8.3     1012.3       16.9        7.1        0.0        0.0        0.0       0.00       69.5       5.10       0.00       55.6
14:52              69       17.7         56       16.9      187.2       13.0       17.7        8.1     1012.2       16.9        7.1        0.0        0.0        0.0       0.00       69.9       5.10       0.00       55.6
14:54              67       17.7         56       16.9      187.2       13.6       17.7        8.1     1012.3       16.9        7.1        0.0        0.0        0.0       0.00       70.3       5.10       0.00       55.6
14:56              67        6.4         56       16.9      187.2       16.9       17.7        8.1     1012.2       16.9        7.1        0.0        0.0        0.0       0.00       70.4       5.10       0.00       55.6
14:58              38       19.3         56       16.9      187.2       12.8       17.7        8.1     1012.3       17.0        7.1        0.0        0.0        0.0       0.00       70.8       5.10       0.00       55.6
15:00              12       17.7         56       16.9      187.2       12.8       17.7        8.1     1012.2       17.0        7.1        0.0        0.0        0.0       0.00       71.1       5.10       0.00       55.6
15:02              53       16.1         55       16.9      187.2       13.1       17.7        7.9     1012.2       17.0        7.1        0.0        0.0        0.0       0.00       71.4       5.11       0.00       55.6
15:04              65        9.7         56       16.9      187.2       16.9       17.7        8.1     1012.2       17.0        7.1        0.0        0.0        0.0       0.00       71.7       5.11       0.00       55.6
15:06              69       14.5         56       16.9      187.2       13.7       17.7        8.1     1012.2       17.0        7.1        0.0        0.0        0.0       0.00       71.9       5.11       0.00       55.6
15:08              67        9.7         57       17.0      187.2       15.5       17.8        8.4     1012.2       17.0        7.1        0.0        0.0        0.0       0.00       72.2       5.11       0.00       55.6
15:10              48       16.1         57       17.0      187.2       13.2       17.8        8.4     1012.2       17.0        7.1        0.0        0.0        0.0       0.00       72.5       5.11       0.00       55.6
15:12              53       19.3         56       17.0      187.2       13.8       17.8        8.2     1012.2       17.1        7.1        0.0        0.0        0.0       0.00       72.9       5.11       0.00       55.6
15:14              54        9.7         56       16.9      187.2       16.9       17.7        8.1     1012.2       17.1        7.1        0.0        0.0        0.0       0.00       73.2       5.11       0.00       55.6
15:16              76       14.5         56       16.9      187.2       16.1       17.7        8.1     1012.2       17.1        7.1        0.0        0.0        0.0       0.00       73.6       5.12       0.00       55.6
15:18              84       14.5         56       17.0      187.2       14.9       17.8        8.2     1012.2       17.1        7.1        0.0        0.0        0.0       0.00       73.9       5.12       0.00       55.6
15:20              67       24.1         56       17.0      187.2       14.3       17.8        8.2     1012.2       17.1        7.1        0.0        0.0        0.0       0.00       74.4       5.12       0.00       55.6
15:22              55       17.7         56       17.0      187.2       13.8       17.8        8.2     1012.2       17.1        7.1        0.0        0.0        0.0       0.00       74.9       5.12       0.00       55.6
15:24              70        6.4         56       17.0      187.2       17.0       17.8        8.2     1012.3       17.1        7.1        0.0        0.0        0.0       0.00       75.2       5.12       0.00       55.6
15:26              76        8.0         56       17.1      187.2       17.1       17.8        8.2     1012.3       17.1        7.1        0.0        0.0        0.0       0.00       75.4       5.12       0.00       55.6
15:28              65       19.3         56       17.1      187.2       13.3       17.8        8.2     1012.3       17.1        7.1        0.0        0.0        0.0       0.00       75.6       5.12       0.00       55.6
15:30              88       22.5         56       17.1      187.2       12.0       17.8        8.2     1012.3       17.1        7.1        0.0        0.0        0.0       0.00       76.0       5.12       0.00       55.6
15:32              65       14.5         56       17.1      187.2       17.1       17.8        8.2     1012.3       17.1        7.1        0.0        0.0        0.0       0.00       76.3       5.13       0.00       55.6
15:34              71       12.9         55       17.0      187.2       15.5       17.7        7.9     1012.3       17.1        7.1        0.0        0.0        0.0       0.00       76.6       5.13       0.00       55.6
15:36              58        9.7         56       17.1      187.2       17.1       17.8        8.2     1012.3       17.1        7.1        0.0        0.0        0.0       0.00       77.0       5.13       0.00       55.6
15:38              71        8.0         56       17.1      187.2       17.1       17.8        8.2     1012.4       17.1        7.1        0.0        0.0        0.0       0.00       77.2       5.13       0.00       55.6
15:40              86       11.3         56       17.1      187.2       17.1       17.8        8.2     1012.4       17.1        7.1        0.0        0.0        0.0       0.00       77.5       5.13       0.00       55.6
15:42              65       12.9         56       17.0      187.2       14.3       17.8        8.2     1012.5       17.1        7.1        0.0        0.0        0.0       0.00       77.8       5.13       0.00       55.6
15:44              65       12.9         56       17.1      187.2       14.4       17.8        8.2     1012.5       17.1        7.1        0.0        0.0        0.0       0.00       78.1       5.13       0.00       55.6
15:46             103       20.9         56       17.1      187.2       15.6       17.8        8.2     1012.5       17.1        7.1        0.0        0.0        0.0       0.00       78.4       5.14       0.00       55.6
15:48              71       12.9         56       17.1      187.2       16.2       17.8        8.2     1012.5       17.1        7.1        0.0        0.0        0.0       0.00       78.7       5.14       0.00       55.6
15:50              59       14.5         56       17.1      187.2       15.6       17.8        8.2     1012.6       17.1        7.1        0.0        0.0        0.0       0.00       79.0       5.14       0.00       55.6
15:52              67       12.9         56       17.0      187.2       17.0       17.8        8.2     1012.6       17.1        7.1        0.0        0.0        0.0       0.00       79.3       5.14       0.00       55.6
15:54              88       17.7         56       17.0      187.2       17.0       17.8        8.2     1012.7       17.1        7.1        0.0        0.0        0.0       0.00       79.6       5.14       0.00       55.6
15:56              87        8.0         56       17.0      187.2       16.1       17.8        8.2     1012.7       17.1        7.1        0.0        0.0        0.0       0.00       79.8       5.14       0.00       55.6
15:57              83        6.4         56       17.0      187.2       17.0       17.8        8.2     1012.7       17.1        7.1        0.0        0.0        0.0       0.00       80.0       5.14       0.00       55.6
16:00              72       12.9         56       16.9      187.2       14.3       17.7        8.1     1012.8       17.1        7.1        0.0        0.0        0.0       0.00       80.3       5.14       0.00       55.6
16:02              73       11.3         56       16.9      187.2       16.1       17.7        8.1     1012.7       17.1        7.1        0.0        0.0        0.0       0.00       80.6       5.15       0.00       55.6
16:04              85       12.9         56       16.9      187.2       16.9       17.7        8.1     1012.7       17.1        7.1        0.0        0.0        0.0       0.00       80.8       5.15       0.00       55.6
16:06              78       12.9         56       16.9      187.2       16.9       17.7        8.1     1012.8       17.1        7.1        0.0        0.0        0.0       0.00       81.0       5.15       0.00       55.6
16:08              84       14.5         56       16.9      187.2       13.7       17.7        8.1     1012.8       17.1        7.1        0.0        0.0        0.0       0.00       81.3       5.15       0.00       55.6
16:10              64       22.5         56       16.9      187.2       15.4       17.7        8.1     1012.9       17.1        7.1        0.0        0.0        0.0       0.00       81.6       5.15       0.00       55.6
16:12              74        6.4         56       16.9      187.2       16.9       17.7        8.1     1012.9       17.1        7.1        0.0        0.0        0.0       0.00       81.9       5.15       0.00       55.6
16:13              74        3.2         56       16.9      187.2       16.9       17.7        8.1     1012.9       17.1        7.1        0.0        0.0        0.0       0.00       82.0       5.15       0.00       55.6
16:16              71       14.5         56       16.8      187.2       16.8       17.6        8.0     1012.9       17.1        7.1        0.0        0.0        0.0       0.00       82.3       5.17       0.00       55.6
16:18              68        8.0         56       16.8      187.2       15.9       17.6        8.0     1013.0       17.1        7.1        0.0        0.0        0.0       0.00       82.5       5.17       0.00       55.6
16:20              76       12.9         56       16.8      187.2       15.9       17.6        8.0     1013.0       17.1        7.1        0.0        0.0        0.0       0.00       82.7       5.17       0.00       55.6
16:22              69       12.9         55       16.8      187.2       15.9       17.5        7.7     1013.0       17.1        7.1        0.0        0.0        0.0       0.00       82.9       5.17       0.00       55.6
16:24              69        4.8         55       16.7      187.2       16.7       17.4        7.6     1013.1       17.1        7.1        0.0        0.0        0.0       0.00       83.2       5.17       0.00       55.6
16:26              65        9.7         55       16.7      187.2       15.2       17.4        7.6     1013.1       17.1        7.1        0.0        0.0        0.0       0.00       83.5       5.17       0.00       55.6
16:28              66        9.7         55       16.7      187.2       16.7       17.4        7.6     1013.1       17.1        7.1        0.0        0.0        0.0       0.00       83.7       5.17       0.00       55.6
16:30              65       14.5         55       16.7      187.2       15.2       17.4        7.6     1013.1       17.1        7.1        0.0        0.0        0.0       0.00       83.9       5.17       0.00       55.6
16:32              73        8.0         55       16.7      187.2       15.8       17.4        7.6     1013.1       17.1        7.1        0.0        0.0        0.0       0.00       84.1       5.18       0.00       55.6
16:34              65        8.0         56       16.6      187.2       16.6       17.4        7.8     1013.1       17.1        7.1        0.0        0.0        0.0       0.00       84.3       5.18       0.00       55.6
16:36              22       12.9         56       16.6      187.2       16.6       17.4        7.8     1013.2       17.1        7.1        0.0        0.0        0.0       0.00       84.5       5.18       0.00       55.6
16:38              34       12.9         57       16.5      187.2       16.5       17.3        8.0     1013.1       17.1        7.1        0.0        0.0        0.0       0.00       84.8       5.18       0.00       55.6
16:40              41       14.5         58       16.4      187.2       16.4       17.3        8.2     1013.2       17.1        7.1        0.0        0.0        0.0       0.00       85.1       5.18       0.00       55.6
16:42              51       19.3         59       16.3      187.2       14.2       17.3        8.3     1013.2       17.1        7.1        0.0        0.0        0.0       0.00       85.3       5.18       0.00       55.6
16:44              30       14.5         60       16.3      187.2       14.7       17.3        8.5     1013.2       17.1        7.1        0.0        0.0        0.0       0.00       85.6       5.18       0.00       55.6
16:46              40        4.8         60       16.2      187.2       16.2       17.2        8.4     1013.3       17.1        7.1        0.0        0.0        0.0       0.00       85.9       5.20       0.00       55.6
16:48              26        8.0         60       16.1      187.2       16.1       17.1        8.4     1013.2       17.1        7.1        0.0        0.0        0.0       0.00       86.1       5.20       0.00       55.6
16:50              41        9.7         60       16.1      187.2       15.1       17.1        8.3     1013.3       17.1        7.1        0.0        0.0        0.0       0.00       86.4       5.20       0.00       55.6
16:52              48        9.7         60       16.0      187.2       14.4       17.0        8.2     1013.3       17.1        7.1        0.0        0.0        0.0       0.00       86.6       5.20       0.00       55.6
16:54              23       16.1         61       15.9      187.2       15.9       17.0        8.4     1013.3       17.1        7.1        0.0        0.0        0.0       0.00       86.9       5.20       0.00       55.6
16:56              17        8.0         61       15.8      187.2       14.9       16.9        8.3     1013.5       17.1        7.1        0.0        0.0        0.0       0.00       87.1       5.20       0.00       55.6
16:58              15        6.4         61       15.8      187.2       15.8       16.8        8.3     1013.4       17.1        7.1        0.0        0.0        0.0       0.00       87.3       5.20       0.00       55.6
17:00              34        8.0         62       15.7      187.2       15.7       16.8        8.5     1013.5       17.1        7.1        0.0        0.0        0.0       0.00       87.5       5.20       0.00       55.6
17:02              34        8.0         62       15.7      187.2       14.7       16.8        8.4     1013.4       17.1        7.1        0.0        0.0        0.0       0.00       87.7       5.22       0.00       55.6
17:04              63       14.5         62       15.6      187.2       14.0       16.7        8.3     1013.6       17.1        7.1        0.0        0.0        0.0       0.00       88.0       5.22       0.00       55.6
17:06              34        8.0         62       15.5      187.2       14.5       16.6        8.3     1013.5       17.1        7.1        0.0        0.0        0.0       0.00       88.1       5.22       0.00       55.6
17:08              27       12.9         63       15.4      187.2       12.5       16.6        8.4     1013.5       17.1        7.1        0.0        0.0        0.0       0.00       88.3       5.22       0.00       55.6
17:10              26        9.7         63       15.4      187.2       15.4       16.6        8.4     1013.5       17.1        7.1        0.0        0.0        0.0       0.00       88.6       5.22       0.00       55.6
17:12              39       17.7         63       15.4      187.2       10.8       16.6        8.4     1013.5       17.1        7.1        0.0        0.0        0.0       0.00       88.8       5.22       0.00       55.6
17:14              33        6.4         63       15.3      187.2       15.3       16.5        8.3     1013.6       17.1        7.1        0.0        0.0        0.0       0.00       89.0       5.22       0.00       55.6
17:16              33        6.4         63       15.3      187.2       15.3       16.5        8.3     1013.6       17.1        7.1        0.0        0.0        0.0       0.00       89.2       5.25       0.00       55.6
17:18              26        9.7         63       15.3      187.2       15.3       16.5        8.3     1013.6       17.1        7.1        0.0        0.0        0.0       0.00       89.4       5.25       0.00       55.6
17:20              37        4.8         64       15.2      187.2       15.2       16.5        8.5     1013.7       17.1        7.1        0.0        0.0        0.0       0.00       89.6       5.25       0.00       55.6
17:22              33       14.5         64       15.2      187.2       13.5       16.4        8.4     1013.6       17.1        7.1        0.0        0.0        0.0       0.00       89.9       5.25       0.00       55.6
17:24              28        6.4         64       15.1      187.2       15.1       16.4        8.4     1013.6       17.1        7.1        0.0        0.0        0.0       0.00       90.1       5.25       0.00       55.6
17:26              35        8.0         64       15.1      187.2       15.1       16.4        8.4     1013.7       17.1        7.1        0.0        0.0        0.0       0.00       90.2       5.25       0.00       55.6
17:28              22       14.5         64       15.1      187.2       15.1       16.3        8.3     1013.6       17.1        7.1        0.0        0.0        0.0       0.00       90.4       5.25       0.00       55.6
17:30              42       12.9         64       15.0      187.2       15.0       16.3        8.3     1013.7       17.1        7.1        0.0        0.0        0.0       0.00       90.6       5.25       0.00       55.6
17:32              40        8.0         64       14.9      187.2       14.0       16.2        8.2     1013.7       17.1        7.1        0.0        0.0        0.0       0.00       90.8       5.28       0.00       55.6
17:34              35        4.8         64       14.9      187.2       14.9       16.1        8.1     1013.7       17.1        7.1        0.0        0.0        0.0       0.00       91.0       5.28       0.00       55.6
17:36              31        9.7         64       14.9      187.2       14.9       16.1        8.1     1013.8       17.1        7.1        0.0        0.0        0.0       0.00       91.2       5.28       0.00       55.6
17:38              29        8.0         65       14.8      187.2       14.8       16.1        8.3     1013.8       17.1        7.1        0.0        0.0        0.0       0.00       91.4       5.28       0.00       55.6
17:40              31        9.7         65       14.8      187.2       14.8       16.1        8.3     1013.9       17.1        7.1        0.0        0.0        0.0       0.00       91.6       5.28       0.00       55.6
17:42              33       14.5         65       14.8      187.2       14.8       16.1        8.3     1013.9       17.1        7.1        0.0        0.0        0.0       0.00       91.7       5.28       0.00       55.6
17:44              34        8.0         65       14.7      187.2       14.7       16.0        8.2     1013.9       17.1        7.1        0.0        0.0        0.0       0.00       92.0       5.28       0.00       55.6
17:46              33       12.9         65       14.7      187.2       14.7       16.0        8.2     1013.9       17.1        7.1        0.0        0.0        0.0       0.00       92.2       5.31       0.00       55.6
17:48              38       11.3         65       14.7      187.2       14.7       16.0        8.2     1013.9       17.1        7.1        0.0        0.0        0.0       0.00       92.4       5.31       0.00       55.6
17:50              36       14.5         65       14.6      187.2       10.9       15.9        8.1     1014.0       17.1        7.1        0.0        0.0        0.0       0.00       92.7       5.31       0.00       55.6
17:52              23        8.0         65       14.6      187.2       14.6       15.9        8.1     1013.9       17.1        7.1        0.0        0.0        0.0       0.00       92.9       5.31       0.00       55.6
17:54              24        6.4         66       14.6      187.2       14.6       16.0        8.3     1014.0       17.1        7.1        0.0        0.0        0.0       0.00       93.1       5.31       0.00       55.6
17:56              32        9.7         66       14.6      187.2       13.5       15.9        8.3     1013.9       17.1        7.1        0.0        0.0        0.0       0.00       93.3       5.31       0.00       55.6
17:58              32        4.8         66       14.6      187.2       14.6       15.9        8.3     1014.0       17.1        7.1        0.0        0.0        0.0       0.00       93.5       5.31       0.00       55.6
18:00              32        8.0         66       14.5      187.2       14.5       15.9        8.2     1013.9       17.1        7.1        0.0        0.0        0.0       0.00       93.7       5.31       0.00       55.6
18:02              33        9.7         66       14.5      187.2       14.5       15.9        8.2     1014.1       17.1        7.1        0.0        0.0        0.0       0.00       93.8       5.35       0.00       55.6
18:04              34        8.0         66       14.4      187.2       13.4       15.8        8.2     1014.0       17.1        7.1        0.0        0.0        0.0       0.00       94.0       5.35       0.00       55.6
18:06              38        6.4         67       14.4      187.2       14.4       15.8        8.3     1014.1       17.1        7.1        0.0        0.0        0.0       0.00       94.2       5.35       0.00       55.6
18:08              38        8.0         67       14.3      187.2       14.3       15.8        8.3     1014.1       17.1        7.1        0.0        0.0        0.0       0.00       94.3       5.35       0.00       55.6
18:10              38        8.0         67       14.3      187.2       14.3       15.8        8.3     1014.1       17.1        7.1        0.0        0.0        0.0       0.00       94.5       5.35       0.00       55.6
18:12              36        9.7         67       14.3      187.2       14.3       15.7        8.2     1014.1       17.1        7.1        0.0        0.0        0.0       0.00       94.7       5.35       0.00       55.6
18:14              30        8.0         67       14.3      187.2       14.3       15.7        8.2     1014.2       17.1        7.1        0.0        0.0        0.0       0.00       94.9       5.35       0.00       55.6
18:16              17        6.4         67       14.2      187.2       14.2       15.7        8.2     1014.2       17.1        7.1        0.0        0.0        0.0       0.00       95.1       5.39       0.00       55.6
18:18              16        4.8         67       14.2      187.2       14.2       15.7        8.2     1014.1       17.1        7.1        0.0        0.0        0.0       0.00       95.2       5.39       0.00       55.6
18:20              28        6.4         68       14.2      187.2       14.2       15.7        8.4     1014.1       17.1        7.1        0.0        0.0        0.0       0.00       95.5       5.39       0.00       55.6
18:22              30        6.4         68       14.1      187.2       14.1       15.6        8.3     1014.1       17.1        7.1        0.0        0.0        0.0       0.00       95.6       5.39       0.00       55.6
18:24              27        3.2         68       14.1      187.2       14.1       15.6        8.3     1014.3       17.1        7.1        0.0        0.0        0.0       0.00       95.8       5.39       0.00       55.6
18:26              30        8.0         68       14.1      187.2       14.1       15.6        8.2     1014.2       17.1        7.1        0.0        0.0        0.0       0.00       95.9       5.39       0.00       55.6
18:28              28        8.0         68       14.1      187.2       14.1       15.6        8.2     1014.2       17.1        7.1        0.0        0.0        0.0       0.00       96.1       5.39       0.00       55.6
18:30              28        8.0         68       14.0      187.2       14.0       15.5        8.2     1014.3       17.1        7.1        0.0        0.0        0.0       0.00       96.3       5.39       0.00       55.6
18:32              28        4.8         68       13.9      187.2       13.9       15.5        8.1     1014.3       17.1        7.1        0.0        0.0        0.0       0.00       96.4       5.43       0.00       55.6
18:34              28        4.8         68       13.9      187.2       13.9       15.4        8.1     1014.3       17.1        7.1        0.0        0.0        0.0       0.00       96.5       5.43       0.00       55.6
18:36              31        8.0         69       13.8      187.2       13.8       15.4        8.2     1014.3       17.1        7.1        0.0        0.0        0.0       0.00       96.7       5.43       0.00       55.6
18:38              28        8.0         69       13.8      187.2       12.7       15.4        8.2     1014.4       17.1        7.1        0.0        0.0        0.0       0.00       96.8       5.43       0.00       55.6
18:40              32        9.7         69       13.7      187.2       13.7       15.3        8.1     1014.4       17.1        7.1        0.0        0.0        0.0       0.00       97.0       5.43       0.00       55.6
18:42              33        3.2         69       13.7      187.2       13.7       15.3        8.1     1014.4       17.1        7.1        0.0        0.0        0.0       0.00       97.1       5.43       0.00       55.6
18:44              34        6.4         69       13.7      187.2       13.7       15.2        8.1     1014.4       17.1        7.1        0.0        0.0        0.0       0.00       97.3       5.43       0.00       55.6
18:46              35        8.0         69       13.6      187.2       13.6       15.2        8.0     1014.4       17.1        7.1        0.0        0.0        0.0       0.00       97.5       5.48       0.00       55.6
18:48              34        6.4         69       13.6      187.2       13.6       15.2        8.0     1014.5       17.1        7.1        0.0        0.0        0.0       0.00       97.6       5.48       0.00       55.6
18:50              35       12.9         70       13.6      187.2       13.6       15.2        8.2     1014.5       17.1        7.1        0.0        0.0        0.0       0.00       97.8       5.48       0.00       55.6
18:52              36        9.7         70       13.6      187.2       13.6       15.2        8.2     1014.6       17.1        7.1        0.0        0.0        0.0       0.00       97.9       5.48       0.00       55.6
18:54              26       12.9         70       13.5      187.2       12.4       15.1        8.1     1014.5       17.1        7.1        0.0        0.0        0.0       0.00       98.1       5.48       0.00       55.6
18:56              30        8.0         70       13.5      187.2       13.5       15.1        8.1     1014.6       17.1        7.1        0.0        0.0        0.0       0.00       98.3       5.48       0.00       55.6
18:58              36        4.8         70       13.4      187.2       13.4       15.1        8.1     1014.5       17.1        7.1        0.0        0.0        0.0       0.00       98.5       5.48       0.00       55.6
19:00              33       11.3         70       13.4      187.2       13.4       15.1        8.1     1014.6       17.1        7.1        0.0        0.0        0.0       0.00       98.6       5.48       0.00       55.6
19:02              28        9.7         70       13.4      187.2       13.4       15.1        8.1     1014.6       17.1        7.1        0.0        0.0        0.0       0.00       98.8       5.52       0.00       55.6
19:04              26        8.0         70       13.4      187.2       12.3       15.0        8.0     1014.7       17.1        7.1        0.0        0.0        0.0       0.00       99.0       5.52       0.00       55.6
19:06              26        8.0         70       13.4      187.2       13.4       15.0        8.0     1014.8       17.1        7.1        0.0        0.0        0.0       0.00       99.1       5.52       0.00       55.6
19:08              32       14.5         70       13.3      187.2       11.5       15.0        8.0     1014.7       17.1        7.1        0.0        0.0        0.0       0.00       99.3       5.52       0.00       55.6
19:10              31        8.0         70       13.3      187.2       13.3       15.0        8.0     1014.8       17.1        7.1        0.0        0.0        0.0       0.00       99.5       5.52       0.00       55.6
19:12              32        4.8         70       13.3      187.2       13.3       15.0        8.0     1014.9       17.1        7.1        0.0        0.0        0.0       0.00       99.7       5.52       0.00       55.6
19:14              32        8.0         70       13.3      187.2       12.3       15.0        8.0     1014.9       17.1        7.1        0.0        0.0        0.0       0.00       99.9       5.52       0.00       55.6
19:16              34        6.4         70       13.3      187.2       13.3       14.9        7.9     1014.8       17.1        7.1        0.0        0.0        0.0       0.00      100.1       5.57       0.00       55.6
19:18              29        8.0         70       13.3      187.2       13.3       14.9        7.9     1014.8       17.1        7.1        0.0        0.0        0.0       0.00      100.2       5.57       0.00       55.6
19:20              36        6.4         70       13.2      187.2       13.2       14.9        7.9     1014.9       17.1        7.1        0.0        0.0        0.0       0.00      100.4       5.57       0.00       55.6
19:22              33        6.4         70       13.2      187.2       13.2       14.9        7.9     1014.9       17.1        7.1        0.0        0.0        0.0       0.00      100.5       5.57       0.00       55.6
19:24              33        4.8         70       13.2      187.2       13.2       14.9        7.9     1014.9       17.1        7.1        0.0        0.0        0.0       0.00      100.6       5.57       0.00       55.6
19:26              31       12.9         70       13.2      187.2       12.1       14.8        7.8     1014.9       17.1        7.1        0.0        0.0        0.0       0.00      100.8       5.57       0.00       55.6
19:28              23        6.4         70       13.2      187.2       13.2       14.8        7.8     1015.0       17.1        7.1        0.0        0.0        0.0       0.00      101.0       5.57       0.00       55.6
19:30              24        6.4         71       13.2      187.2       13.2       14.9        8.0     1015.0       17.1        7.1        0.0        0.0        0.0       0.00      101.1       5.57       0.00       55.6
19:32              28        6.4         71       13.1      187.2       13.1       14.8        8.0     1015.0       17.1        7.1        0.0        0.0        0.0       0.00      101.3       5.62       0.00       55.6
19:34              29        6.4         70       13.1      187.2       13.1       14.8        7.8     1015.0       17.1        7.1        0.0        0.0        0.0       0.00      101.5       5.62       0.00       55.6
19:36              29        6.4         70       13.1      187.2       13.1       14.7        7.7     1015.1       17.1        7.1        0.0        0.0        0.0       0.00      101.6       5.62       0.00       55.6
19:38              28       14.5         71       13.1      187.2       13.1       14.8        7.9     1015.0       17.1        7.1        0.0        0.0        0.0       0.00      101.8       5.62       0.00       55.6
19:40              30        6.4         70       13.1      187.2       13.1       14.7        7.7     1015.1       17.1        7.1        0.0        0.0        0.0       0.00      102.0       5.62       0.00       55.6
19:42              24        6.4         71       13.0      187.2       13.0       14.7        7.9     1015.1       17.1        7.1        0.0        0.0        0.0       0.00      102.1       5.62       0.00       55.6
19:44              23        4.8         71       13.0      187.2       13.0       14.7        7.9     1015.1       17.1        7.1        0.0        0.0        0.0       0.00      102.3       5.62       0.00       55.6
19:46              29       12.9         71       13.0      187.2        9.7       14.7        7.9     1015.1       17.1        7.1        0.0        0.0        0.0       0.00      102.4       5.68       0.00       55.6
19:48              32        6.4         70       12.9      187.2       12.9       14.6        7.6     1015.1       17.1        7.1        0.0        0.0        0.0       0.00      102.6       5.68       0.00       55.6
19:50              36        9.7         71       12.9      187.2       12.9       14.7        7.8     1015.1       17.1        7.1        0.0        0.0        0.0       0.00      102.8       5.68       0.00       55.6
19:52              29       14.5         70       12.9      187.2       12.9       14.6        7.6     1015.1       17.1        7.1        0.0        0.0        0.0       0.00      103.1       5.68       0.00       55.6
19:54              45        6.4         71       12.9      187.2       12.9       14.7        7.8     1015.1       17.1        7.1        0.0        0.0        0.0       0.00      103.3       5.68       0.00       55.6
19:56              36        4.8         71       12.9      187.2       12.9       14.7        7.8     1015.1       17.1        7.1        0.0        0.0        0.0       0.00      103.5       5.68       0.00       55.6
19:58              34        8.0         71       12.9      187.2       12.9       14.6        7.8     1015.1       17.1        7.1        0.0        0.0        0.0       0.00      103.7       5.68       0.00       55.6
20:00              46        8.0         70       12.9      187.2       12.9       14.6        7.6     1015.1       17.1        7.1        0.0        0.0        0.0       0.00      103.9       5.68       0.00       55.6
20:02              46        8.0         70       12.9      187.2       11.8       14.5        7.6     1015.2       17.1        7.1        0.0        0.0        0.0       0.00      104.0       5.73       0.00       55.6
20:04              45        9.7         71       12.9      187.2       11.0       14.6        7.8     1015.1       17.1        7.1        0.0        0.0        0.0       0.00      104.2       5.73       0.00       55.6
20:06              45        6.4         71       12.8      187.2       12.8       14.5        7.7     1015.2       17.1        7.1        0.0        0.0        0.0       0.00      104.4       5.73       0.00       55.6
20:08              44        4.8         71       12.8      187.2       12.8       14.5        7.7     1015.2       17.1        7.1        0.0        0.0        0.0       0.00      104.6       5.73       0.00       55.6
20:10              44        6.4         71       12.8      187.2       12.8       14.5        7.7     1015.3       17.1        7.1        0.0        0.0        0.0       0.00      104.7       5.73       0.00       55.6
20:12              44        4.8         71       12.7      187.2       12.7       14.4        7.6     1015.2       17.1        7.1        0.0        0.0        0.0       0.00      104.8       5.73       0.00       55.6
20:14              38        9.7         71       12.7      187.2       11.6       14.4        7.6     1015.2       17.1        7.1        0.0        0.0        0.0       0.00      105.0       5.73       0.00       55.6
20:16              36        4.8         72       12.7      187.2       12.7       14.4        7.8     1015.3       17.1        7.1        0.0        0.0        0.0       0.00      105.1       5.78       0.00       55.6
20:18              35        8.0         72       12.6      187.2       12.6       14.4        7.7     1015.2       17.1        7.1        0.0        0.0        0.0       0.00      105.3       5.78       0.00       55.6
20:20              34        6.4         72       12.6      187.2       12.6       14.4        7.7     1015.3       17.1        7.1        0.0        0.0        0.0       0.00      105.4       5.78       0.00       55.6
20:22              34        6.4         72       12.6      187.2       12.6       14.3        7.6     1015.3       17.1        7.1        0.0        0.0        0.0       0.00      105.6       5.78       0.00       55.6
20:24              34        4.8         72       12.6      187.2       12.6       14.3        7.6     1015.3       17.1        7.1        0.0        0.0        0.0       0.00      105.7       5.78       0.00       55.6
20:26              35        4.8         72       12.5      187.2       12.5       14.3        7.6     1015.4       17.1        7.1        0.0        0.0        0.0       0.00      105.8       5.78       0.00       55.6
20:28              35        6.4         72       12.5      187.2       12.5       14.3        7.6     1015.4       17.1        7.1        0.0        0.0        0.0       0.00      106.0       5.78       0.00       55.6
20:30              35        3.2         72       12.5      187.2       12.5       14.3        7.6     1015.3       17.1        7.1        0.0        0.0        0.0       0.00      106.1       5.78       0.00       55.6
20:32              35        6.4         73       12.5      187.2       12.5       14.3        7.8     1015.3       17.1        7.1        0.0        0.0        0.0       0.00      106.2       5.84       0.00       55.6
20:34              36        3.2         73       12.4      187.2       12.4       14.3        7.7     1015.3       17.1        7.1        0.0        0.0        0.0       0.00      106.3       5.84       0.00       55.6
20:36              36        4.8         73       12.5      187.2       12.5       14.3        7.8     1015.3       17.1        7.1        0.0        0.0        0.0       0.00      106.4       5.84       0.00       55.6
20:38              38        6.4         73       12.4      187.2       12.4       14.3        7.7     1015.3       17.1        7.1        0.0        0.0        0.0       0.00      106.6       5.84       0.00       55.6
20:40              38        4.8         73       12.4      187.2       12.4       14.3        7.7     1015.4       17.1        7.1        0.0        0.0        0.0       0.00      106.7       5.84       0.00       55.6
20:42              38        8.0         73       12.4      187.2       11.3       14.3        7.7     1015.4       17.1        7.1        0.0        0.0        0.0       0.00      106.8       5.84       0.00       55.6
20:44              38        4.8         73       12.4      187.2       12.4       14.3        7.7     1015.3       17.1        7.1        0.0        0.0        0.0       0.00      106.9       5.84       0.00       55.6
20:46              38        4.8         73       12.4      187.2       12.4       14.3        7.7     1015.4       17.1        7.1        0.0        0.0        0.0       0.00      107.1       5.90       0.00       55.6
20:48              38        4.8         73       12.4      187.2       12.4       14.3        7.7     1015.5       17.1        7.1        0.0        0.0        0.0       0.00      107.2       5.90       0.00       55.6
20:50              38        3.2         73       12.4      187.2       12.4       14.3        7.7     1015.3       17.1        7.1        0.0        0.0        0.0       0.00      107.3       5.90       0.00       55.6
20:52              38        9.7         73       12.5      187.2       12.5       14.3        7.8     1015.6       17.1        7.1        0.0        0.0        0.0       0.00      107.5       5.90       0.00       55.6
20:54              38        8.0         73       12.5      187.2       11.4       14.3        7.8     1015.6       17.1        7.1        0.0        0.0        0.0       0.00      107.7       5.90       0.00       55.6
20:56              38        6.4         73       12.5      187.2       12.5       14.3        7.8     1015.6       17.1        7.1        0.0        0.0        0.0       0.00      107.8       5.90       0.00       55.6
20:58              38        4.8         73       12.6      187.2       12.6       14.4        7.9     1015.7       17.1        7.1        0.0        0.0        0.0       0.00      107.9       5.90       0.00       55.6
21:00              38        6.4         73       12.6      187.2       12.6       14.4        7.9     1015.7       17.1        7.1        0.0        0.0        0.0       0.00      108.0       5.90       0.00       55.6
21:02              38        8.0         73       12.6      187.2       12.6       14.5        7.9     1015.8       17.1        7.1        0.0        0.0        0.0       0.00      108.1       5.96       0.00       55.6
21:04              38        4.8         73       12.6      187.2       12.6       14.5        7.9     1015.8       17.1        7.1        0.0        0.0        0.0       0.00      108.3       5.96       0.00       55.6
21:06              38        4.8         73       12.6      187.2       12.6       14.5        7.9     1015.9       17.1        7.1        0.0        0.0        0.0       0.00      108.4       5.96       0.00       55.6
21:08              38        3.2         73       12.6      187.2       12.6       14.4        7.9     1015.9       17.1        7.1        0.0        0.0        0.0       0.00      108.5       5.96       0.00       55.6
21:10              38        3.2         73       12.5      187.2       12.5       14.3        7.8     1015.9       17.1        7.1        0.0        0.0        0.0       0.00      108.6       5.96       0.00       55.6
21:12              38        6.4         73       12.4      187.2       12.4       14.3        7.7     1015.9       17.1        7.1        0.0        0.0        0.0       0.00      108.7       5.96       0.00       55.6
21:14              38        6.4         73       12.4      187.2       12.4       14.2        7.7     1015.9       17.1        7.1        0.0        0.0        0.0       0.00      108.9       5.96       0.00       55.6
21:16              38        8.0         73       12.3      187.2       12.3       14.2        7.6     1016.0       17.1        7.1        0.0        0.0        0.0       0.00      109.0       6.01       0.00       55.6
21:18              38        6.4         73       12.3      187.2       12.3       14.1        7.6     1016.0       17.1        7.1        0.0        0.0        0.0       0.00      109.2       6.01       0.00       55.6
21:20              38        6.4         74       12.2      187.2       12.2       14.1        7.7     1015.9       17.1        7.1        0.0        0.0        0.0       0.00      109.4       6.01       0.00       55.6
21:22              38        9.7         74       12.2      187.2       12.2       14.1        7.7     1015.9       17.1        7.1        0.0        0.0        0.0       0.00      109.6       6.01       0.00       55.6
21:24              34        4.8         74       12.2      187.2       12.2       14.1        7.7     1016.0       17.1        7.1        0.0        0.0        0.0       0.00      109.7       6.01       0.00       55.6
21:26              34        4.8         74       12.1      187.2       12.1       14.0        7.6     1016.0       17.1        7.1        0.0        0.0        0.0       0.00      109.9       6.01       0.00       55.6
21:28              30        4.8         74       12.1      187.2       12.1       14.0        7.6     1016.0       17.1        7.1        0.0        0.0        0.0       0.00      110.0       6.01       0.00       55.6
21:30              30        4.8         74       12.1      187.2       12.1       14.0        7.6     1016.0       17.1        7.1        0.0        0.0        0.0       0.00      110.1       6.01       0.00       55.6
21:32              30        4.8         74       12.1      187.2       12.1       14.0        7.6     1016.0       17.1        7.1        0.0        0.0        0.0       0.00      110.2       6.08       0.00       55.6
21:34              29        4.8         74       12.1      187.2       12.1       14.0        7.6     1016.1       17.1        7.1        0.0        0.0        0.0       0.00      110.4       6.08       0.00       55.6
21:36              29        8.0         74       12.1      187.2       12.1       14.0        7.6     1016.0       17.1        7.1        0.0        0.0        0.0       0.00      110.6       6.08       0.00       55.6
21:38              31        8.0         74       12.2      187.2       11.0       14.1        7.7     1016.0       17.1        7.1        0.0        0.0        0.0       0.00      110.9       6.08       0.00       55.6
21:40              34        8.0         74       12.2      187.2       12.2       14.1        7.7     1016.1       17.1        7.1        0.0        0.0        0.0       0.00      111.1       6.08       0.00       55.6
21:42              24        8.0         74       12.3      187.2       11.1       14.2        7.8     1016.0       17.1        7.1        0.0        0.0        0.0       0.00      111.3       6.08       0.00       55.6
21:44              20        8.0         74       12.3      187.2       11.1       14.2        7.8     1016.0       17.1        7.1        0.0        0.0        0.0       0.00      111.6       6.08       0.00       55.6
21:46              22        8.0         73       12.3      187.2       11.2       14.2        7.6     1016.1       17.1        7.1        0.0        0.0        0.0       0.00      111.7       6.13       0.00       55.6
21:48              24        4.8         73       12.3      187.2       12.3       14.2        7.6     1016.0       17.1        7.1        0.0        0.0        0.0       0.00      111.9       6.13       0.00       55.6
21:50              26        6.4         73       12.3      187.2       12.3       14.2        7.6     1016.0       17.1        7.1        0.0        0.0        0.0       0.00      112.1       6.13       0.00       55.6
21:52              27        8.0         73       12.3      187.2       12.3       14.1        7.6     1016.0       17.1        7.1        0.0        0.0        0.0       0.00      112.3       6.13       0.00       55.6
21:54              26        8.0         73       12.3      187.2       12.3       14.1        7.6     1016.0       17.1        7.1        0.0        0.0        0.0       0.00      112.4       6.13       0.00       55.6
21:56              24        6.4         74       12.2      187.2       12.2       14.1        7.7     1016.0       17.1        7.1        0.0        0.0        0.0       0.00      112.6       6.13       0.00       55.6
21:58              30        9.7         74       12.2      187.2       11.1       14.1        7.7     1016.1       17.1        7.1        0.0        0.0        0.0       0.00      112.8       6.13       0.00       55.6
22:00              28        4.8         74       12.2      187.2       12.2       14.1        7.7     1016.1       17.1        7.1        0.0        0.0        0.0       0.00      112.9       6.13       0.00       55.6
22:02              26        6.4         74       12.2      187.2       12.2       14.1        7.7     1016.0       17.1        7.1        0.0        0.0        0.0       0.00      113.1       6.20       0.00       55.6
22:04              24        6.4         74       12.1      187.2       12.1       14.0        7.6     1016.0       17.1        7.1        0.0        0.0        0.0       0.00      113.2       6.20       0.00       55.6
22:06              24        4.8         74       12.1      187.2       12.1       14.0        7.6     1016.1       17.1        7.1        0.0        0.0        0.0       0.00      113.3       6.20       0.00       55.6
22:08              24        4.8         74       12.1      187.2       12.1       14.0        7.6     1016.1       17.1        7.1        0.0        0.0        0.0       0.00      113.4       6.20       0.00       55.6
22:10              21        8.0         74       12.1      187.2       12.1       14.0        7.6     1016.1       17.1        7.1        0.0        0.0        0.0       0.00      113.6       6.20       0.00       55.6
22:12              20        6.4         74       12.1      187.2       12.1       14.0        7.6     1016.1       17.1        7.1        0.0        0.0        0.0       0.00      113.8       6.20       0.00       55.6
22:14              19        3.2         75       12.0      187.2       12.0       14.0        7.7     1016.2       17.1        7.1        0.0        0.0        0.0       0.00      113.9       6.20       0.00       55.6
22:16              17        8.0         75       11.9      187.2       11.9       13.9        7.7     1016.1       17.1        7.1        0.0        0.0        0.0       0.00      114.0       6.26       0.00       55.6
22:18              17       11.3         75       11.9      187.2        9.2       13.9        7.6     1016.2       17.1        7.1        0.0        0.0        0.0       0.00      114.2       6.26       0.00       55.6
22:20              17        6.4         75       11.9      187.2       11.9       13.9        7.6     1016.2       17.1        7.1        0.0        0.0        0.0       0.00      114.3       6.26       0.00       55.6
22:22              11       11.3         75       11.8      187.2       11.8       13.8        7.5     1016.2       17.1        7.1        0.0        0.0        0.0       0.00      114.5       6.26       0.00       55.6
22:24              11        8.0         76       11.8      187.2       10.6       13.8        7.7     1016.2       17.1        7.1        0.0        0.0        0.0       0.00      114.6       6.26       0.00       55.6
22:26              11        6.4         76       11.8      187.2       11.8       13.8        7.7     1016.1       17.1        7.1        0.0        0.0        0.0       0.00      114.8       6.26       0.00       55.6
22:28              15        6.4         76       11.7      187.2       11.7       13.8        7.6     1016.2       17.1        7.1        0.0        0.0        0.0       0.00      114.9       6.26       0.00       55.6
22:30              14        6.4         76       11.7      187.2       11.7       13.8        7.6     1016.2       17.1        7.1        0.0        0.0        0.0       0.00      115.0       6.26       0.00       55.6
22:32              14        6.4         76       11.7      187.2       11.7       13.8        7.6     1016.2       17.1        7.1        0.0        0.0        0.0       0.00      115.1       6.32       0.00       55.6
22:34              15        6.4         76       11.7      187.2       11.7       13.8        7.6     1016.2       17.1        7.1        0.0        0.0        0.0       0.00      115.3       6.32       0.00       55.6
22:36              15        8.0         76       11.7      187.2       11.7       13.8        7.6     1016.3       17.1        7.1        0.0        0.0        0.0       0.00      115.5       6.32       0.00       55.6
22:38              15       11.3         76       11.8      187.2        9.0       13.8        7.7     1016.2       17.1        7.1        0.0        0.0        0.0       0.00      115.6       6.32       0.00       55.6
22:40              15        6.4         76       11.8      187.2       11.8       13.8        7.7     1016.3       17.1        7.1        0.0        0.0        0.0       0.00      115.7       6.32       0.00       55.6
22:42              15        6.4         76       11.8      187.2       11.8       13.9        7.7     1016.3       17.1        7.1        0.0        0.0        0.0       0.00      115.9       6.32       0.00       55.6
22:44              16        1.6         76       11.8      187.2       11.8       13.9        7.7     1016.3       17.1        7.1        0.0        0.0        0.0       0.00      116.0       6.32       0.00       55.6
22:46              16        4.8         76       11.9      187.2       11.9       13.9        7.8     1016.3       17.1        7.1        0.0        0.0        0.0       0.00      116.1       6.39       0.00       55.6
22:48              16        3.2         76       11.9      187.2       11.9       13.9        7.8     1016.3       17.1        7.1        0.0        0.0        0.0       0.00      116.2       6.39       0.00       55.6
22:50              16        3.2         77       11.9      187.2       11.9       14.0        8.0     1016.3       17.1        7.1        0.0        0.0        0.0       0.00      116.4       6.39       0.00       55.6
22:52              19        4.8         77       11.9      187.2       11.9       14.1        8.0     1016.3       17.1        7.1        0.0        0.0        0.0       0.00      116.5       6.39       0.00       55.6
22:54              19        4.8         77       11.9      187.2       11.9       14.0        8.0     1016.3       17.1        7.1        0.0        0.0        0.0       0.00      116.6       6.39       0.00       55.6
22:56              19        4.8         77       11.9      187.2       11.9       14.0        8.0     1016.3       17.1        7.1        0.0        0.0        0.0       0.00      116.8       6.39       0.00       55.6
22:58              19        6.4         78       11.8      187.2       11.8       14.0        8.1     1016.3       17.1        7.1        0.0        0.0        0.0       0.00      117.0       6.39       0.00       55.6
23:00              19        4.8         78       11.8      187.2       11.8       14.0        8.1     1016.2       17.1        7.1        0.0        0.0        0.0       0.00      117.1       6.39       0.00       55.6
23:02              18        4.8         78       11.8      187.2       11.8       14.0        8.1     1016.3       17.1        7.1        0.0        0.0        0.0       0.00      117.2       6.45       0.00       55.6
23:04              19        4.8         78       11.7      187.2       11.7       13.9        8.0     1016.3       17.1        7.1        0.0        0.0        0.0       0.00      117.4       6.45       0.00       55.6
23:06              17        6.4         79       11.7      187.2       11.7       13.9        8.2     1016.3       17.1        7.1        0.0        0.0        0.0       0.00      117.5       6.45       0.00       55.6
23:08              14        6.4         79       11.7      187.2       11.7       13.9        8.2     1016.3       17.1        7.1        0.0        0.0        0.0       0.00      117.7       6.45       0.00       55.6
23:10              15        6.4         79       11.6      187.2       11.6       13.9        8.1     1016.4       17.1        7.1        0.0        0.0        0.0       0.00      117.9       6.45       0.00       55.6
23:12              17        6.4         79       11.6      187.2       11.6       13.9        8.1     1016.4       17.1        7.1        0.0        0.0        0.0       0.00      118.0       6.45       0.00       55.6
23:14              16        4.8         79       11.6      187.2       11.6       13.9        8.1     1016.3       17.1        7.1        0.0        0.0        0.0       0.00      118.2       6.45       0.00       55.6
23:16              17        6.4         79       11.6      187.2       11.6       13.9        8.1     1016.3       17.1        7.1        0.0        0.0        0.0       0.00      118.4       6.52       0.00       55.6
23:18              17        6.4         79       11.6      187.2       11.6       13.9        8.1     1016.3       17.1        7.1        0.0        0.0        0.0       0.00      118.5       6.52       0.00       55.6
23:20              13        4.8         79       11.6      187.2       11.6       13.9        8.1     1016.2       17.1        7.1        0.0        0.0        0.0       0.00      118.7       6.52       0.00       55.6
23:22              11        4.8         79       11.6      187.2       11.6       13.9        8.1     1016.3       17.1        7.1        0.0        0.0        0.0       0.00      118.8       6.52       0.00       55.6
23:24              11        6.4         79       11.6      187.2       11.6       13.9        8.1     1016.2       17.1        7.1        0.0        0.0        0.0       0.00      119.0       6.52       0.00       55.6
23:26              15       11.3         79       11.6      187.2        8.9       13.9        8.1     1016.3       17.1        7.1        0.0        0.0        0.0       0.00      119.1       6.52       0.00       55.6
23:28              18        4.8         79       11.6      187.2       11.6       13.9        8.1     1016.3       17.1        7.1        0.0        0.0        0.0       0.00      119.3       6.52       0.00       55.6
23:30              19        4.8         79       11.6      187.2       11.6       13.8        8.0     1016.3       17.1        7.1        0.0        0.0        0.0       0.00      119.5       6.52       0.00       55.6
23:32              17        8.0         79       11.6      187.2       11.6       13.8        8.0     1016.3       17.1        7.1        0.0        0.0        0.0       0.00      119.6       6.59       0.00       55.6
23:34              22       11.3         79       11.6      187.2       11.6       13.8        8.0     1016.4       17.1        7.1        0.0        0.0        0.0       0.00      119.8       6.59       0.00       55.6
23:36              19        8.0         79       11.5      187.2       11.5       13.8        8.0     1016.4       17.1        7.1        0.0        0.0        0.0       0.00      120.0       6.59       0.00       55.6
23:38              19        4.8         79       11.5      187.2       11.5       13.8        8.0     1016.4       17.1        7.1        0.0        0.0        0.0       0.00      120.1       6.59       0.00       55.6
23:40              22        9.7         79       11.5      187.2       11.5       13.8        8.0     1016.4       17.1        7.1        0.0        0.0        0.0       0.00      120.3       6.59       0.00       55.6
23:42              20       11.3         79       11.5      187.2       11.5       13.8        8.0     1016.4       17.1        7.1        0.0        0.0        0.0       0.00      120.4       6.59       0.00       55.6
23:44              21        8.0         79       11.5      187.2       11.5       13.8        8.0     1016.4       17.1        7.1        0.0        0.0        0.0       0.00      120.6       6.59       0.00       55.6
23:46              20        4.8         79       11.5      187.2       11.5       13.8        8.0     1016.3       17.1        7.1        0.0        0.0        0.0       0.00      120.7       6.65       0.00       55.6
23:48              19        6.4         79       11.5      187.2       11.5       13.8        8.0     1016.3       17.1        7.1        0.0        0.0        0.0       0.00      120.8       6.65       0.00       55.6
23:50              20        6.4         79       11.5      187.2       11.5       13.8        8.0     1016.2       17.1        7.1        0.0        0.0        0.0       0.00      121.0       6.65       0.00       55.6
23:52              17        6.4         79       11.5      187.2       11.5       13.8        8.0     1016.2       17.1        7.1        0.0        0.0        0.0       0.00      121.2       6.65       0.00       55.6
23:54              17        4.8         79       11.5      187.2       11.5       13.8        8.0     1016.3       17.1        7.1        0.0        0.0        0.0       0.00      121.3       6.65       0.00       55.6
23:56              28        4.8         79       11.5      187.2       11.5       13.8        8.0     1016.2       17.1        7.1        0.0        0.0        0.0       0.00      121.5       6.65       0.00       55.6
23:58              23        8.0         78       11.6      187.2       11.6       13.8        7.9     1016.1       17.1        7.1        0.0        0.0        0.0       0.00      121.7       6.65       0.00       55.6